﻿<?xml version="1.0" encoding="utf-8"?><gpx creator="Garmin Desktop App" version="1.1" xsi:schemaLocation="http://www.topografix.com/GPX/1/1 http://www.topografix.com/GPX/1/1/gpx.xsd http://www.garmin.com/xmlschemas/WaypointExtension/v1 http://www8.garmin.com/xmlschemas/WaypointExtensionv1.xsd http://www.garmin.com/xmlschemas/TrackPointExtension/v1 http://www.garmin.com/xmlschemas/TrackPointExtensionv1.xsd http://www.garmin.com/xmlschemas/GpxExtensions/v3 http://www8.garmin.com/xmlschemas/GpxExtensionsv3.xsd http://www.garmin.com/xmlschemas/ActivityExtension/v1 http://www8.garmin.com/xmlschemas/ActivityExtensionv1.xsd http://www.garmin.com/xmlschemas/AdventuresExtensions/v1 http://www8.garmin.com/xmlschemas/AdventuresExtensionv1.xsd http://www.garmin.com/xmlschemas/PressureExtension/v1 http://www.garmin.com/xmlschemas/PressureExtensionv1.xsd http://www.garmin.com/xmlschemas/TripExtensions/v1 http://www.garmin.com/xmlschemas/TripExtensionsv1.xsd http://www.garmin.com/xmlschemas/TripMetaDataExtensions/v1 http://www.garmin.com/xmlschemas/TripMetaDataExtensionsv1.xsd http://www.garmin.com/xmlschemas/ViaPointTransportationModeExtensions/v1 http://www.garmin.com/xmlschemas/ViaPointTransportationModeExtensionsv1.xsd http://www.garmin.com/xmlschemas/CreationTimeExtension/v1 http://www.garmin.com/xmlschemas/CreationTimeExtensionsv1.xsd http://www.garmin.com/xmlschemas/AccelerationExtension/v1 http://www.garmin.com/xmlschemas/AccelerationExtensionv1.xsd http://www.garmin.com/xmlschemas/PowerExtension/v1 http://www.garmin.com/xmlschemas/PowerExtensionv1.xsd http://www.garmin.com/xmlschemas/VideoExtension/v1 http://www.garmin.com/xmlschemas/VideoExtensionv1.xsd" xmlns="http://www.topografix.com/GPX/1/1" xmlns:xsi="http://www.w3.org/2001/XMLSchema-instance" xmlns:wptx1="http://www.garmin.com/xmlschemas/WaypointExtension/v1" xmlns:gpxtrx="http://www.garmin.com/xmlschemas/GpxExtensions/v3" xmlns:gpxtpx="http://www.garmin.com/xmlschemas/TrackPointExtension/v1" xmlns:gpxx="http://www.garmin.com/xmlschemas/GpxExtensions/v3" xmlns:trp="http://www.garmin.com/xmlschemas/TripExtensions/v1" xmlns:adv="http://www.garmin.com/xmlschemas/AdventuresExtensions/v1" xmlns:prs="http://www.garmin.com/xmlschemas/PressureExtension/v1" xmlns:tmd="http://www.garmin.com/xmlschemas/TripMetaDataExtensions/v1" xmlns:vptm="http://www.garmin.com/xmlschemas/ViaPointTransportationModeExtensions/v1" xmlns:ctx="http://www.garmin.com/xmlschemas/CreationTimeExtension/v1" xmlns:gpxacc="http://www.garmin.com/xmlschemas/AccelerationExtension/v1" xmlns:gpxpx="http://www.garmin.com/xmlschemas/PowerExtension/v1" xmlns:vidx1="http://www.garmin.com/xmlschemas/VideoExtension/v1">

  <metadata>
    <link href="http://www.garmin.com">
      <text>Garmin International</text>
    </link>
    <time>2022-04-10T17:02:49Z</time>
    <bounds maxlat="46.096304906532168" maxlon="8.836165862157941" minlat="46.070687128230929" minlon="8.815201632678509" />
  </metadata>

  <trk>
    <name>Biegno Indemini Monteviasco2022-04-10</name>
    <extensions>
      <gpxx:TrackExtension>
        <gpxx:DisplayColor>Yellow</gpxx:DisplayColor>
      </gpxx:TrackExtension>
      <gpxtrkx:TrackStatsExtension xmlns:gpxtrkx="http://www.garmin.com/xmlschemas/TrackStatsExtension/v1">
        <gpxtrkx:Distance>13958</gpxtrkx:Distance>
        <gpxtrkx:TotalElapsedTime>21864</gpxtrkx:TotalElapsedTime>
        <gpxtrkx:MovingTime>17120</gpxtrkx:MovingTime>
        <gpxtrkx:StoppedTime>4735</gpxtrkx:StoppedTime>
        <gpxtrkx:MovingSpeed>0.815</gpxtrkx:MovingSpeed>
        <gpxtrkx:MaxSpeed>2.568</gpxtrkx:MaxSpeed>
        <gpxtrkx:MaxElevation>1037.288</gpxtrkx:MaxElevation>
        <gpxtrkx:MinElevation>557.538</gpxtrkx:MinElevation>
        <gpxtrkx:Ascent>897</gpxtrkx:Ascent>
        <gpxtrkx:Descent>890.453</gpxtrkx:Descent>
        <gpxtrkx:AvgAscentRate>0.089</gpxtrkx:AvgAscentRate>
        <gpxtrkx:MaxAscentRate>0.292</gpxtrkx:MaxAscentRate>
        <gpxtrkx:AvgDescentRate>0.076</gpxtrkx:AvgDescentRate>
        <gpxtrkx:MaxDescentRate>-0.395</gpxtrkx:MaxDescentRate>
      </gpxtrkx:TrackStatsExtension>
    </extensions>
    <trkseg>
      <trkpt lat="46.07379924505949" lon="8.816744573414326">
        <ele>560.03999999999996</ele>
        <time>2022-04-10T06:52:32Z</time>
      </trkpt>
      <trkpt lat="46.073813242837787" lon="8.816826464608312">
        <ele>557.63</ele>
        <time>2022-04-10T06:52:38Z</time>
      </trkpt>
      <trkpt lat="46.073817266151309" lon="8.816839037463069">
        <ele>557.63</ele>
        <time>2022-04-10T06:52:39Z</time>
      </trkpt>
      <trkpt lat="46.073824977502227" lon="8.816868625581265">
        <ele>560.63999999999999</ele>
        <time>2022-04-10T06:52:41Z</time>
      </trkpt>
      <trkpt lat="46.073870910331607" lon="8.817007346078754">
        <ele>560.57000000000005</ele>
        <time>2022-04-10T06:52:50Z</time>
      </trkpt>
      <trkpt lat="46.073884908109903" lon="8.817069204524159">
        <ele>560.39999999999998</ele>
        <time>2022-04-10T06:52:54Z</time>
      </trkpt>
      <trkpt lat="46.073920531198382" lon="8.817244302481413">
        <ele>560.48000000000002</ele>
        <time>2022-04-10T06:53:04Z</time>
      </trkpt>
      <trkpt lat="46.073988508433104" lon="8.817290738224983">
        <ele>559.80999999999995</ele>
        <time>2022-04-10T06:53:12Z</time>
      </trkpt>
      <trkpt lat="46.074148686602712" lon="8.817175989970565">
        <ele>560.03999999999996</ele>
        <time>2022-04-10T06:53:25Z</time>
      </trkpt>
      <trkpt lat="46.074258908629417" lon="8.817309010773897">
        <ele>558.40999999999997</ele>
        <time>2022-04-10T06:53:36Z</time>
      </trkpt>
      <trkpt lat="46.074265614151955" lon="8.817325606942177">
        <ele>558.25</ele>
        <time>2022-04-10T06:53:37Z</time>
      </trkpt>
      <trkpt lat="46.074281791225076" lon="8.817347651347518">
        <ele>557.58000000000004</ele>
        <time>2022-04-10T06:53:39Z</time>
      </trkpt>
      <trkpt lat="46.074374159798026" lon="8.817493999376893">
        <ele>558.52999999999997</ele>
        <time>2022-04-10T06:53:50Z</time>
      </trkpt>
      <trkpt lat="46.074413806200027" lon="8.817526437342167">
        <ele>559.00999999999999</ele>
        <time>2022-04-10T06:53:54Z</time>
      </trkpt>
      <trkpt lat="46.074485974386334" lon="8.81766582839191">
        <ele>560.88999999999999</ele>
        <time>2022-04-10T06:54:08Z</time>
      </trkpt>
      <trkpt lat="46.074547497555614" lon="8.81765509955585">
        <ele>562.55999999999995</ele>
        <time>2022-04-10T06:54:18Z</time>
      </trkpt>
      <trkpt lat="46.074556382372975" lon="8.817556696012616">
        <ele>563.91999999999996</ele>
        <time>2022-04-10T06:54:30Z</time>
      </trkpt>
      <trkpt lat="46.074572978541255" lon="8.817588044330478">
        <ele>564.84000000000003</ele>
        <time>2022-04-10T06:54:41Z</time>
      </trkpt>
      <trkpt lat="46.074581611901522" lon="8.817589888349176">
        <ele>564.88</ele>
        <time>2022-04-10T06:55:02Z</time>
      </trkpt>
      <trkpt lat="46.074629053473473" lon="8.817612184211612">
        <ele>566.45000000000005</ele>
        <time>2022-04-10T06:55:11Z</time>
      </trkpt>
      <trkpt lat="46.074620420113206" lon="8.817542530596256">
        <ele>568.42999999999995</ele>
        <time>2022-04-10T06:55:22Z</time>
      </trkpt>
      <trkpt lat="46.074619917199016" lon="8.817480839788914">
        <ele>570.39999999999998</ele>
        <time>2022-04-10T06:55:33Z</time>
      </trkpt>
      <trkpt lat="46.07467339374125" lon="8.81746550090611">
        <ele>572.46000000000004</ele>
        <time>2022-04-10T06:55:41Z</time>
      </trkpt>
      <trkpt lat="46.074795601889491" lon="8.817486707121134">
        <ele>574.45000000000005</ele>
        <time>2022-04-10T06:55:56Z</time>
      </trkpt>
      <trkpt lat="46.074903225526214" lon="8.817516295239329">
        <ele>577.38</ele>
        <time>2022-04-10T06:56:11Z</time>
      </trkpt>
      <trkpt lat="46.075014118105173" lon="8.817523587495089">
        <ele>580.05999999999995</ele>
        <time>2022-04-10T06:56:27Z</time>
      </trkpt>
      <trkpt lat="46.075026271864772" lon="8.817437253892422">
        <ele>582.12</ele>
        <time>2022-04-10T06:56:39Z</time>
      </trkpt>
      <trkpt lat="46.075061392039061" lon="8.817396936938167">
        <ele>584.11000000000001</ele>
        <time>2022-04-10T06:56:53Z</time>
      </trkpt>
      <trkpt lat="46.075132135301828" lon="8.817397691309452">
        <ele>586.72000000000003</ele>
        <time>2022-04-10T06:57:05Z</time>
      </trkpt>
      <trkpt lat="46.075089890509844" lon="8.817301383242011">
        <ele>588.85000000000002</ele>
        <time>2022-04-10T06:57:18Z</time>
      </trkpt>
      <trkpt lat="46.075141355395317" lon="8.817302891984582">
        <ele>590.86000000000001</ele>
        <time>2022-04-10T06:57:30Z</time>
      </trkpt>
      <trkpt lat="46.075150743126869" lon="8.817244973033667">
        <ele>592.77999999999997</ele>
        <time>2022-04-10T06:57:44Z</time>
      </trkpt>
      <trkpt lat="46.075201286002994" lon="8.817193927243352">
        <ele>595.96000000000004</ele>
        <time>2022-04-10T06:57:59Z</time>
      </trkpt>
      <trkpt lat="46.07528368011117" lon="8.817179929465056">
        <ele>598.96000000000004</ele>
        <time>2022-04-10T06:58:15Z</time>
      </trkpt>
      <trkpt lat="46.075334306806326" lon="8.81726810708642">
        <ele>601.85000000000002</ele>
        <time>2022-04-10T06:58:30Z</time>
      </trkpt>
      <trkpt lat="46.07539071701467" lon="8.817321164533496">
        <ele>604.41999999999996</ele>
        <time>2022-04-10T06:58:45Z</time>
      </trkpt>
      <trkpt lat="46.075474787503481" lon="8.817280428484082">
        <ele>607.45000000000005</ele>
        <time>2022-04-10T06:59:02Z</time>
      </trkpt>
      <trkpt lat="46.075559109449387" lon="8.817228209227324">
        <ele>610.26999999999998</ele>
        <time>2022-04-10T06:59:16Z</time>
      </trkpt>
      <trkpt lat="46.075655166059732" lon="8.817221252247691">
        <ele>611.85000000000002</ele>
        <time>2022-04-10T06:59:30Z</time>
      </trkpt>
      <trkpt lat="46.075698668137193" lon="8.817229717969894">
        <ele>612.85000000000002</ele>
        <time>2022-04-10T06:59:38Z</time>
      </trkpt>
      <trkpt lat="46.075817858800292" lon="8.817239189520478">
        <ele>615.12</ele>
        <time>2022-04-10T06:59:54Z</time>
      </trkpt>
      <trkpt lat="46.075898911803961" lon="8.817143300548196">
        <ele>617.17999999999995</ele>
        <time>2022-04-10T07:00:10Z</time>
      </trkpt>
      <trkpt lat="46.075933612883091" lon="8.817071802914143">
        <ele>619.24000000000001</ele>
        <time>2022-04-10T07:00:25Z</time>
      </trkpt>
      <trkpt lat="46.07593989931047" lon="8.817032659426332">
        <ele>619.23000000000002</ele>
        <time>2022-04-10T07:00:43Z</time>
      </trkpt>
      <trkpt lat="46.075961273163557" lon="8.817039951682091">
        <ele>619.39999999999998</ele>
        <time>2022-04-10T07:01:03Z</time>
      </trkpt>
      <trkpt lat="46.075962027534842" lon="8.817010866478086">
        <ele>619.80999999999995</ele>
        <time>2022-04-10T07:01:21Z</time>
      </trkpt>
      <trkpt lat="46.075985161587596" lon="8.816969459876418">
        <ele>620.33000000000004</ele>
        <time>2022-04-10T07:01:37Z</time>
      </trkpt>
      <trkpt lat="46.075976612046361" lon="8.816901231184602">
        <ele>620.95000000000005</ele>
        <time>2022-04-10T07:01:53Z</time>
      </trkpt>
      <trkpt lat="46.076045092195272" lon="8.816813891753554">
        <ele>623.14999999999998</ele>
        <time>2022-04-10T07:02:07Z</time>
      </trkpt>
      <trkpt lat="46.076093371957541" lon="8.816770222038031">
        <ele>624</ele>
        <time>2022-04-10T07:02:17Z</time>
      </trkpt>
      <trkpt lat="46.076161600649357" lon="8.816666537895799">
        <ele>625.98000000000002</ele>
        <time>2022-04-10T07:02:34Z</time>
      </trkpt>
      <trkpt lat="46.076157912611961" lon="8.816661760210991">
        <ele>623.84000000000003</ele>
        <time>2022-04-10T07:02:51Z</time>
      </trkpt>
      <trkpt lat="46.076202252879739" lon="8.816572576761246">
        <ele>623.95000000000005</ele>
        <time>2022-04-10T07:03:09Z</time>
      </trkpt>
      <trkpt lat="46.076233936473727" lon="8.81650485098362">
        <ele>622.64999999999998</ele>
        <time>2022-04-10T07:03:21Z</time>
      </trkpt>
      <trkpt lat="46.076229577884078" lon="8.81649655289948">
        <ele>622.74000000000001</ele>
        <time>2022-04-10T07:03:45Z</time>
      </trkpt>
      <trkpt lat="46.076255645602942" lon="8.816449111327529">
        <ele>622.34000000000003</ele>
        <time>2022-04-10T07:03:53Z</time>
      </trkpt>
      <trkpt lat="46.076354552060366" lon="8.816354479640722">
        <ele>619.91999999999996</ele>
        <time>2022-04-10T07:04:04Z</time>
      </trkpt>
      <trkpt lat="46.076402412727475" lon="8.816307205706835">
        <ele>618.66999999999996</ele>
        <time>2022-04-10T07:04:09Z</time>
      </trkpt>
      <trkpt lat="46.076571559533477" lon="8.816182231530547">
        <ele>616.37</ele>
        <time>2022-04-10T07:04:26Z</time>
      </trkpt>
      <trkpt lat="46.0767085198313" lon="8.816177537664771">
        <ele>616.02999999999997</ele>
        <time>2022-04-10T07:04:37Z</time>
      </trkpt>
      <trkpt lat="46.076771132647991" lon="8.81614962592721">
        <ele>618.76999999999998</ele>
        <time>2022-04-10T07:04:46Z</time>
      </trkpt>
      <trkpt lat="46.076861992478371" lon="8.816098412498832">
        <ele>621.86000000000001</ele>
        <time>2022-04-10T07:05:00Z</time>
      </trkpt>
      <trkpt lat="46.076966095715761" lon="8.816036134958267">
        <ele>625.13999999999999</ele>
        <time>2022-04-10T07:05:15Z</time>
      </trkpt>
      <trkpt lat="46.077030971646309" lon="8.815968912094832">
        <ele>627.73000000000002</ele>
        <time>2022-04-10T07:05:29Z</time>
      </trkpt>
      <trkpt lat="46.077119316905737" lon="8.815937228500843">
        <ele>627.76999999999998</ele>
        <time>2022-04-10T07:05:40Z</time>
      </trkpt>
      <trkpt lat="46.07718838378787" lon="8.815897582098842">
        <ele>627.49000000000001</ele>
        <time>2022-04-10T07:05:53Z</time>
      </trkpt>
      <trkpt lat="46.077257534489036" lon="8.81589163094759">
        <ele>629.76999999999998</ele>
        <time>2022-04-10T07:06:07Z</time>
      </trkpt>
      <trkpt lat="46.077304473146796" lon="8.815824575722218">
        <ele>632.25999999999999</ele>
        <time>2022-04-10T07:06:19Z</time>
      </trkpt>
      <trkpt lat="46.077372282743454" lon="8.815830443054438">
        <ele>635.28999999999996</ele>
        <time>2022-04-10T07:06:31Z</time>
      </trkpt>
      <trkpt lat="46.077417209744453" lon="8.815765818580985">
        <ele>637.22000000000003</ele>
        <time>2022-04-10T07:06:43Z</time>
      </trkpt>
      <trkpt lat="46.077501615509391" lon="8.815753078088164">
        <ele>640.25999999999999</ele>
        <time>2022-04-10T07:06:58Z</time>
      </trkpt>
      <trkpt lat="46.077571939677" lon="8.815718628466129">
        <ele>642.36000000000001</ele>
        <time>2022-04-10T07:07:11Z</time>
      </trkpt>
      <trkpt lat="46.07759834267199" lon="8.815749138593674">
        <ele>643.75</ele>
        <time>2022-04-10T07:07:18Z</time>
      </trkpt>
      <trkpt lat="46.077690124511719" lon="8.815768416970968">
        <ele>646.35000000000002</ele>
        <time>2022-04-10T07:07:31Z</time>
      </trkpt>
      <trkpt lat="46.077785175293684" lon="8.815785013139248">
        <ele>649.25999999999999</ele>
        <time>2022-04-10T07:07:46Z</time>
      </trkpt>
      <trkpt lat="46.077858181670308" lon="8.815787527710199">
        <ele>651.59000000000003</ele>
        <time>2022-04-10T07:08:00Z</time>
      </trkpt>
      <trkpt lat="46.077883075922728" lon="8.815838238224387">
        <ele>652.75</ele>
        <time>2022-04-10T07:08:07Z</time>
      </trkpt>
      <trkpt lat="46.077863546088338" lon="8.815864138305187">
        <ele>654.45000000000005</ele>
        <time>2022-04-10T07:08:15Z</time>
      </trkpt>
      <trkpt lat="46.077881650999188" lon="8.815945358946919">
        <ele>656.51999999999998</ele>
        <time>2022-04-10T07:08:31Z</time>
      </trkpt>
      <trkpt lat="46.077944431453943" lon="8.81598592735827">
        <ele>658.52999999999997</ele>
        <time>2022-04-10T07:08:45Z</time>
      </trkpt>
      <trkpt lat="46.078012408688664" lon="8.816095646470785">
        <ele>661.11000000000001</ele>
        <time>2022-04-10T07:09:00Z</time>
      </trkpt>
      <trkpt lat="46.078018443658948" lon="8.816161612048745">
        <ele>662.61000000000001</ele>
        <time>2022-04-10T07:09:14Z</time>
      </trkpt>
      <trkpt lat="46.077981479465961" lon="8.816224308684468">
        <ele>663.5</ele>
        <time>2022-04-10T07:09:38Z</time>
      </trkpt>
      <trkpt lat="46.077914843335748" lon="8.816320449113846">
        <ele>666.10000000000002</ele>
        <time>2022-04-10T07:09:52Z</time>
      </trkpt>
      <trkpt lat="46.077836137264967" lon="8.816395383328199">
        <ele>669.21000000000004</ele>
        <time>2022-04-10T07:10:07Z</time>
      </trkpt>
      <trkpt lat="46.07783337123692" lon="8.816477777436376">
        <ele>671.37</ele>
        <time>2022-04-10T07:10:20Z</time>
      </trkpt>
      <trkpt lat="46.077908892184496" lon="8.81646771915257">
        <ele>674.63999999999999</ele>
        <time>2022-04-10T07:10:34Z</time>
      </trkpt>
      <trkpt lat="46.077962033450603" lon="8.816491859033704">
        <ele>676.98000000000002</ele>
        <time>2022-04-10T07:10:47Z</time>
      </trkpt>
      <trkpt lat="46.077982904389501" lon="8.816492445766926">
        <ele>677.51999999999998</ele>
        <time>2022-04-10T07:10:50Z</time>
      </trkpt>
      <trkpt lat="46.078044846653938" lon="8.816512981429696">
        <ele>679.21000000000004</ele>
        <time>2022-04-10T07:11:00Z</time>
      </trkpt>
      <trkpt lat="46.078136041760445" lon="8.816475011408329">
        <ele>681.67999999999995</ele>
        <time>2022-04-10T07:11:17Z</time>
      </trkpt>
      <trkpt lat="46.078196559101343" lon="8.816519686952233">
        <ele>684.13999999999999</ele>
        <time>2022-04-10T07:11:30Z</time>
      </trkpt>
      <trkpt lat="46.078231930732727" lon="8.816572157666087">
        <ele>686.67999999999995</ele>
        <time>2022-04-10T07:11:45Z</time>
      </trkpt>
      <trkpt lat="46.078278869390488" lon="8.816579198464751">
        <ele>689.54999999999995</ele>
        <time>2022-04-10T07:12:01Z</time>
      </trkpt>
      <trkpt lat="46.078322203829885" lon="8.816554555669427">
        <ele>691.75999999999999</ele>
        <time>2022-04-10T07:12:14Z</time>
      </trkpt>
      <trkpt lat="46.078360173851252" lon="8.816546509042382">
        <ele>693.83000000000004</ele>
        <time>2022-04-10T07:12:27Z</time>
      </trkpt>
      <trkpt lat="46.078395210206509" lon="8.816494876518846">
        <ele>696.10000000000002</ele>
        <time>2022-04-10T07:12:41Z</time>
      </trkpt>
      <trkpt lat="46.078462852165103" lon="8.816420529037714">
        <ele>696.74000000000001</ele>
        <time>2022-04-10T07:12:54Z</time>
      </trkpt>
      <trkpt lat="46.078494032844901" lon="8.816309049725533">
        <ele>698.03999999999996</ele>
        <time>2022-04-10T07:13:06Z</time>
      </trkpt>
      <trkpt lat="46.078524040058255" lon="8.816273594275117">
        <ele>699.63999999999999</ele>
        <time>2022-04-10T07:13:19Z</time>
      </trkpt>
      <trkpt lat="46.078528901562095" lon="8.816281640902162">
        <ele>699.52999999999997</ele>
        <time>2022-04-10T07:13:33Z</time>
      </trkpt>
      <trkpt lat="46.078541809692979" lon="8.816308965906501">
        <ele>699.33000000000004</ele>
        <time>2022-04-10T07:13:59Z</time>
      </trkpt>
      <trkpt lat="46.078573744744062" lon="8.816316341981292">
        <ele>699.80999999999995</ele>
        <time>2022-04-10T07:14:14Z</time>
      </trkpt>
      <trkpt lat="46.078588245436549" lon="8.816295135766268">
        <ele>700.37</ele>
        <time>2022-04-10T07:14:26Z</time>
      </trkpt>
      <trkpt lat="46.078653959557414" lon="8.816243587061763">
        <ele>703.25</ele>
        <time>2022-04-10T07:14:40Z</time>
      </trkpt>
      <trkpt lat="46.078730318695307" lon="8.816182734444737">
        <ele>706.09000000000003</ele>
        <time>2022-04-10T07:14:54Z</time>
      </trkpt>
      <trkpt lat="46.078794775530696" lon="8.816151050850749">
        <ele>707.71000000000004</ele>
        <time>2022-04-10T07:15:05Z</time>
      </trkpt>
      <trkpt lat="46.078820424154401" lon="8.816136047244072">
        <ele>708.38</ele>
        <time>2022-04-10T07:15:17Z</time>
      </trkpt>
      <trkpt lat="46.078811958432198" lon="8.816121546551585">
        <ele>708.09000000000003</ele>
        <time>2022-04-10T07:15:33Z</time>
      </trkpt>
      <trkpt lat="46.078821010887623" lon="8.816131101921201">
        <ele>707.51999999999998</ele>
        <time>2022-04-10T07:15:51Z</time>
      </trkpt>
      <trkpt lat="46.078823525458574" lon="8.816132610663772">
        <ele>707.96000000000004</ele>
        <time>2022-04-10T07:16:10Z</time>
      </trkpt>
      <trkpt lat="46.07885068282485" lon="8.816113919019699">
        <ele>708.57000000000005</ele>
        <time>2022-04-10T07:16:25Z</time>
      </trkpt>
      <trkpt lat="46.078856382519007" lon="8.816088689491153">
        <ele>708.91999999999996</ele>
        <time>2022-04-10T07:16:51Z</time>
      </trkpt>
      <trkpt lat="46.078869374468923" lon="8.816074356436729">
        <ele>708.76999999999998</ele>
        <time>2022-04-10T07:17:11Z</time>
      </trkpt>
      <trkpt lat="46.078846910968423" lon="8.816085755825043">
        <ele>708.70000000000005</ele>
        <time>2022-04-10T07:17:32Z</time>
      </trkpt>
      <trkpt lat="46.078842720016837" lon="8.816110147163272">
        <ele>708.47000000000003</ele>
        <time>2022-04-10T07:17:50Z</time>
      </trkpt>
      <trkpt lat="46.078890161588788" lon="8.816056083887816">
        <ele>710.69000000000005</ele>
        <time>2022-04-10T07:18:05Z</time>
      </trkpt>
      <trkpt lat="46.078967107459903" lon="8.816060777753592">
        <ele>713.82000000000005</ele>
        <time>2022-04-10T07:18:19Z</time>
      </trkpt>
      <trkpt lat="46.079068696126342" lon="8.815980227664113">
        <ele>716.23000000000002</ele>
        <time>2022-04-10T07:18:34Z</time>
      </trkpt>
      <trkpt lat="46.07916827313602" lon="8.815984837710857">
        <ele>718.24000000000001</ele>
        <time>2022-04-10T07:18:47Z</time>
      </trkpt>
      <trkpt lat="46.079255361109972" lon="8.815984083339572">
        <ele>719.84000000000003</ele>
        <time>2022-04-10T07:18:58Z</time>
      </trkpt>
      <trkpt lat="46.079267514869571" lon="8.815908143296838">
        <ele>721.64999999999998</ele>
        <time>2022-04-10T07:19:12Z</time>
      </trkpt>
      <trkpt lat="46.079325601458549" lon="8.815873190760613">
        <ele>723.70000000000005</ele>
        <time>2022-04-10T07:19:26Z</time>
      </trkpt>
      <trkpt lat="46.079381927847862" lon="8.815887775272131">
        <ele>725.95000000000005</ele>
        <time>2022-04-10T07:19:41Z</time>
      </trkpt>
      <trkpt lat="46.079416209831834" lon="8.815935971215367">
        <ele>728.02999999999997</ele>
        <time>2022-04-10T07:19:55Z</time>
      </trkpt>
      <trkpt lat="46.079437667503953" lon="8.815886350348592">
        <ele>730.38</ele>
        <time>2022-04-10T07:20:12Z</time>
      </trkpt>
      <trkpt lat="46.079478319734335" lon="8.815835556015372">
        <ele>732.14999999999998</ele>
        <time>2022-04-10T07:20:23Z</time>
      </trkpt>
      <trkpt lat="46.079522324725986" lon="8.81575433537364">
        <ele>734.63999999999999</ele>
        <time>2022-04-10T07:20:37Z</time>
      </trkpt>
      <trkpt lat="46.07956507243216" lon="8.815718712285161">
        <ele>736.45000000000005</ele>
        <time>2022-04-10T07:20:50Z</time>
      </trkpt>
      <trkpt lat="46.079593654721975" lon="8.81566783413291">
        <ele>736.96000000000004</ele>
        <time>2022-04-10T07:20:59Z</time>
      </trkpt>
      <trkpt lat="46.079630451276898" lon="8.81566297262907">
        <ele>737.61000000000001</ele>
        <time>2022-04-10T07:21:14Z</time>
      </trkpt>
      <trkpt lat="46.079674875363708" lon="8.815646208822727">
        <ele>740.47000000000003</ele>
        <time>2022-04-10T07:21:29Z</time>
      </trkpt>
      <trkpt lat="46.079711085185409" lon="8.815571777522564">
        <ele>742.82000000000005</ele>
        <time>2022-04-10T07:21:45Z</time>
      </trkpt>
      <trkpt lat="46.079743690788746" lon="8.815546296536923">
        <ele>744.84000000000003</ele>
        <time>2022-04-10T07:22:02Z</time>
      </trkpt>
      <trkpt lat="46.079770345240831" lon="8.815548224374652">
        <ele>745.44000000000005</ele>
        <time>2022-04-10T07:22:10Z</time>
      </trkpt>
      <trkpt lat="46.079803789034486" lon="8.815509164705873">
        <ele>747.63</ele>
        <time>2022-04-10T07:22:24Z</time>
      </trkpt>
      <trkpt lat="46.079790545627475" lon="8.815483432263136">
        <ele>748.08000000000004</ele>
        <time>2022-04-10T07:22:35Z</time>
      </trkpt>
      <trkpt lat="46.079788282513618" lon="8.815403385087848">
        <ele>749.76999999999998</ele>
        <time>2022-04-10T07:22:52Z</time>
      </trkpt>
      <trkpt lat="46.07981912791729" lon="8.815370108932257">
        <ele>750.48000000000002</ele>
        <time>2022-04-10T07:23:10Z</time>
      </trkpt>
      <trkpt lat="46.079865479841828" lon="8.815416796132922">
        <ele>751.83000000000004</ele>
        <time>2022-04-10T07:23:28Z</time>
      </trkpt>
      <trkpt lat="46.079872520640492" lon="8.815409671515226">
        <ele>753.02999999999997</ele>
        <time>2022-04-10T07:23:45Z</time>
      </trkpt>
      <trkpt lat="46.079859109595418" lon="8.815348483622074">
        <ele>753.88999999999999</ele>
        <time>2022-04-10T07:24:01Z</time>
      </trkpt>
      <trkpt lat="46.079894062131643" lon="8.815354267135263">
        <ele>756.23000000000002</ele>
        <time>2022-04-10T07:24:13Z</time>
      </trkpt>
      <trkpt lat="46.079937815666199" lon="8.815307496115565">
        <ele>758.25</ele>
        <time>2022-04-10T07:24:29Z</time>
      </trkpt>
      <trkpt lat="46.079948041588068" lon="8.815280506387353">
        <ele>758.19000000000005</ele>
        <time>2022-04-10T07:24:43Z</time>
      </trkpt>
      <trkpt lat="46.079986011609435" lon="8.81525837816298">
        <ele>760.86000000000001</ele>
        <time>2022-04-10T07:24:59Z</time>
      </trkpt>
      <trkpt lat="46.079981988295913" lon="8.815368097275496">
        <ele>761.72000000000003</ele>
        <time>2022-04-10T07:25:17Z</time>
      </trkpt>
      <trkpt lat="46.079985676333308" lon="8.815489383414388">
        <ele>763.60000000000002</ele>
        <time>2022-04-10T07:25:33Z</time>
      </trkpt>
      <trkpt lat="46.080017276108265" lon="8.815457029268146">
        <ele>765.44000000000005</ele>
        <time>2022-04-10T07:25:48Z</time>
      </trkpt>
      <trkpt lat="46.080086845904589" lon="8.815408749505878">
        <ele>767.75</ele>
        <time>2022-04-10T07:26:06Z</time>
      </trkpt>
      <trkpt lat="46.080098412930965" lon="8.815356446430087">
        <ele>768.59000000000003</ele>
        <time>2022-04-10T07:26:21Z</time>
      </trkpt>
      <trkpt lat="46.080138729885221" lon="8.815251924097538">
        <ele>770.49000000000001</ele>
        <time>2022-04-10T07:26:38Z</time>
      </trkpt>
      <trkpt lat="46.080165887251496" lon="8.815209595486522">
        <ele>772.30999999999995</ele>
        <time>2022-04-10T07:26:54Z</time>
      </trkpt>
      <trkpt lat="46.080161444842815" lon="8.815415874123573">
        <ele>773.87</ele>
        <time>2022-04-10T07:27:13Z</time>
      </trkpt>
      <trkpt lat="46.080185249447823" lon="8.815531460568309">
        <ele>774.75</ele>
        <time>2022-04-10T07:27:27Z</time>
      </trkpt>
      <trkpt lat="46.080249957740307" lon="8.815597090870142">
        <ele>777.22000000000003</ele>
        <time>2022-04-10T07:27:45Z</time>
      </trkpt>
      <trkpt lat="46.08031215146184" lon="8.815636401996017">
        <ele>779.08000000000004</ele>
        <time>2022-04-10T07:28:03Z</time>
      </trkpt>
      <trkpt lat="46.080316426232457" lon="8.815587032586336">
        <ele>780.67999999999995</ele>
        <time>2022-04-10T07:28:18Z</time>
      </trkpt>
      <trkpt lat="46.080368896946311" lon="8.815642520785332">
        <ele>782.60000000000002</ele>
        <time>2022-04-10T07:28:33Z</time>
      </trkpt>
      <trkpt lat="46.080394880846143" lon="8.815627098083496">
        <ele>783.78999999999996</ele>
        <time>2022-04-10T07:28:46Z</time>
      </trkpt>
      <trkpt lat="46.080361688509583" lon="8.81558577530086">
        <ele>785.34000000000003</ele>
        <time>2022-04-10T07:28:59Z</time>
      </trkpt>
      <trkpt lat="46.080371746793389" lon="8.815540848299861">
        <ele>786.62</ele>
        <time>2022-04-10T07:29:10Z</time>
      </trkpt>
      <trkpt lat="46.080375099554658" lon="8.815490053966641">
        <ele>787.55999999999995</ele>
        <time>2022-04-10T07:29:20Z</time>
      </trkpt>
      <trkpt lat="46.080382894724607" lon="8.81553933955729">
        <ele>788.48000000000002</ele>
        <time>2022-04-10T07:29:34Z</time>
      </trkpt>
      <trkpt lat="46.080384738743305" lon="8.815546715632081">
        <ele>789.15999999999997</ele>
        <time>2022-04-10T07:29:38Z</time>
      </trkpt>
      <trkpt lat="46.080388259142637" lon="8.81554713472724">
        <ele>788.35000000000002</ele>
        <time>2022-04-10T07:29:40Z</time>
      </trkpt>
      <trkpt lat="46.080423714593053" lon="8.815613016486168">
        <ele>788.32000000000005</ele>
        <time>2022-04-10T07:29:59Z</time>
      </trkpt>
      <trkpt lat="46.08044165186584" lon="8.81564780138433">
        <ele>790.22000000000003</ele>
        <time>2022-04-10T07:30:07Z</time>
      </trkpt>
      <trkpt lat="46.080479202792048" lon="8.815558450296521">
        <ele>793.39999999999998</ele>
        <time>2022-04-10T07:30:22Z</time>
      </trkpt>
      <trkpt lat="46.080531002953649" lon="8.815494328737259">
        <ele>796.15999999999997</ele>
        <time>2022-04-10T07:30:38Z</time>
      </trkpt>
      <trkpt lat="46.08054818585515" lon="8.815454430878162">
        <ele>797.80999999999995</ele>
        <time>2022-04-10T07:30:55Z</time>
      </trkpt>
      <trkpt lat="46.080588335171342" lon="8.815441355109215">
        <ele>799.60000000000002</ele>
        <time>2022-04-10T07:31:09Z</time>
      </trkpt>
      <trkpt lat="46.080643655732274" lon="8.815420484170318">
        <ele>801.89999999999998</ele>
        <time>2022-04-10T07:31:26Z</time>
      </trkpt>
      <trkpt lat="46.080711130052805" lon="8.815416628494859">
        <ele>803.30999999999995</ele>
        <time>2022-04-10T07:31:44Z</time>
      </trkpt>
      <trkpt lat="46.080752033740282" lon="8.815416796132922">
        <ele>804.88</ele>
        <time>2022-04-10T07:32:01Z</time>
      </trkpt>
      <trkpt lat="46.080718170851469" lon="8.815360218286514">
        <ele>807.17999999999995</ele>
        <time>2022-04-10T07:32:20Z</time>
      </trkpt>
      <trkpt lat="46.08071381226182" lon="8.815358877182007">
        <ele>807.25</ele>
        <time>2022-04-10T07:32:32Z</time>
      </trkpt>
      <trkpt lat="46.080708112567663" lon="8.815358793362975">
        <ele>807.08000000000004</ele>
        <time>2022-04-10T07:32:34Z</time>
      </trkpt>
      <trkpt lat="46.080666454508901" lon="8.815330462530255">
        <ele>806.88</ele>
        <time>2022-04-10T07:32:44Z</time>
      </trkpt>
      <trkpt lat="46.080699227750301" lon="8.815329121425748">
        <ele>808.99000000000001</ele>
        <time>2022-04-10T07:32:59Z</time>
      </trkpt>
      <trkpt lat="46.08075781725347" lon="8.815345466136932">
        <ele>810.75</ele>
        <time>2022-04-10T07:33:16Z</time>
      </trkpt>
      <trkpt lat="46.080776508897543" lon="8.815365666523576">
        <ele>810.88</ele>
        <time>2022-04-10T07:33:24Z</time>
      </trkpt>
      <trkpt lat="46.080807270482183" lon="8.815395254641771">
        <ele>812.19000000000005</ele>
        <time>2022-04-10T07:33:35Z</time>
      </trkpt>
      <trkpt lat="46.080797798931599" lon="8.815378323197365">
        <ele>813.14999999999998</ele>
        <time>2022-04-10T07:33:43Z</time>
      </trkpt>
      <trkpt lat="46.080776760354638" lon="8.815315710380673">
        <ele>814.95000000000005</ele>
        <time>2022-04-10T07:33:57Z</time>
      </trkpt>
      <trkpt lat="46.080789333209395" lon="8.815285451710224">
        <ele>816.87</ele>
        <time>2022-04-10T07:34:11Z</time>
      </trkpt>
      <trkpt lat="46.080818502232432" lon="8.815323254093528">
        <ele>818.25</ele>
        <time>2022-04-10T07:34:23Z</time>
      </trkpt>
      <trkpt lat="46.080821938812733" lon="8.81526131182909">
        <ele>819.80999999999995</ele>
        <time>2022-04-10T07:34:37Z</time>
      </trkpt>
      <trkpt lat="46.080801319330931" lon="8.815203728154302">
        <ele>822.10000000000002</ele>
        <time>2022-04-10T07:34:55Z</time>
      </trkpt>
      <trkpt lat="46.080857226625085" lon="8.815282518044114">
        <ele>823.5</ele>
        <time>2022-04-10T07:35:12Z</time>
      </trkpt>
      <trkpt lat="46.080958060920238" lon="8.815331468358636">
        <ele>826</ele>
        <time>2022-04-10T07:35:27Z</time>
      </trkpt>
      <trkpt lat="46.080986559391022" lon="8.81527497433126">
        <ele>826.74000000000001</ele>
        <time>2022-04-10T07:35:43Z</time>
      </trkpt>
      <trkpt lat="46.080957390367985" lon="8.815227951854467">
        <ele>828.39999999999998</ele>
        <time>2022-04-10T07:35:57Z</time>
      </trkpt>
      <trkpt lat="46.080945152789354" lon="8.815203728154302">
        <ele>830.25</ele>
        <time>2022-04-10T07:36:14Z</time>
      </trkpt>
      <trkpt lat="46.081022601574659" lon="8.815204566344619">
        <ele>832.47000000000003</ele>
        <time>2022-04-10T07:36:33Z</time>
      </trkpt>
      <trkpt lat="46.081090327352285" lon="8.815223844721913">
        <ele>834.35000000000002</ele>
        <time>2022-04-10T07:36:48Z</time>
      </trkpt>
      <trkpt lat="46.081144222989678" lon="8.815201632678509">
        <ele>835.87</ele>
        <time>2022-04-10T07:37:01Z</time>
      </trkpt>
      <trkpt lat="46.081172050908208" lon="8.815224599093199">
        <ele>837.41999999999996</ele>
        <time>2022-04-10T07:37:20Z</time>
      </trkpt>
      <trkpt lat="46.081181690096855" lon="8.815219150856137">
        <ele>837.15999999999997</ele>
        <time>2022-04-10T07:37:44Z</time>
      </trkpt>
      <trkpt lat="46.081236340105534" lon="8.81521143950522">
        <ele>838.97000000000003</ele>
        <time>2022-04-10T07:38:00Z</time>
      </trkpt>
      <trkpt lat="46.081301467493176" lon="8.815263658761978">
        <ele>840.63</ele>
        <time>2022-04-10T07:38:17Z</time>
      </trkpt>
      <trkpt lat="46.081382017582655" lon="8.815260725095868">
        <ele>842.61000000000001</ele>
        <time>2022-04-10T07:38:32Z</time>
      </trkpt>
      <trkpt lat="46.081495508551598" lon="8.815258629620075">
        <ele>845.07000000000005</ele>
        <time>2022-04-10T07:38:52Z</time>
      </trkpt>
      <trkpt lat="46.081538842990994" lon="8.815276483073831">
        <ele>846.78999999999996</ele>
        <time>2022-04-10T07:39:06Z</time>
      </trkpt>
      <trkpt lat="46.081587877124548" lon="8.815336916595697">
        <ele>848.78999999999996</ele>
        <time>2022-04-10T07:39:20Z</time>
      </trkpt>
      <trkpt lat="46.081618219614029" lon="8.81531210616231">
        <ele>848.59000000000003</ele>
        <time>2022-04-10T07:39:41Z</time>
      </trkpt>
      <trkpt lat="46.081687370315194" lon="8.815333731472492">
        <ele>849.47000000000003</ele>
        <time>2022-04-10T07:39:54Z</time>
      </trkpt>
      <trkpt lat="46.081763813272119" lon="8.815344125032425">
        <ele>851.46000000000004</ele>
        <time>2022-04-10T07:40:10Z</time>
      </trkpt>
      <trkpt lat="46.08182642608881" lon="8.815354267135263">
        <ele>852.87</ele>
        <time>2022-04-10T07:40:23Z</time>
      </trkpt>
      <trkpt lat="46.081831874325871" lon="8.815382849425077">
        <ele>854.25999999999999</ele>
        <time>2022-04-10T07:40:36Z</time>
      </trkpt>
      <trkpt lat="46.081818966194987" lon="8.815409168601036">
        <ele>852.63999999999999</ele>
        <time>2022-04-10T07:40:53Z</time>
      </trkpt>
      <trkpt lat="46.081799352541566" lon="8.815453508868814">
        <ele>853.21000000000004</ele>
        <time>2022-04-10T07:41:28Z</time>
      </trkpt>
      <trkpt lat="46.081809243187308" lon="8.815444372594357">
        <ele>852.91999999999996</ele>
        <time>2022-04-10T07:42:07Z</time>
      </trkpt>
      <trkpt lat="46.081774877384305" lon="8.815397936850786">
        <ele>853.13</ele>
        <time>2022-04-10T07:42:44Z</time>
      </trkpt>
      <trkpt lat="46.081761298701167" lon="8.815432637929916">
        <ele>854.82000000000005</ele>
        <time>2022-04-10T07:43:15Z</time>
      </trkpt>
      <trkpt lat="46.081819804385304" lon="8.815425094217062">
        <ele>855.21000000000004</ele>
        <time>2022-04-10T07:43:33Z</time>
      </trkpt>
      <trkpt lat="46.081849643960595" lon="8.815411012619734">
        <ele>855.23000000000002</ele>
        <time>2022-04-10T07:43:49Z</time>
      </trkpt>
      <trkpt lat="46.081845536828041" lon="8.815416544675827">
        <ele>856.14999999999998</ele>
        <time>2022-04-10T07:43:58Z</time>
      </trkpt>
      <trkpt lat="46.081851907074451" lon="8.815440768375993">
        <ele>855.65999999999997</ele>
        <time>2022-04-10T07:44:13Z</time>
      </trkpt>
      <trkpt lat="46.081846123561263" lon="8.815419981256127">
        <ele>855.67999999999995</ele>
        <time>2022-04-10T07:44:32Z</time>
      </trkpt>
      <trkpt lat="46.081891134381294" lon="8.815413862466812">
        <ele>856.36000000000001</ele>
        <time>2022-04-10T07:44:51Z</time>
      </trkpt>
      <trkpt lat="46.081989789381623" lon="8.815415371209383">
        <ele>857.90999999999997</ele>
        <time>2022-04-10T07:45:04Z</time>
      </trkpt>
      <trkpt lat="46.082093557342887" lon="8.81541377864778">
        <ele>861.04999999999995</ele>
        <time>2022-04-10T07:45:19Z</time>
      </trkpt>
      <trkpt lat="46.082138735800982" lon="8.815418388694525">
        <ele>862.99000000000001</ele>
        <time>2022-04-10T07:45:37Z</time>
      </trkpt>
      <trkpt lat="46.082158097997308" lon="8.815431883558631">
        <ele>863.66999999999996</ele>
        <time>2022-04-10T07:45:54Z</time>
      </trkpt>
      <trkpt lat="46.082177627831697" lon="8.815449653193355">
        <ele>859.73000000000002</ele>
        <time>2022-04-10T07:45:57Z</time>
      </trkpt>
      <trkpt lat="46.082186596468091" lon="8.815454514697194">
        <ele>861.40999999999997</ele>
        <time>2022-04-10T07:45:58Z</time>
      </trkpt>
      <trkpt lat="46.082192547619343" lon="8.815457616001368">
        <ele>864.94000000000005</ele>
        <time>2022-04-10T07:45:59Z</time>
      </trkpt>
      <trkpt lat="46.082227248698473" lon="8.815465243533254">
        <ele>863.60000000000002</ele>
        <time>2022-04-10T07:46:03Z</time>
      </trkpt>
      <trkpt lat="46.082252394407988" lon="8.815462393686175">
        <ele>864.08000000000004</ele>
        <time>2022-04-10T07:46:06Z</time>
      </trkpt>
      <trkpt lat="46.082284916192293" lon="8.815461555495858">
        <ele>863.96000000000004</ele>
        <time>2022-04-10T07:46:09Z</time>
      </trkpt>
      <trkpt lat="46.08239077962935" lon="8.815464572981">
        <ele>864.25</ele>
        <time>2022-04-10T07:46:20Z</time>
      </trkpt>
      <trkpt lat="46.082435371354222" lon="8.815460298210383">
        <ele>864.73000000000002</ele>
        <time>2022-04-10T07:46:24Z</time>
      </trkpt>
      <trkpt lat="46.082575097680092" lon="8.815336246043444">
        <ele>867.88</ele>
        <time>2022-04-10T07:46:38Z</time>
      </trkpt>
      <trkpt lat="46.082655983045697" lon="8.815287966281176">
        <ele>868.05999999999995</ele>
        <time>2022-04-10T07:46:53Z</time>
      </trkpt>
      <trkpt lat="46.082721697166562" lon="8.81532384082675">
        <ele>866.44000000000005</ele>
        <time>2022-04-10T07:47:10Z</time>
      </trkpt>
      <trkpt lat="46.082772742956877" lon="8.81535854190588">
        <ele>864.44000000000005</ele>
        <time>2022-04-10T07:47:18Z</time>
      </trkpt>
      <trkpt lat="46.082842815667391" lon="8.815507739782333">
        <ele>863.10000000000002</ele>
        <time>2022-04-10T07:47:28Z</time>
      </trkpt>
      <trkpt lat="46.082894364371896" lon="8.815603544935584">
        <ele>865.32000000000005</ele>
        <time>2022-04-10T07:47:40Z</time>
      </trkpt>
      <trkpt lat="46.082964017987251" lon="8.815629947930574">
        <ele>867.84000000000003</ele>
        <time>2022-04-10T07:47:53Z</time>
      </trkpt>
      <trkpt lat="46.083029648289084" lon="8.815768333151937">
        <ele>870.22000000000003</ele>
        <time>2022-04-10T07:48:07Z</time>
      </trkpt>
      <trkpt lat="46.083047837018967" lon="8.815823569893837">
        <ele>871.94000000000005</ele>
        <time>2022-04-10T07:48:19Z</time>
      </trkpt>
      <trkpt lat="46.083050183951855" lon="8.815862126648426">
        <ele>871.85000000000002</ele>
        <time>2022-04-10T07:48:25Z</time>
      </trkpt>
      <trkpt lat="46.0830685403198" lon="8.815970253199339">
        <ele>872.45000000000005</ele>
        <time>2022-04-10T07:48:33Z</time>
      </trkpt>
      <trkpt lat="46.08310273848474" lon="8.816096149384975">
        <ele>873.01999999999998</ele>
        <time>2022-04-10T07:48:42Z</time>
      </trkpt>
      <trkpt lat="46.083176080137491" lon="8.816297985613346">
        <ele>873.61000000000001</ele>
        <time>2022-04-10T07:48:56Z</time>
      </trkpt>
      <trkpt lat="46.083213044330478" lon="8.816335368901491">
        <ele>874.39999999999998</ele>
        <time>2022-04-10T07:49:00Z</time>
      </trkpt>
      <trkpt lat="46.083247745409608" lon="8.816363029181957">
        <ele>874.80999999999995</ele>
        <time>2022-04-10T07:49:04Z</time>
      </trkpt>
      <trkpt lat="46.083355788141489" lon="8.816446764394641">
        <ele>876.40999999999997</ele>
        <time>2022-04-10T07:49:19Z</time>
      </trkpt>
      <trkpt lat="46.083402140066028" lon="8.81645992398262">
        <ele>876.28999999999996</ele>
        <time>2022-04-10T07:49:26Z</time>
      </trkpt>
      <trkpt lat="46.083500711247325" lon="8.81655715405941">
        <ele>875.92999999999995</ele>
        <time>2022-04-10T07:50:00Z</time>
      </trkpt>
      <trkpt lat="46.083536669611931" lon="8.816484399139881">
        <ele>879.02999999999997</ele>
        <time>2022-04-10T07:50:22Z</time>
      </trkpt>
      <trkpt lat="46.083530634641647" lon="8.816371578723192">
        <ele>880.40999999999997</ele>
        <time>2022-04-10T07:50:37Z</time>
      </trkpt>
      <trkpt lat="46.083539351820946" lon="8.816334195435047">
        <ele>881.70000000000005</ele>
        <time>2022-04-10T07:50:42Z</time>
      </trkpt>
      <trkpt lat="46.083617890253663" lon="8.816216178238392">
        <ele>884.99000000000001</ele>
        <time>2022-04-10T07:50:56Z</time>
      </trkpt>
      <trkpt lat="46.083655944094062" lon="8.816177537664771">
        <ele>887.10000000000002</ele>
        <time>2022-04-10T07:51:07Z</time>
      </trkpt>
      <trkpt lat="46.083730878308415" lon="8.816137555986643">
        <ele>889.59000000000003</ele>
        <time>2022-04-10T07:51:19Z</time>
      </trkpt>
      <trkpt lat="46.083747642114758" lon="8.81604703143239">
        <ele>891.42999999999995</ele>
        <time>2022-04-10T07:51:30Z</time>
      </trkpt>
      <trkpt lat="46.08379022218287" lon="8.816004702821374">
        <ele>892.75999999999999</ele>
        <time>2022-04-10T07:51:44Z</time>
      </trkpt>
      <trkpt lat="46.083811176940799" lon="8.81601476110518">
        <ele>892.63999999999999</ele>
        <time>2022-04-10T07:51:51Z</time>
      </trkpt>
      <trkpt lat="46.083868173882365" lon="8.816010737791657">
        <ele>893.76999999999998</ele>
        <time>2022-04-10T07:52:06Z</time>
      </trkpt>
      <trkpt lat="46.08393338508904" lon="8.815998332574964">
        <ele>895</ele>
        <time>2022-04-10T07:52:19Z</time>
      </trkpt>
      <trkpt lat="46.084003206342459" lon="8.81606706418097">
        <ele>896.86000000000001</ele>
        <time>2022-04-10T07:52:30Z</time>
      </trkpt>
      <trkpt lat="46.084071937948465" lon="8.816145602613688">
        <ele>898.58000000000004</ele>
        <time>2022-04-10T07:52:40Z</time>
      </trkpt>
      <trkpt lat="46.084153410047293" lon="8.816220201551914">
        <ele>900.55999999999995</ele>
        <time>2022-04-10T07:52:52Z</time>
      </trkpt>
      <trkpt lat="46.084159864112735" lon="8.816228331997991">
        <ele>901</ele>
        <time>2022-04-10T07:52:53Z</time>
      </trkpt>
      <trkpt lat="46.08418308198452" lon="8.816250711679459">
        <ele>901.53999999999996</ele>
        <time>2022-04-10T07:52:56Z</time>
      </trkpt>
      <trkpt lat="46.084282658994198" lon="8.816285412758589">
        <ele>903.22000000000003</ele>
        <time>2022-04-10T07:53:07Z</time>
      </trkpt>
      <trkpt lat="46.084400005638599" lon="8.816309301182628">
        <ele>905.61000000000001</ele>
        <time>2022-04-10T07:53:22Z</time>
      </trkpt>
      <trkpt lat="46.084446189925075" lon="8.81626982241869">
        <ele>906.94000000000005</ele>
        <time>2022-04-10T07:53:33Z</time>
      </trkpt>
      <trkpt lat="46.084450799971819" lon="8.816267559304833">
        <ele>906.73000000000002</ele>
        <time>2022-04-10T07:53:45Z</time>
      </trkpt>
      <trkpt lat="46.084438059478998" lon="8.816228164359927">
        <ele>907.22000000000003</ele>
        <time>2022-04-10T07:53:57Z</time>
      </trkpt>
      <trkpt lat="46.084402268752456" lon="8.816179968416691">
        <ele>908.28999999999996</ele>
        <time>2022-04-10T07:54:03Z</time>
      </trkpt>
      <trkpt lat="46.084340158849955" lon="8.816099166870117">
        <ele>909.45000000000005</ele>
        <time>2022-04-10T07:54:12Z</time>
      </trkpt>
      <trkpt lat="46.084334375336766" lon="8.816091874614358">
        <ele>909.51999999999998</ele>
        <time>2022-04-10T07:54:13Z</time>
      </trkpt>
      <trkpt lat="46.084296489134431" lon="8.816067231819034">
        <ele>910.10000000000002</ele>
        <time>2022-04-10T07:54:21Z</time>
      </trkpt>
      <trkpt lat="46.084304954856634" lon="8.816057844087482">
        <ele>910.63</ele>
        <time>2022-04-10T07:54:31Z</time>
      </trkpt>
      <trkpt lat="46.084313085302711" lon="8.816054658964276">
        <ele>910.40999999999997</ele>
        <time>2022-04-10T07:54:45Z</time>
      </trkpt>
      <trkpt lat="46.084311157464981" lon="8.816051809117198">
        <ele>910.94000000000005</ele>
        <time>2022-04-10T07:54:57Z</time>
      </trkpt>
      <trkpt lat="46.084295734763145" lon="8.816035883501172">
        <ele>911.39999999999998</ele>
        <time>2022-04-10T07:55:12Z</time>
      </trkpt>
      <trkpt lat="46.08431551605463" lon="8.816019706428051">
        <ele>911.62</ele>
        <time>2022-04-10T07:55:16Z</time>
      </trkpt>
      <trkpt lat="46.084327418357134" lon="8.816070668399334">
        <ele>912.20000000000005</ele>
        <time>2022-04-10T07:55:23Z</time>
      </trkpt>
      <trkpt lat="46.084344265982509" lon="8.816102938726544">
        <ele>912.10000000000002</ele>
        <time>2022-04-10T07:55:26Z</time>
      </trkpt>
      <trkpt lat="46.084385253489017" lon="8.816152978688479">
        <ele>912.53999999999996</ele>
        <time>2022-04-10T07:55:31Z</time>
      </trkpt>
      <trkpt lat="46.08441174030304" lon="8.816161276772618">
        <ele>912.63</ele>
        <time>2022-04-10T07:55:33Z</time>
      </trkpt>
      <trkpt lat="46.084428671747446" lon="8.816163036972284">
        <ele>912.42999999999995</ele>
        <time>2022-04-10T07:55:34Z</time>
      </trkpt>
      <trkpt lat="46.084439232945442" lon="8.816173346713185">
        <ele>912.46000000000004</ele>
        <time>2022-04-10T07:55:35Z</time>
      </trkpt>
      <trkpt lat="46.084448788315058" lon="8.816184494644404">
        <ele>912.38</ele>
        <time>2022-04-10T07:55:36Z</time>
      </trkpt>
      <trkpt lat="46.084454655647278" lon="8.816199582070112">
        <ele>912.70000000000005</ele>
        <time>2022-04-10T07:55:37Z</time>
      </trkpt>
      <trkpt lat="46.084459936246276" lon="8.81621316075325">
        <ele>912.78999999999996</ele>
        <time>2022-04-10T07:55:38Z</time>
      </trkpt>
      <trkpt lat="46.084469240158796" lon="8.816221794113517">
        <ele>912.88</ele>
        <time>2022-04-10T07:55:39Z</time>
      </trkpt>
      <trkpt lat="46.084482315927744" lon="8.816225565969944">
        <ele>912.69000000000005</ele>
        <time>2022-04-10T07:55:40Z</time>
      </trkpt>
      <trkpt lat="46.084496062248945" lon="8.816230092197657">
        <ele>912.83000000000004</ele>
        <time>2022-04-10T07:55:41Z</time>
      </trkpt>
      <trkpt lat="46.084507293999195" lon="8.81623805500567">
        <ele>912.77999999999997</ele>
        <time>2022-04-10T07:55:42Z</time>
      </trkpt>
      <trkpt lat="46.084516597911716" lon="8.816249538213015">
        <ele>912.75999999999999</ele>
        <time>2022-04-10T07:55:43Z</time>
      </trkpt>
      <trkpt lat="46.084524225443602" lon="8.816261105239391">
        <ele>912.69000000000005</ele>
        <time>2022-04-10T07:55:44Z</time>
      </trkpt>
      <trkpt lat="46.084533948451281" lon="8.816269570961595">
        <ele>912.71000000000004</ele>
        <time>2022-04-10T07:55:45Z</time>
      </trkpt>
      <trkpt lat="46.084585832431912" lon="8.816307038068771">
        <ele>913.44000000000005</ele>
        <time>2022-04-10T07:55:50Z</time>
      </trkpt>
      <trkpt lat="46.084637967869639" lon="8.816366717219353">
        <ele>913.91999999999996</ele>
        <time>2022-04-10T07:55:57Z</time>
      </trkpt>
      <trkpt lat="46.084662862122059" lon="8.816374009475112">
        <ele>914.09000000000003</ele>
        <time>2022-04-10T07:55:59Z</time>
      </trkpt>
      <trkpt lat="46.084675854071975" lon="8.816376775503159">
        <ele>914.17999999999995</ele>
        <time>2022-04-10T07:56:00Z</time>
      </trkpt>
      <trkpt lat="46.08470787294209" lon="8.816398568451405">
        <ele>914.47000000000003</ele>
        <time>2022-04-10T07:56:03Z</time>
      </trkpt>
      <trkpt lat="46.084719272330403" lon="8.816404854878783">
        <ele>914.57000000000005</ele>
        <time>2022-04-10T07:56:04Z</time>
      </trkpt>
      <trkpt lat="46.084730923175812" lon="8.816409548744559">
        <ele>914.72000000000003</ele>
        <time>2022-04-10T07:56:05Z</time>
      </trkpt>
      <trkpt lat="46.084743244573474" lon="8.816414494067431">
        <ele>914.74000000000001</ele>
        <time>2022-04-10T07:56:06Z</time>
      </trkpt>
      <trkpt lat="46.08475430868566" lon="8.816419942304492">
        <ele>914.80999999999995</ele>
        <time>2022-04-10T07:56:07Z</time>
      </trkpt>
      <trkpt lat="46.084760595113039" lon="8.816432515159249">
        <ele>914.77999999999997</ele>
        <time>2022-04-10T07:56:08Z</time>
      </trkpt>
      <trkpt lat="46.084766881540418" lon="8.816444082185626">
        <ele>914.75999999999999</ele>
        <time>2022-04-10T07:56:09Z</time>
      </trkpt>
      <trkpt lat="46.084777358919382" lon="8.81644869223237">
        <ele>914.80999999999995</ele>
        <time>2022-04-10T07:56:10Z</time>
      </trkpt>
      <trkpt lat="46.084788087755442" lon="8.816454811021686">
        <ele>915.04999999999995</ele>
        <time>2022-04-10T07:56:11Z</time>
      </trkpt>
      <trkpt lat="46.084799570962787" lon="8.816454643383622">
        <ele>915.02999999999997</ele>
        <time>2022-04-10T07:56:12Z</time>
      </trkpt>
      <trkpt lat="46.084812059998512" lon="8.816457074135542">
        <ele>915.16999999999996</ele>
        <time>2022-04-10T07:56:13Z</time>
      </trkpt>
      <trkpt lat="46.08482220210135" lon="8.816463779658079">
        <ele>915.19000000000005</ele>
        <time>2022-04-10T07:56:14Z</time>
      </trkpt>
      <trkpt lat="46.084832176566124" lon="8.816471071913838">
        <ele>915.41999999999996</ele>
        <time>2022-04-10T07:56:15Z</time>
      </trkpt>
      <trkpt lat="46.084851622581482" lon="8.816490434110165">
        <ele>915.53999999999996</ele>
        <time>2022-04-10T07:56:17Z</time>
      </trkpt>
      <trkpt lat="46.084858160465956" lon="8.816502336412668">
        <ele>915.63</ele>
        <time>2022-04-10T07:56:18Z</time>
      </trkpt>
      <trkpt lat="46.084869643673301" lon="8.816508455201984">
        <ele>915.89999999999998</ele>
        <time>2022-04-10T07:56:19Z</time>
      </trkpt>
      <trkpt lat="46.084883138537407" lon="8.816508958116174">
        <ele>916.00999999999999</ele>
        <time>2022-04-10T07:56:20Z</time>
      </trkpt>
      <trkpt lat="46.08489696867764" lon="8.816509377211332">
        <ele>916.27999999999997</ele>
        <time>2022-04-10T07:56:21Z</time>
      </trkpt>
      <trkpt lat="46.084907362237573" lon="8.816514573991299">
        <ele>916.35000000000002</ele>
        <time>2022-04-10T07:56:22Z</time>
      </trkpt>
      <trkpt lat="46.084920102730393" lon="8.816524464637041">
        <ele>916.37</ele>
        <time>2022-04-10T07:56:23Z</time>
      </trkpt>
      <trkpt lat="46.084928987547755" lon="8.816535780206323">
        <ele>916.39999999999998</ele>
        <time>2022-04-10T07:56:24Z</time>
      </trkpt>
      <trkpt lat="46.084938542917371" lon="8.816541731357575">
        <ele>916.24000000000001</ele>
        <time>2022-04-10T07:56:25Z</time>
      </trkpt>
      <trkpt lat="46.084952959790826" lon="8.816541479900479">
        <ele>916.71000000000004</ele>
        <time>2022-04-10T07:56:26Z</time>
      </trkpt>
      <trkpt lat="46.084968550130725" lon="8.816543575376272">
        <ele>916.95000000000005</ele>
        <time>2022-04-10T07:56:27Z</time>
      </trkpt>
      <trkpt lat="46.08497953042388" lon="8.81655178964138">
        <ele>916.98000000000002</ele>
        <time>2022-04-10T07:56:28Z</time>
      </trkpt>
      <trkpt lat="46.085006184875965" lon="8.816582299768925">
        <ele>916.98000000000002</ele>
        <time>2022-04-10T07:56:31Z</time>
      </trkpt>
      <trkpt lat="46.085034431889653" lon="8.816606607288122">
        <ele>917.37</ele>
        <time>2022-04-10T07:56:34Z</time>
      </trkpt>
      <trkpt lat="46.085044490173459" lon="8.816612726077437">
        <ele>917.59000000000003</ele>
        <time>2022-04-10T07:56:35Z</time>
      </trkpt>
      <trkpt lat="46.085055721923709" lon="8.816616833209992">
        <ele>917.89999999999998</ele>
        <time>2022-04-10T07:56:36Z</time>
      </trkpt>
      <trkpt lat="46.085171308368444" lon="8.81668807938695">
        <ele>919.28999999999996</ele>
        <time>2022-04-10T07:56:48Z</time>
      </trkpt>
      <trkpt lat="46.085298545658588" lon="8.81676385179162">
        <ele>920.13999999999999</ele>
        <time>2022-04-10T07:57:00Z</time>
      </trkpt>
      <trkpt lat="46.085428884252906" lon="8.816850185394287">
        <ele>921.72000000000003</ele>
        <time>2022-04-10T07:57:14Z</time>
      </trkpt>
      <trkpt lat="46.085565844550729" lon="8.816934758797288">
        <ele>922.45000000000005</ele>
        <time>2022-04-10T07:57:28Z</time>
      </trkpt>
      <trkpt lat="46.08572862111032" lon="8.817026456817985">
        <ele>923.58000000000004</ele>
        <time>2022-04-10T07:57:43Z</time>
      </trkpt>
      <trkpt lat="46.085846303030849" lon="8.81712201051414">
        <ele>924.97000000000003</ele>
        <time>2022-04-10T07:57:56Z</time>
      </trkpt>
      <trkpt lat="46.085988460108638" lon="8.817220414057374">
        <ele>926.00999999999999</ele>
        <time>2022-04-10T07:58:10Z</time>
      </trkpt>
      <trkpt lat="46.08610337600112" lon="8.817319236695766">
        <ele>927.67999999999995</ele>
        <time>2022-04-10T07:58:24Z</time>
      </trkpt>
      <trkpt lat="46.086237234994769" lon="8.81738050840795">
        <ele>928.52999999999997</ele>
        <time>2022-04-10T07:58:38Z</time>
      </trkpt>
      <trkpt lat="46.086329938843846" lon="8.81742593832314">
        <ele>929.70000000000005</ele>
        <time>2022-04-10T07:58:49Z</time>
      </trkpt>
      <trkpt lat="46.086484584957361" lon="8.817481594160199">
        <ele>931.07000000000005</ele>
        <time>2022-04-10T07:59:03Z</time>
      </trkpt>
      <trkpt lat="46.086520459502935" lon="8.817509589716792">
        <ele>931.35000000000002</ele>
        <time>2022-04-10T07:59:08Z</time>
      </trkpt>
      <trkpt lat="46.086625484749675" lon="8.817551750689745">
        <ele>932.15999999999997</ele>
        <time>2022-04-10T07:59:19Z</time>
      </trkpt>
      <trkpt lat="46.086793458089232" lon="8.817611765116453">
        <ele>933.73000000000002</ele>
        <time>2022-04-10T07:59:35Z</time>
      </trkpt>
      <trkpt lat="46.086921449750662" lon="8.817725172266364">
        <ele>934.57000000000005</ele>
        <time>2022-04-10T07:59:50Z</time>
      </trkpt>
      <trkpt lat="46.087060170248151" lon="8.81779340095818">
        <ele>935.85000000000002</ele>
        <time>2022-04-10T08:00:03Z</time>
      </trkpt>
      <trkpt lat="46.087222443893552" lon="8.817914184182882">
        <ele>937.05999999999995</ele>
        <time>2022-04-10T08:00:17Z</time>
      </trkpt>
      <trkpt lat="46.08735186047852" lon="8.818036643788219">
        <ele>938.10000000000002</ele>
        <time>2022-04-10T08:00:30Z</time>
      </trkpt>
      <trkpt lat="46.087470632046461" lon="8.818108644336462">
        <ele>938.49000000000001</ele>
        <time>2022-04-10T08:00:45Z</time>
      </trkpt>
      <trkpt lat="46.087628211826086" lon="8.818244012072682">
        <ele>940.58000000000004</ele>
        <time>2022-04-10T08:01:01Z</time>
      </trkpt>
      <trkpt lat="46.087724938988686" lon="8.818265972658992">
        <ele>941.34000000000003</ele>
        <time>2022-04-10T08:01:08Z</time>
      </trkpt>
      <trkpt lat="46.087901880964637" lon="8.81832355633378">
        <ele>942.87</ele>
        <time>2022-04-10T08:01:22Z</time>
      </trkpt>
      <trkpt lat="46.087923841550946" lon="8.818333195522428">
        <ele>943.03999999999996</ele>
        <time>2022-04-10T08:01:24Z</time>
      </trkpt>
      <trkpt lat="46.087934235110879" lon="8.818340739235282">
        <ele>943.07000000000005</ele>
        <time>2022-04-10T08:01:25Z</time>
      </trkpt>
      <trkpt lat="46.087945131585002" lon="8.818348282948136">
        <ele>943.20000000000005</ele>
        <time>2022-04-10T08:01:26Z</time>
      </trkpt>
      <trkpt lat="46.087957536801696" lon="8.81835482083261">
        <ele>943.37</ele>
        <time>2022-04-10T08:01:27Z</time>
      </trkpt>
      <trkpt lat="46.087969355285168" lon="8.818360520526767">
        <ele>943.38999999999999</ele>
        <time>2022-04-10T08:01:28Z</time>
      </trkpt>
      <trkpt lat="46.087981257587671" lon="8.81836311891675">
        <ele>943.52999999999997</ele>
        <time>2022-04-10T08:01:29Z</time>
      </trkpt>
      <trkpt lat="46.087992321699858" lon="8.818366387858987">
        <ele>943.71000000000004</ele>
        <time>2022-04-10T08:01:30Z</time>
      </trkpt>
      <trkpt lat="46.088077481836081" lon="8.818431599065661">
        <ele>944.50999999999999</ele>
        <time>2022-04-10T08:01:40Z</time>
      </trkpt>
      <trkpt lat="46.088169179856777" lon="8.818482896313071">
        <ele>945.64999999999998</ele>
        <time>2022-04-10T08:01:50Z</time>
      </trkpt>
      <trkpt lat="46.088298344984651" lon="8.818584904074669">
        <ele>946.83000000000004</ele>
        <time>2022-04-10T08:02:04Z</time>
      </trkpt>
      <trkpt lat="46.088460953906178" lon="8.818646930158138">
        <ele>947.80999999999995</ele>
        <time>2022-04-10T08:02:17Z</time>
      </trkpt>
      <trkpt lat="46.08847570605576" lon="8.818652797490358">
        <ele>947.73000000000002</ele>
        <time>2022-04-10T08:02:18Z</time>
      </trkpt>
      <trkpt lat="46.088571511209011" lon="8.818677440285683">
        <ele>948.41999999999996</ele>
        <time>2022-04-10T08:02:27Z</time>
      </trkpt>
      <trkpt lat="46.088748537003994" lon="8.818665370345116">
        <ele>949.14999999999998</ele>
        <time>2022-04-10T08:02:41Z</time>
      </trkpt>
      <trkpt lat="46.08887342736125" lon="8.818638296797872">
        <ele>950.23000000000002</ele>
        <time>2022-04-10T08:02:52Z</time>
      </trkpt>
      <trkpt lat="46.089053219184279" lon="8.818625137209892">
        <ele>951.92999999999995</ele>
        <time>2022-04-10T08:03:07Z</time>
      </trkpt>
      <trkpt lat="46.089090686291456" lon="8.818614576011896">
        <ele>952.00999999999999</ele>
        <time>2022-04-10T08:03:10Z</time>
      </trkpt>
      <trkpt lat="46.089224964380264" lon="8.818655479699373">
        <ele>951.92999999999995</ele>
        <time>2022-04-10T08:03:24Z</time>
      </trkpt>
      <trkpt lat="46.089327894151211" lon="8.818684229627252">
        <ele>955.08000000000004</ele>
        <time>2022-04-10T08:03:36Z</time>
      </trkpt>
      <trkpt lat="46.089340802282095" lon="8.818689091131091">
        <ele>954.99000000000001</ele>
        <time>2022-04-10T08:03:37Z</time>
      </trkpt>
      <trkpt lat="46.089497124776244" lon="8.81866947747767">
        <ele>956.64999999999998</ele>
        <time>2022-04-10T08:03:51Z</time>
      </trkpt>
      <trkpt lat="46.089588068425655" lon="8.818634692579508">
        <ele>958.17999999999995</ele>
        <time>2022-04-10T08:04:01Z</time>
      </trkpt>
      <trkpt lat="46.089746318757534" lon="8.818617425858975">
        <ele>959.76999999999998</ele>
        <time>2022-04-10T08:04:17Z</time>
      </trkpt>
      <trkpt lat="46.089898534119129" lon="8.818523045629263">
        <ele>960.84000000000003</ele>
        <time>2022-04-10T08:04:31Z</time>
      </trkpt>
      <trkpt lat="46.090087965130806" lon="8.81843252107501">
        <ele>963.16999999999996</ele>
        <time>2022-04-10T08:04:46Z</time>
      </trkpt>
      <trkpt lat="46.090270355343819" lon="8.818364543840289">
        <ele>963.86000000000001</ele>
        <time>2022-04-10T08:05:03Z</time>
      </trkpt>
      <trkpt lat="46.090439166873693" lon="8.818332189694047">
        <ele>964.92999999999995</ele>
        <time>2022-04-10T08:05:16Z</time>
      </trkpt>
      <trkpt lat="46.090586856007576" lon="8.818343840539455">
        <ele>965.58000000000004</ele>
        <time>2022-04-10T08:05:31Z</time>
      </trkpt>
      <trkpt lat="46.090615773573518" lon="8.818343253806233">
        <ele>965.72000000000003</ele>
        <time>2022-04-10T08:05:33Z</time>
      </trkpt>
      <trkpt lat="46.090695569291711" lon="8.818349204957485">
        <ele>965.76999999999998</ele>
        <time>2022-04-10T08:05:38Z</time>
      </trkpt>
      <trkpt lat="46.0907116625458" lon="8.818350797519088">
        <ele>965.87</ele>
        <time>2022-04-10T08:05:39Z</time>
      </trkpt>
      <trkpt lat="46.090887514874339" lon="8.818414080888033">
        <ele>966.30999999999995</ele>
        <time>2022-04-10T08:05:52Z</time>
      </trkpt>
      <trkpt lat="46.090938812121749" lon="8.81846085190773">
        <ele>966.63</ele>
        <time>2022-04-10T08:05:57Z</time>
      </trkpt>
      <trkpt lat="46.090946942567825" lon="8.81847744807601">
        <ele>966.62</ele>
        <time>2022-04-10T08:05:58Z</time>
      </trkpt>
      <trkpt lat="46.090961024165154" lon="8.818483147770166">
        <ele>966.59000000000003</ele>
        <time>2022-04-10T08:05:59Z</time>
      </trkpt>
      <trkpt lat="46.090974183753133" lon="8.81849261932075">
        <ele>966.64999999999998</ele>
        <time>2022-04-10T08:06:00Z</time>
      </trkpt>
      <trkpt lat="46.090985499322414" lon="8.818505192175508">
        <ele>966.59000000000003</ele>
        <time>2022-04-10T08:06:01Z</time>
      </trkpt>
      <trkpt lat="46.090998323634267" lon="8.818514496088028">
        <ele>966.69000000000005</ele>
        <time>2022-04-10T08:06:02Z</time>
      </trkpt>
      <trkpt lat="46.091171158477664" lon="8.818640979006887">
        <ele>966.74000000000001</ele>
        <time>2022-04-10T08:06:17Z</time>
      </trkpt>
      <trkpt lat="46.091345837339759" lon="8.818688588216901">
        <ele>967.04999999999995</ele>
        <time>2022-04-10T08:06:32Z</time>
      </trkpt>
      <trkpt lat="46.091479863971472" lon="8.818655563518405">
        <ele>966.62</ele>
        <time>2022-04-10T08:06:43Z</time>
      </trkpt>
      <trkpt lat="46.09162051230669" lon="8.818586831912398">
        <ele>967.49000000000001</ele>
        <time>2022-04-10T08:06:55Z</time>
      </trkpt>
      <trkpt lat="46.091744480654597" lon="8.818525476381183">
        <ele>967.41999999999996</ele>
        <time>2022-04-10T08:07:06Z</time>
      </trkpt>
      <trkpt lat="46.091873226687312" lon="8.818481136113405">
        <ele>967.88</ele>
        <time>2022-04-10T08:07:18Z</time>
      </trkpt>
      <trkpt lat="46.092017898336053" lon="8.818434281274676">
        <ele>968.44000000000005</ele>
        <time>2022-04-10T08:07:31Z</time>
      </trkpt>
      <trkpt lat="46.092068608850241" lon="8.818417517468333">
        <ele>968.63999999999999</ele>
        <time>2022-04-10T08:07:36Z</time>
      </trkpt>
      <trkpt lat="46.092079924419522" lon="8.818415338173509">
        <ele>968.74000000000001</ele>
        <time>2022-04-10T08:07:37Z</time>
      </trkpt>
      <trkpt lat="46.092207077890635" lon="8.818359011784196">
        <ele>969.03999999999996</ele>
        <time>2022-04-10T08:07:49Z</time>
      </trkpt>
      <trkpt lat="46.092357700690627" lon="8.818331938236952">
        <ele>970.07000000000005</ele>
        <time>2022-04-10T08:08:00Z</time>
      </trkpt>
      <trkpt lat="46.092507736757398" lon="8.818385498598218">
        <ele>971.51999999999998</ele>
        <time>2022-04-10T08:08:13Z</time>
      </trkpt>
      <trkpt lat="46.092520896345377" lon="8.818388264626265">
        <ele>971.55999999999995</ele>
        <time>2022-04-10T08:08:14Z</time>
      </trkpt>
      <trkpt lat="46.092533888295293" lon="8.818390360102058">
        <ele>971.67999999999995</ele>
        <time>2022-04-10T08:08:15Z</time>
      </trkpt>
      <trkpt lat="46.092661712318659" lon="8.818438975140452">
        <ele>972.27999999999997</ele>
        <time>2022-04-10T08:08:27Z</time>
      </trkpt>
      <trkpt lat="46.092683002352715" lon="8.818443082273006">
        <ele>972.59000000000003</ele>
        <time>2022-04-10T08:08:29Z</time>
      </trkpt>
      <trkpt lat="46.092694401741028" lon="8.818446518853307">
        <ele>972.63</ele>
        <time>2022-04-10T08:08:30Z</time>
      </trkpt>
      <trkpt lat="46.092791464179754" lon="8.818469736725092">
        <ele>973.61000000000001</ele>
        <time>2022-04-10T08:08:39Z</time>
      </trkpt>
      <trkpt lat="46.092900596559048" lon="8.818460684269667">
        <ele>974.83000000000004</ele>
        <time>2022-04-10T08:08:50Z</time>
      </trkpt>
      <trkpt lat="46.093009812757373" lon="8.818343169987202">
        <ele>975.97000000000003</ele>
        <time>2022-04-10T08:09:02Z</time>
      </trkpt>
      <trkpt lat="46.093088602647185" lon="8.818238312378526">
        <ele>976.57000000000005</ele>
        <time>2022-04-10T08:09:11Z</time>
      </trkpt>
      <trkpt lat="46.093155238777399" lon="8.818148206919432">
        <ele>977.30999999999995</ele>
        <time>2022-04-10T08:09:19Z</time>
      </trkpt>
      <trkpt lat="46.093206871300936" lon="8.818026250228286">
        <ele>977.97000000000003</ele>
        <time>2022-04-10T08:09:30Z</time>
      </trkpt>
      <trkpt lat="46.093216091394424" lon="8.818018371239305">
        <ele>978.14999999999998</ele>
        <time>2022-04-10T08:09:31Z</time>
      </trkpt>
      <trkpt lat="46.093235118314624" lon="8.817995488643646">
        <ele>978.44000000000005</ele>
        <time>2022-04-10T08:09:33Z</time>
      </trkpt>
      <trkpt lat="46.093283062800765" lon="8.817908568307757">
        <ele>979.72000000000003</ele>
        <time>2022-04-10T08:09:42Z</time>
      </trkpt>
      <trkpt lat="46.093280129134655" lon="8.817878728732467">
        <ele>979.92999999999995</ele>
        <time>2022-04-10T08:09:44Z</time>
      </trkpt>
      <trkpt lat="46.093262694776058" lon="8.817781750112772">
        <ele>980.58000000000004</ele>
        <time>2022-04-10T08:09:50Z</time>
      </trkpt>
      <trkpt lat="46.093258503824472" lon="8.817765656858683">
        <ele>980.54999999999995</ele>
        <time>2022-04-10T08:09:51Z</time>
      </trkpt>
      <trkpt lat="46.093247774988413" lon="8.817721568048">
        <ele>980.44000000000005</ele>
        <time>2022-04-10T08:09:54Z</time>
      </trkpt>
      <trkpt lat="46.093245428055525" lon="8.817680664360523">
        <ele>980.19000000000005</ele>
        <time>2022-04-10T08:09:57Z</time>
      </trkpt>
      <trkpt lat="46.093240566551685" lon="8.817664571106434">
        <ele>980.10000000000002</ele>
        <time>2022-04-10T08:09:58Z</time>
      </trkpt>
      <trkpt lat="46.093236794695258" lon="8.817647807300091">
        <ele>980.05999999999995</ele>
        <time>2022-04-10T08:09:59Z</time>
      </trkpt>
      <trkpt lat="46.093232687562704" lon="8.817628780379891">
        <ele>980.03999999999996</ele>
        <time>2022-04-10T08:10:00Z</time>
      </trkpt>
      <trkpt lat="46.093228999525309" lon="8.817609418183565">
        <ele>979.99000000000001</ele>
        <time>2022-04-10T08:10:01Z</time>
      </trkpt>
      <trkpt lat="46.093228915706277" lon="8.817590391263366">
        <ele>980.08000000000004</ele>
        <time>2022-04-10T08:10:02Z</time>
      </trkpt>
      <trkpt lat="46.093229921534657" lon="8.817573543637991">
        <ele>980.21000000000004</ele>
        <time>2022-04-10T08:10:03Z</time>
      </trkpt>
      <trkpt lat="46.093226652592421" lon="8.817558540031314">
        <ele>980.22000000000003</ele>
        <time>2022-04-10T08:10:04Z</time>
      </trkpt>
      <trkpt lat="46.093217600136995" lon="8.817544709891081">
        <ele>980.36000000000001</ele>
        <time>2022-04-10T08:10:05Z</time>
      </trkpt>
      <trkpt lat="46.093210224062204" lon="8.817531634122133">
        <ele>980.47000000000003</ele>
        <time>2022-04-10T08:10:06Z</time>
      </trkpt>
      <trkpt lat="46.093207625672221" lon="8.817515289410949">
        <ele>980.63999999999999</ele>
        <time>2022-04-10T08:10:07Z</time>
      </trkpt>
      <trkpt lat="46.093205865472555" lon="8.81749969907105">
        <ele>980.70000000000005</ele>
        <time>2022-04-10T08:10:08Z</time>
      </trkpt>
      <trkpt lat="46.093201590701938" lon="8.817484695464373">
        <ele>980.90999999999997</ele>
        <time>2022-04-10T08:10:09Z</time>
      </trkpt>
      <trkpt lat="46.093197483569384" lon="8.81746893748641">
        <ele>981.09000000000003</ele>
        <time>2022-04-10T08:10:10Z</time>
      </trkpt>
      <trkpt lat="46.093195974826813" lon="8.81745133548975">
        <ele>981.20000000000005</ele>
        <time>2022-04-10T08:10:11Z</time>
      </trkpt>
      <trkpt lat="46.093193460255861" lon="8.817433984950185">
        <ele>981.40999999999997</ele>
        <time>2022-04-10T08:10:12Z</time>
      </trkpt>
      <trkpt lat="46.093188347294927" lon="8.817416885867715">
        <ele>981.35000000000002</ele>
        <time>2022-04-10T08:10:13Z</time>
      </trkpt>
      <trkpt lat="46.093182982876897" lon="8.817400373518467">
        <ele>981.54999999999995</ele>
        <time>2022-04-10T08:10:14Z</time>
      </trkpt>
      <trkpt lat="46.093181222677231" lon="8.817382603883743">
        <ele>981.58000000000004</ele>
        <time>2022-04-10T08:10:15Z</time>
      </trkpt>
      <trkpt lat="46.093177115544677" lon="8.817366091534495">
        <ele>981.63</ele>
        <time>2022-04-10T08:10:16Z</time>
      </trkpt>
      <trkpt lat="46.09317334368825" lon="8.817348405718803">
        <ele>981.70000000000005</ele>
        <time>2022-04-10T08:10:17Z</time>
      </trkpt>
      <trkpt lat="46.093171751126647" lon="8.817331809550524">
        <ele>981.84000000000003</ele>
        <time>2022-04-10T08:10:18Z</time>
      </trkpt>
      <trkpt lat="46.09314794652164" lon="8.817098457366228">
        <ele>982.12</ele>
        <time>2022-04-10T08:10:31Z</time>
      </trkpt>
      <trkpt lat="46.093097403645515" lon="8.816886898130179">
        <ele>981.91999999999996</ele>
        <time>2022-04-10T08:10:42Z</time>
      </trkpt>
      <trkpt lat="46.093096984550357" lon="8.816848928108811">
        <ele>982.10000000000002</ele>
        <time>2022-04-10T08:10:44Z</time>
      </trkpt>
      <trkpt lat="46.093095559626818" lon="8.816830404102802">
        <ele>982.12</ele>
        <time>2022-04-10T08:10:45Z</time>
      </trkpt>
      <trkpt lat="46.09309614636004" lon="8.816811461001635">
        <ele>981.97000000000003</ele>
        <time>2022-04-10T08:10:46Z</time>
      </trkpt>
      <trkpt lat="46.093098158016801" lon="8.816790506243706">
        <ele>982.01999999999998</ele>
        <time>2022-04-10T08:10:47Z</time>
      </trkpt>
      <trkpt lat="46.093097822740674" lon="8.816770389676094">
        <ele>982.00999999999999</ele>
        <time>2022-04-10T08:10:48Z</time>
      </trkpt>
      <trkpt lat="46.093096816912293" lon="8.816748764365912">
        <ele>982.03999999999996</ele>
        <time>2022-04-10T08:10:49Z</time>
      </trkpt>
      <trkpt lat="46.093095894902945" lon="8.816726887598634">
        <ele>982.17999999999995</ele>
        <time>2022-04-10T08:10:50Z</time>
      </trkpt>
      <trkpt lat="46.093109808862209" lon="8.816608032211661">
        <ele>982.36000000000001</ele>
        <time>2022-04-10T08:10:55Z</time>
      </trkpt>
      <trkpt lat="46.093109976500273" lon="8.816587496548891">
        <ele>982.27999999999997</ele>
        <time>2022-04-10T08:10:56Z</time>
      </trkpt>
      <trkpt lat="46.093106037005782" lon="8.816568301990628">
        <ele>982.42999999999995</ele>
        <time>2022-04-10T08:10:57Z</time>
      </trkpt>
      <trkpt lat="46.093104360625148" lon="8.816550197079778">
        <ele>982.41999999999996</ele>
        <time>2022-04-10T08:10:58Z</time>
      </trkpt>
      <trkpt lat="46.09310788102448" lon="8.816531840711832">
        <ele>982.28999999999996</ele>
        <time>2022-04-10T08:10:59Z</time>
      </trkpt>
      <trkpt lat="46.093140235170722" lon="8.816400999203324">
        <ele>981.69000000000005</ele>
        <time>2022-04-10T08:11:08Z</time>
      </trkpt>
      <trkpt lat="46.093153730034828" lon="8.816399993374944">
        <ele>981.57000000000005</ele>
        <time>2022-04-10T08:11:09Z</time>
      </trkpt>
      <trkpt lat="46.093263197690248" lon="8.816415248438716">
        <ele>981.85000000000002</ele>
        <time>2022-04-10T08:11:18Z</time>
      </trkpt>
      <trkpt lat="46.093426141887903" lon="8.816391192376614">
        <ele>980.57000000000005</ele>
        <time>2022-04-10T08:11:33Z</time>
      </trkpt>
      <trkpt lat="46.093465704470873" lon="8.816324807703495">
        <ele>979.75</ele>
        <time>2022-04-10T08:11:38Z</time>
      </trkpt>
      <trkpt lat="46.093468554317951" lon="8.816305445507169">
        <ele>979.64999999999998</ele>
        <time>2022-04-10T08:11:39Z</time>
      </trkpt>
      <trkpt lat="46.093476349487901" lon="8.816262697800994">
        <ele>979.33000000000004</ele>
        <time>2022-04-10T08:11:42Z</time>
      </trkpt>
      <trkpt lat="46.093524293974042" lon="8.816107045859098">
        <ele>977.55999999999995</ele>
        <time>2022-04-10T08:11:52Z</time>
      </trkpt>
      <trkpt lat="46.093533346429467" lon="8.8160240650177">
        <ele>976.5</ele>
        <time>2022-04-10T08:12:01Z</time>
      </trkpt>
      <trkpt lat="46.093531670048833" lon="8.816020460799336">
        <ele>975.71000000000004</ele>
        <time>2022-04-10T08:12:20Z</time>
      </trkpt>
      <trkpt lat="46.093560419976711" lon="8.816014425829053">
        <ele>976.35000000000002</ele>
        <time>2022-04-10T08:12:34Z</time>
      </trkpt>
      <trkpt lat="46.093593360856175" lon="8.815984167158604">
        <ele>976</ele>
        <time>2022-04-10T08:12:38Z</time>
      </trkpt>
      <trkpt lat="46.093603670597076" lon="8.815967570990324">
        <ele>976.26999999999998</ele>
        <time>2022-04-10T08:12:39Z</time>
      </trkpt>
      <trkpt lat="46.093614147976041" lon="8.815952651202679">
        <ele>976.24000000000001</ele>
        <time>2022-04-10T08:12:40Z</time>
      </trkpt>
      <trkpt lat="46.093625631183386" lon="8.815936893224716">
        <ele>976.05999999999995</ele>
        <time>2022-04-10T08:12:41Z</time>
      </trkpt>
      <trkpt lat="46.093634264543653" lon="8.815921219065785">
        <ele>975.77999999999997</ele>
        <time>2022-04-10T08:12:42Z</time>
      </trkpt>
      <trkpt lat="46.093640802428126" lon="8.81590822711587">
        <ele>975.61000000000001</ele>
        <time>2022-04-10T08:12:43Z</time>
      </trkpt>
      <trkpt lat="46.093648429960012" lon="8.815895905718207">
        <ele>975.37</ele>
        <time>2022-04-10T08:12:44Z</time>
      </trkpt>
      <trkpt lat="46.09365806914866" lon="8.815881405025721">
        <ele>975.17999999999995</ele>
        <time>2022-04-10T08:12:45Z</time>
      </trkpt>
      <trkpt lat="46.093667792156339" lon="8.81586673669517">
        <ele>975.16999999999996</ele>
        <time>2022-04-10T08:12:46Z</time>
      </trkpt>
      <trkpt lat="46.093774074688554" lon="8.815747797489166">
        <ele>974.32000000000005</ele>
        <time>2022-04-10T08:12:57Z</time>
      </trkpt>
      <trkpt lat="46.093916231766343" lon="8.815717287361622">
        <ele>972.95000000000005</ele>
        <time>2022-04-10T08:13:08Z</time>
      </trkpt>
      <trkpt lat="46.094087306410074" lon="8.815822564065456">
        <ele>972</ele>
        <time>2022-04-10T08:13:18Z</time>
      </trkpt>
      <trkpt lat="46.094204485416412" lon="8.815955333411694">
        <ele>970.98000000000002</ele>
        <time>2022-04-10T08:13:28Z</time>
      </trkpt>
      <trkpt lat="46.094217142090201" lon="8.815967235714197">
        <ele>970.99000000000001</ele>
        <time>2022-04-10T08:13:29Z</time>
      </trkpt>
      <trkpt lat="46.094389809295535" lon="8.816082738339901">
        <ele>971.00999999999999</ele>
        <time>2022-04-10T08:13:42Z</time>
      </trkpt>
      <trkpt lat="46.094461306929588" lon="8.816132862120867">
        <ele>969.48000000000002</ele>
        <time>2022-04-10T08:13:47Z</time>
      </trkpt>
      <trkpt lat="46.094474215060472" lon="8.816143674775958">
        <ele>969.48000000000002</ele>
        <time>2022-04-10T08:13:48Z</time>
      </trkpt>
      <trkpt lat="46.094486871734262" lon="8.816153816878796">
        <ele>969.48000000000002</ele>
        <time>2022-04-10T08:13:49Z</time>
      </trkpt>
      <trkpt lat="46.094498354941607" lon="8.816164545714855">
        <ele>969.49000000000001</ele>
        <time>2022-04-10T08:13:50Z</time>
      </trkpt>
      <trkpt lat="46.094509670510888" lon="8.816175442188978">
        <ele>969.49000000000001</ele>
        <time>2022-04-10T08:13:51Z</time>
      </trkpt>
      <trkpt lat="46.094520315527916" lon="8.816185332834721">
        <ele>969.48000000000002</ele>
        <time>2022-04-10T08:13:52Z</time>
      </trkpt>
      <trkpt lat="46.09453565441072" lon="8.816194469109178">
        <ele>969.21000000000004</ele>
        <time>2022-04-10T08:13:53Z</time>
      </trkpt>
      <trkpt lat="46.094592651352286" lon="8.816237300634384">
        <ele>967.94000000000005</ele>
        <time>2022-04-10T08:13:58Z</time>
      </trkpt>
      <trkpt lat="46.094605224207044" lon="8.816240904852748">
        <ele>968.83000000000004</ele>
        <time>2022-04-10T08:13:59Z</time>
      </trkpt>
      <trkpt lat="46.094707064330578" lon="8.816260853782296">
        <ele>967.46000000000004</ele>
        <time>2022-04-10T08:14:07Z</time>
      </trkpt>
      <trkpt lat="46.094741681590676" lon="8.81623906083405">
        <ele>967.05999999999995</ele>
        <time>2022-04-10T08:14:10Z</time>
      </trkpt>
      <trkpt lat="46.094848718494177" lon="8.816060107201338">
        <ele>965.70000000000005</ele>
        <time>2022-04-10T08:14:22Z</time>
      </trkpt>
      <trkpt lat="46.094951648265123" lon="8.815937982872129">
        <ele>964.47000000000003</ele>
        <time>2022-04-10T08:14:30Z</time>
      </trkpt>
      <trkpt lat="46.094993054866791" lon="8.815890373662114">
        <ele>963.98000000000002</ele>
        <time>2022-04-10T08:14:34Z</time>
      </trkpt>
      <trkpt lat="46.09500378370285" lon="8.815879141911864">
        <ele>964.00999999999999</ele>
        <time>2022-04-10T08:14:35Z</time>
      </trkpt>
      <trkpt lat="46.095013590529561" lon="8.81587746553123">
        <ele>964.03999999999996</ele>
        <time>2022-04-10T08:14:36Z</time>
      </trkpt>
      <trkpt lat="46.095027085393667" lon="8.815865814685822">
        <ele>963.74000000000001</ele>
        <time>2022-04-10T08:14:37Z</time>
      </trkpt>
      <trkpt lat="46.095038903877139" lon="8.815858103334904">
        <ele>963.63</ele>
        <time>2022-04-10T08:14:38Z</time>
      </trkpt>
      <trkpt lat="46.095142671838403" lon="8.815857851877809">
        <ele>963.02999999999997</ele>
        <time>2022-04-10T08:14:47Z</time>
      </trkpt>
      <trkpt lat="46.09519237652421" lon="8.815862713381648">
        <ele>962.77999999999997</ele>
        <time>2022-04-10T08:14:50Z</time>
      </trkpt>
      <trkpt lat="46.095214672386646" lon="8.815859528258443">
        <ele>962.69000000000005</ele>
        <time>2022-04-10T08:14:51Z</time>
      </trkpt>
      <trkpt lat="46.095234537497163" lon="8.815857768058777">
        <ele>962.46000000000004</ele>
        <time>2022-04-10T08:14:52Z</time>
      </trkpt>
      <trkpt lat="46.095253312960267" lon="8.815867323428392">
        <ele>962.29999999999995</ele>
        <time>2022-04-10T08:14:53Z</time>
      </trkpt>
      <trkpt lat="46.095274267718196" lon="8.815863551571965">
        <ele>962.13999999999999</ele>
        <time>2022-04-10T08:14:54Z</time>
      </trkpt>
      <trkpt lat="46.095296228304505" lon="8.81586229428649">
        <ele>961.98000000000002</ele>
        <time>2022-04-10T08:14:55Z</time>
      </trkpt>
      <trkpt lat="46.095312237739563" lon="8.815867323428392">
        <ele>961.89999999999998</ele>
        <time>2022-04-10T08:14:56Z</time>
      </trkpt>
      <trkpt lat="46.095331935212016" lon="8.815872520208359">
        <ele>961.89999999999998</ele>
        <time>2022-04-10T08:14:57Z</time>
      </trkpt>
      <trkpt lat="46.095349034294486" lon="8.815879812464118">
        <ele>961.77999999999997</ele>
        <time>2022-04-10T08:14:58Z</time>
      </trkpt>
      <trkpt lat="46.095415251329541" lon="8.81604602560401">
        <ele>960.35000000000002</ele>
        <time>2022-04-10T08:15:06Z</time>
      </trkpt>
      <trkpt lat="46.095427991822362" lon="8.816058430820704">
        <ele>960.04999999999995</ele>
        <time>2022-04-10T08:15:07Z</time>
      </trkpt>
      <trkpt lat="46.095431931316853" lon="8.81607879884541">
        <ele>959.67999999999995</ele>
        <time>2022-04-10T08:15:08Z</time>
      </trkpt>
      <trkpt lat="46.095444671809673" lon="8.816088605672121">
        <ele>959.46000000000004</ele>
        <time>2022-04-10T08:15:09Z</time>
      </trkpt>
      <trkpt lat="46.095459423959255" lon="8.816097239032388">
        <ele>959.40999999999997</ele>
        <time>2022-04-10T08:15:10Z</time>
      </trkpt>
      <trkpt lat="46.095492951571941" lon="8.816165383905172">
        <ele>959.04999999999995</ele>
        <time>2022-04-10T08:15:14Z</time>
      </trkpt>
      <trkpt lat="46.095591858029366" lon="8.816293878480792">
        <ele>958.03999999999996</ele>
        <time>2022-04-10T08:15:22Z</time>
      </trkpt>
      <trkpt lat="46.095596887171268" lon="8.816311899572611">
        <ele>958.01999999999998</ele>
        <time>2022-04-10T08:15:23Z</time>
      </trkpt>
      <trkpt lat="46.09559990465641" lon="8.816334195435047">
        <ele>958.44000000000005</ele>
        <time>2022-04-10T08:15:24Z</time>
      </trkpt>
      <trkpt lat="46.095598982647061" lon="8.816357664763928">
        <ele>957.63999999999999</ele>
        <time>2022-04-10T08:15:25Z</time>
      </trkpt>
      <trkpt lat="46.095596300438046" lon="8.816379709169269">
        <ele>958.10000000000002</ele>
        <time>2022-04-10T08:15:26Z</time>
      </trkpt>
      <trkpt lat="46.095595629885793" lon="8.816399239003658">
        <ele>958.27999999999997</ele>
        <time>2022-04-10T08:15:27Z</time>
      </trkpt>
      <trkpt lat="46.095598731189966" lon="8.816418433561921">
        <ele>957.63999999999999</ele>
        <time>2022-04-10T08:15:28Z</time>
      </trkpt>
      <trkpt lat="46.095604263246059" lon="8.816435197368264">
        <ele>957.23000000000002</ele>
        <time>2022-04-10T08:15:29Z</time>
      </trkpt>
      <trkpt lat="46.095607867464423" lon="8.816450536251068">
        <ele>957.10000000000002</ele>
        <time>2022-04-10T08:15:30Z</time>
      </trkpt>
      <trkpt lat="46.095610717311502" lon="8.816464282572269">
        <ele>956.88999999999999</ele>
        <time>2022-04-10T08:15:31Z</time>
      </trkpt>
      <trkpt lat="46.095612393692136" lon="8.816478028893471">
        <ele>956.77999999999997</ele>
        <time>2022-04-10T08:15:32Z</time>
      </trkpt>
      <trkpt lat="46.095614321529865" lon="8.816492110490799">
        <ele>956.75</ele>
        <time>2022-04-10T08:15:33Z</time>
      </trkpt>
      <trkpt lat="46.095619518309832" lon="8.816573163494468">
        <ele>956.27999999999997</ele>
        <time>2022-04-10T08:15:38Z</time>
      </trkpt>
      <trkpt lat="46.095617087557912" lon="8.816592525690794">
        <ele>956.04999999999995</ele>
        <time>2022-04-10T08:15:39Z</time>
      </trkpt>
      <trkpt lat="46.095609711483121" lon="8.816615911200643">
        <ele>955.98000000000002</ele>
        <time>2022-04-10T08:15:40Z</time>
      </trkpt>
      <trkpt lat="46.095603927969933" lon="8.816670896485448">
        <ele>955.48000000000002</ele>
        <time>2022-04-10T08:15:43Z</time>
      </trkpt>
      <trkpt lat="46.095603089779615" lon="8.816688163205981">
        <ele>955.25999999999999</ele>
        <time>2022-04-10T08:15:44Z</time>
      </trkpt>
      <trkpt lat="46.095603173598647" lon="8.816706268116832">
        <ele>955.12</ele>
        <time>2022-04-10T08:15:45Z</time>
      </trkpt>
      <trkpt lat="46.095603676512837" lon="8.816724205389619">
        <ele>954.98000000000002</ele>
        <time>2022-04-10T08:15:46Z</time>
      </trkpt>
      <trkpt lat="46.09560283832252" lon="8.816742477938533">
        <ele>954.94000000000005</ele>
        <time>2022-04-10T08:15:47Z</time>
      </trkpt>
      <trkpt lat="46.095602083951235" lon="8.816924700513482">
        <ele>953.77999999999997</ele>
        <time>2022-04-10T08:15:58Z</time>
      </trkpt>
      <trkpt lat="46.095603005960584" lon="8.817098792642355">
        <ele>952.55999999999995</ele>
        <time>2022-04-10T08:16:08Z</time>
      </trkpt>
      <trkpt lat="46.09555933624506" lon="8.81730817258358">
        <ele>951.90999999999997</ele>
        <time>2022-04-10T08:16:18Z</time>
      </trkpt>
      <trkpt lat="46.09542447142303" lon="8.817510176450014">
        <ele>950.71000000000004</ele>
        <time>2022-04-10T08:16:32Z</time>
      </trkpt>
      <trkpt lat="46.095354985445738" lon="8.817706312984228">
        <ele>949.47000000000003</ele>
        <time>2022-04-10T08:16:44Z</time>
      </trkpt>
      <trkpt lat="46.095336712896824" lon="8.817937569692731">
        <ele>948.67999999999995</ele>
        <time>2022-04-10T08:16:57Z</time>
      </trkpt>
      <trkpt lat="46.095394128933549" lon="8.818134879693389">
        <ele>947.78999999999996</ele>
        <time>2022-04-10T08:17:09Z</time>
      </trkpt>
      <trkpt lat="46.095514660701156" lon="8.818388935178518">
        <ele>946.58000000000004</ele>
        <time>2022-04-10T08:17:27Z</time>
      </trkpt>
      <trkpt lat="46.095632594078779" lon="8.818575767800212">
        <ele>945.50999999999999</ele>
        <time>2022-04-10T08:17:43Z</time>
      </trkpt>
      <trkpt lat="46.095780367031693" lon="8.818711219355464">
        <ele>945.08000000000004</ele>
        <time>2022-04-10T08:17:59Z</time>
      </trkpt>
      <trkpt lat="46.095913387835026" lon="8.818834517151117">
        <ele>944.51999999999998</ele>
        <time>2022-04-10T08:18:13Z</time>
      </trkpt>
      <trkpt lat="46.095926212146878" lon="8.818840971216559">
        <ele>944.42999999999995</ele>
        <time>2022-04-10T08:18:14Z</time>
      </trkpt>
      <trkpt lat="46.095936605706811" lon="8.818847173824906">
        <ele>944.44000000000005</ele>
        <time>2022-04-10T08:18:15Z</time>
      </trkpt>
      <trkpt lat="46.096108183264732" lon="8.818904757499695">
        <ele>944.50999999999999</ele>
        <time>2022-04-10T08:18:28Z</time>
      </trkpt>
      <trkpt lat="46.096239946782589" lon="8.819008860737085">
        <ele>943.99000000000001</ele>
        <time>2022-04-10T08:18:40Z</time>
      </trkpt>
      <trkpt lat="46.096249418333173" lon="8.819057140499353">
        <ele>943.92999999999995</ele>
        <time>2022-04-10T08:18:42Z</time>
      </trkpt>
      <trkpt lat="46.096251681447029" lon="8.819079687818885">
        <ele>943.94000000000005</ele>
        <time>2022-04-10T08:18:43Z</time>
      </trkpt>
      <trkpt lat="46.096252771094441" lon="8.819100223481655">
        <ele>943.88</ele>
        <time>2022-04-10T08:18:44Z</time>
      </trkpt>
      <trkpt lat="46.096264757215977" lon="8.819121513515711">
        <ele>943.80999999999995</ele>
        <time>2022-04-10T08:18:45Z</time>
      </trkpt>
      <trkpt lat="46.096271211281419" lon="8.819140791893005">
        <ele>943.92999999999995</ele>
        <time>2022-04-10T08:18:46Z</time>
      </trkpt>
      <trkpt lat="46.096283532679081" lon="8.819181276485324">
        <ele>944.16999999999996</ele>
        <time>2022-04-10T08:18:48Z</time>
      </trkpt>
      <trkpt lat="46.096282778307796" lon="8.819345897063613">
        <ele>944.62</ele>
        <time>2022-04-10T08:18:55Z</time>
      </trkpt>
      <trkpt lat="46.096280012279749" lon="8.819370288401842">
        <ele>944.64999999999998</ele>
        <time>2022-04-10T08:18:56Z</time>
      </trkpt>
      <trkpt lat="46.096277078613639" lon="8.819392500445247">
        <ele>944.62</ele>
        <time>2022-04-10T08:18:57Z</time>
      </trkpt>
      <trkpt lat="46.096272049471736" lon="8.819412030279636">
        <ele>944.52999999999997</ele>
        <time>2022-04-10T08:18:58Z</time>
      </trkpt>
      <trkpt lat="46.09626785852015" lon="8.819430135190487">
        <ele>944.63</ele>
        <time>2022-04-10T08:18:59Z</time>
      </trkpt>
      <trkpt lat="46.09622091986239" lon="8.819535579532385">
        <ele>944.77999999999997</ele>
        <time>2022-04-10T08:19:08Z</time>
      </trkpt>
      <trkpt lat="46.096128802746534" lon="8.819736493751407">
        <ele>945.80999999999995</ele>
        <time>2022-04-10T08:19:21Z</time>
      </trkpt>
      <trkpt lat="46.09601036645472" lon="8.819867838174105">
        <ele>947.07000000000005</ele>
        <time>2022-04-10T08:19:34Z</time>
      </trkpt>
      <trkpt lat="46.095872903242707" lon="8.820003960281611">
        <ele>948.03999999999996</ele>
        <time>2022-04-10T08:19:50Z</time>
      </trkpt>
      <trkpt lat="46.095796460285783" lon="8.820122228935361">
        <ele>948.94000000000005</ele>
        <time>2022-04-10T08:20:01Z</time>
      </trkpt>
      <trkpt lat="46.095731584355235" lon="8.820273019373417">
        <ele>949.38</ele>
        <time>2022-04-10T08:20:12Z</time>
      </trkpt>
      <trkpt lat="46.09568833373487" lon="8.820424983277917">
        <ele>950</ele>
        <time>2022-04-10T08:20:23Z</time>
      </trkpt>
      <trkpt lat="46.09566193073988" lon="8.820501593872905">
        <ele>950.35000000000002</ele>
        <time>2022-04-10T08:20:28Z</time>
      </trkpt>
      <trkpt lat="46.095656231045723" lon="8.820515256375074">
        <ele>950.5</ele>
        <time>2022-04-10T08:20:29Z</time>
      </trkpt>
      <trkpt lat="46.095655811950564" lon="8.820530343800783">
        <ele>950.59000000000003</ele>
        <time>2022-04-10T08:20:30Z</time>
      </trkpt>
      <trkpt lat="46.095592780038714" lon="8.820645343512297">
        <ele>951.13</ele>
        <time>2022-04-10T08:20:41Z</time>
      </trkpt>
      <trkpt lat="46.095509631559253" lon="8.820700412616134">
        <ele>951.61000000000001</ele>
        <time>2022-04-10T08:20:50Z</time>
      </trkpt>
      <trkpt lat="46.09540150500834" lon="8.82081356830895">
        <ele>952.25999999999999</ele>
        <time>2022-04-10T08:21:00Z</time>
      </trkpt>
      <trkpt lat="46.095306873321533" lon="8.820970477536321">
        <ele>953.17999999999995</ele>
        <time>2022-04-10T08:21:12Z</time>
      </trkpt>
      <trkpt lat="46.095234286040068" lon="8.821154544129968">
        <ele>953.89999999999998</ele>
        <time>2022-04-10T08:21:24Z</time>
      </trkpt>
      <trkpt lat="46.095204195007682" lon="8.821269040927291">
        <ele>954.29999999999995</ele>
        <time>2022-04-10T08:21:31Z</time>
      </trkpt>
      <trkpt lat="46.095182150602341" lon="8.821406755596399">
        <ele>954.69000000000005</ele>
        <time>2022-04-10T08:21:40Z</time>
      </trkpt>
      <trkpt lat="46.095167985185981" lon="8.821476995944977">
        <ele>954.76999999999998</ele>
        <time>2022-04-10T08:21:44Z</time>
      </trkpt>
      <trkpt lat="46.095168739557266" lon="8.821497615426779">
        <ele>954.92999999999995</ele>
        <time>2022-04-10T08:21:45Z</time>
      </trkpt>
      <trkpt lat="46.095164967700839" lon="8.821516390889883">
        <ele>954.79999999999995</ele>
        <time>2022-04-10T08:21:46Z</time>
      </trkpt>
      <trkpt lat="46.095124399289489" lon="8.821682687848806">
        <ele>954.99000000000001</ele>
        <time>2022-04-10T08:21:55Z</time>
      </trkpt>
      <trkpt lat="46.095111574977636" lon="8.82173515856266">
        <ele>955.02999999999997</ele>
        <time>2022-04-10T08:21:58Z</time>
      </trkpt>
      <trkpt lat="46.095109563320875" lon="8.821751503273845">
        <ele>955.13</ele>
        <time>2022-04-10T08:21:59Z</time>
      </trkpt>
      <trkpt lat="46.095105288550258" lon="8.821767596527934">
        <ele>955.35000000000002</ele>
        <time>2022-04-10T08:22:00Z</time>
      </trkpt>
      <trkpt lat="46.095105372369289" lon="8.821786120533943">
        <ele>955.45000000000005</ele>
        <time>2022-04-10T08:22:01Z</time>
      </trkpt>
      <trkpt lat="46.095104953274131" lon="8.821807242929936">
        <ele>955.34000000000003</ele>
        <time>2022-04-10T08:22:02Z</time>
      </trkpt>
      <trkpt lat="46.095099421218038" lon="8.821826772764325">
        <ele>955.40999999999997</ele>
        <time>2022-04-10T08:22:03Z</time>
      </trkpt>
      <trkpt lat="46.095091793686152" lon="8.821844961494207">
        <ele>955.45000000000005</ele>
        <time>2022-04-10T08:22:04Z</time>
      </trkpt>
      <trkpt lat="46.095042089000344" lon="8.822000445798039">
        <ele>955.99000000000001</ele>
        <time>2022-04-10T08:22:14Z</time>
      </trkpt>
      <trkpt lat="46.095016859471798" lon="8.822051156312227">
        <ele>956.20000000000005</ele>
        <time>2022-04-10T08:22:18Z</time>
      </trkpt>
      <trkpt lat="46.095013171434402" lon="8.822065992280841">
        <ele>956.29999999999995</ele>
        <time>2022-04-10T08:22:19Z</time>
      </trkpt>
      <trkpt lat="46.095006130635738" lon="8.822080576792359">
        <ele>956.42999999999995</ele>
        <time>2022-04-10T08:22:20Z</time>
      </trkpt>
      <trkpt lat="46.09494854696095" lon="8.822216112166643">
        <ele>956.69000000000005</ele>
        <time>2022-04-10T08:22:29Z</time>
      </trkpt>
      <trkpt lat="46.094839330762625" lon="8.822407387197018">
        <ele>957.10000000000002</ele>
        <time>2022-04-10T08:22:40Z</time>
      </trkpt>
      <trkpt lat="46.094730198383331" lon="8.822579467669129">
        <ele>957.51999999999998</ele>
        <time>2022-04-10T08:22:50Z</time>
      </trkpt>
      <trkpt lat="46.094698095694184" lon="8.822623053565621">
        <ele>957.5</ele>
        <time>2022-04-10T08:22:53Z</time>
      </trkpt>
      <trkpt lat="46.0946886241436" lon="8.822633363306522">
        <ele>957.64999999999998</ele>
        <time>2022-04-10T08:22:54Z</time>
      </trkpt>
      <trkpt lat="46.09467881731689" lon="8.822652054950595">
        <ele>957.69000000000005</ele>
        <time>2022-04-10T08:22:55Z</time>
      </trkpt>
      <trkpt lat="46.09466565772891" lon="8.822669573128223">
        <ele>957.71000000000004</ele>
        <time>2022-04-10T08:22:56Z</time>
      </trkpt>
      <trkpt lat="46.094652833417058" lon="8.822683319449425">
        <ele>957.76999999999998</ele>
        <time>2022-04-10T08:22:57Z</time>
      </trkpt>
      <trkpt lat="46.094525344669819" lon="8.822854226455092">
        <ele>958.55999999999995</ele>
        <time>2022-04-10T08:23:08Z</time>
      </trkpt>
      <trkpt lat="46.094429204240441" lon="8.823063019663096">
        <ele>959.35000000000002</ele>
        <time>2022-04-10T08:23:20Z</time>
      </trkpt>
      <trkpt lat="46.094427024945617" lon="8.823075173422694">
        <ele>958.80999999999995</ele>
        <time>2022-04-10T08:23:21Z</time>
      </trkpt>
      <trkpt lat="46.094414200633764" lon="8.823242811486125">
        <ele>959.54999999999995</ele>
        <time>2022-04-10T08:23:33Z</time>
      </trkpt>
      <trkpt lat="46.094407914206386" lon="8.823249014094472">
        <ele>959.05999999999995</ele>
        <time>2022-04-10T08:23:34Z</time>
      </trkpt>
      <trkpt lat="46.09434069134295" lon="8.823340041562915">
        <ele>960.17999999999995</ele>
        <time>2022-04-10T08:23:44Z</time>
      </trkpt>
      <trkpt lat="46.09424689784646" lon="8.823477923870087">
        <ele>959.30999999999995</ele>
        <time>2022-04-10T08:23:57Z</time>
      </trkpt>
      <trkpt lat="46.094205994158983" lon="8.823563670739532">
        <ele>958.38999999999999</ele>
        <time>2022-04-10T08:24:04Z</time>
      </trkpt>
      <trkpt lat="46.094187889248133" lon="8.823590576648712">
        <ele>958.17999999999995</ele>
        <time>2022-04-10T08:24:07Z</time>
      </trkpt>
      <trkpt lat="46.094181938096881" lon="8.823604490607977">
        <ele>957.92999999999995</ele>
        <time>2022-04-10T08:24:08Z</time>
      </trkpt>
      <trkpt lat="46.094175148755312" lon="8.823617482557893">
        <ele>957.90999999999997</ele>
        <time>2022-04-10T08:24:09Z</time>
      </trkpt>
      <trkpt lat="46.094167940318584" lon="8.823629971593618">
        <ele>957.67999999999995</ele>
        <time>2022-04-10T08:24:10Z</time>
      </trkpt>
      <trkpt lat="46.09415989369154" lon="8.823642209172249">
        <ele>957.51999999999998</ele>
        <time>2022-04-10T08:24:11Z</time>
      </trkpt>
      <trkpt lat="46.094094766303897" lon="8.823756454512477">
        <ele>956.26999999999998</ele>
        <time>2022-04-10T08:24:20Z</time>
      </trkpt>
      <trkpt lat="46.094000888988376" lon="8.823940102010965">
        <ele>954.21000000000004</ele>
        <time>2022-04-10T08:24:35Z</time>
      </trkpt>
      <trkpt lat="46.093980269506574" lon="8.824030458927155">
        <ele>953.36000000000001</ele>
        <time>2022-04-10T08:24:41Z</time>
      </trkpt>
      <trkpt lat="46.093979934230447" lon="8.824045965448022">
        <ele>953.19000000000005</ele>
        <time>2022-04-10T08:24:42Z</time>
      </trkpt>
      <trkpt lat="46.093979934230447" lon="8.824061723425984">
        <ele>952.99000000000001</ele>
        <time>2022-04-10T08:24:43Z</time>
      </trkpt>
      <trkpt lat="46.093978006392717" lon="8.824077900499106">
        <ele>952.83000000000004</ele>
        <time>2022-04-10T08:24:44Z</time>
      </trkpt>
      <trkpt lat="46.093973563984036" lon="8.82409424521029">
        <ele>952.76999999999998</ele>
        <time>2022-04-10T08:24:45Z</time>
      </trkpt>
      <trkpt lat="46.09396736137569" lon="8.824109332635999">
        <ele>952.48000000000002</ele>
        <time>2022-04-10T08:24:46Z</time>
      </trkpt>
      <trkpt lat="46.093960655853152" lon="8.824123917147517">
        <ele>952.32000000000005</ele>
        <time>2022-04-10T08:24:47Z</time>
      </trkpt>
      <trkpt lat="46.0939512681216" lon="8.824319886043668">
        <ele>950.55999999999995</ele>
        <time>2022-04-10T08:25:00Z</time>
      </trkpt>
      <trkpt lat="46.093999883159995" lon="8.824569750577211">
        <ele>947.80999999999995</ele>
        <time>2022-04-10T08:25:16Z</time>
      </trkpt>
      <trkpt lat="46.093946658074856" lon="8.824650635942817">
        <ele>947.24000000000001</ele>
        <time>2022-04-10T08:25:27Z</time>
      </trkpt>
      <trkpt lat="46.093919835984707" lon="8.824603110551834">
        <ele>945.77999999999997</ele>
        <time>2022-04-10T08:25:31Z</time>
      </trkpt>
      <trkpt lat="46.093909023329616" lon="8.824592214077711">
        <ele>945.33000000000004</ele>
        <time>2022-04-10T08:25:32Z</time>
      </trkpt>
      <trkpt lat="46.093744402751327" lon="8.824417116120458">
        <ele>942.33000000000004</ele>
        <time>2022-04-10T08:25:50Z</time>
      </trkpt>
      <trkpt lat="46.09369327314198" lon="8.824326088652015">
        <ele>941.32000000000005</ele>
        <time>2022-04-10T08:26:03Z</time>
      </trkpt>
      <trkpt lat="46.093683633953333" lon="8.824307397007942">
        <ele>941.09000000000003</ele>
        <time>2022-04-10T08:26:07Z</time>
      </trkpt>
      <trkpt lat="46.09367617405951" lon="8.824294824153185">
        <ele>941.09000000000003</ele>
        <time>2022-04-10T08:26:08Z</time>
      </trkpt>
      <trkpt lat="46.09366737306118" lon="8.824280826374888">
        <ele>941.10000000000002</ele>
        <time>2022-04-10T08:26:09Z</time>
      </trkpt>
      <trkpt lat="46.09365857206285" lon="8.824265990406275">
        <ele>941.03999999999996</ele>
        <time>2022-04-10T08:26:10Z</time>
      </trkpt>
      <trkpt lat="46.093650525435805" lon="8.824251489713788">
        <ele>940.69000000000005</ele>
        <time>2022-04-10T08:26:11Z</time>
      </trkpt>
      <trkpt lat="46.09364197589457" lon="8.824237324297428">
        <ele>940.70000000000005</ele>
        <time>2022-04-10T08:26:12Z</time>
      </trkpt>
      <trkpt lat="46.093622529879212" lon="8.824218884110451">
        <ele>940.54999999999995</ele>
        <time>2022-04-10T08:26:14Z</time>
      </trkpt>
      <trkpt lat="46.093608951196074" lon="8.824239252135158">
        <ele>940.23000000000002</ele>
        <time>2022-04-10T08:26:17Z</time>
      </trkpt>
      <trkpt lat="46.093616327270865" lon="8.824278479442">
        <ele>939.74000000000001</ele>
        <time>2022-04-10T08:26:30Z</time>
      </trkpt>
      <trkpt lat="46.093620853498578" lon="8.82428141310811">
        <ele>939.65999999999997</ele>
        <time>2022-04-10T08:26:48Z</time>
      </trkpt>
      <trkpt lat="46.093621775507927" lon="8.824303625151515">
        <ele>939.59000000000003</ele>
        <time>2022-04-10T08:27:15Z</time>
      </trkpt>
      <trkpt lat="46.093598054721951" lon="8.824311839416623">
        <ele>938.11000000000001</ele>
        <time>2022-04-10T08:27:24Z</time>
      </trkpt>
      <trkpt lat="46.093578692525625" lon="8.824336146935821">
        <ele>936.50999999999999</ele>
        <time>2022-04-10T08:27:35Z</time>
      </trkpt>
      <trkpt lat="46.093581793829799" lon="8.824350563809276">
        <ele>936.37</ele>
        <time>2022-04-10T08:27:36Z</time>
      </trkpt>
      <trkpt lat="46.093603167682886" lon="8.824477298185229">
        <ele>933.39999999999998</ele>
        <time>2022-04-10T08:27:49Z</time>
      </trkpt>
      <trkpt lat="46.093571148812771" lon="8.824430108070374">
        <ele>932.65999999999997</ele>
        <time>2022-04-10T08:27:54Z</time>
      </trkpt>
      <trkpt lat="46.093434104695916" lon="8.824294824153185">
        <ele>930.09000000000003</ele>
        <time>2022-04-10T08:28:10Z</time>
      </trkpt>
      <trkpt lat="46.093401582911611" lon="8.824299601837993">
        <ele>929.57000000000005</ele>
        <time>2022-04-10T08:28:22Z</time>
      </trkpt>
      <trkpt lat="46.093389680609107" lon="8.824309660121799">
        <ele>929.5</ele>
        <time>2022-04-10T08:28:37Z</time>
      </trkpt>
      <trkpt lat="46.09331457875669" lon="8.824238749220967">
        <ele>928</ele>
        <time>2022-04-10T08:28:49Z</time>
      </trkpt>
      <trkpt lat="46.093274932354689" lon="8.824197510257363">
        <ele>927.52999999999997</ele>
        <time>2022-04-10T08:29:04Z</time>
      </trkpt>
      <trkpt lat="46.093244003131986" lon="8.824138501659036">
        <ele>926.75999999999999</ele>
        <time>2022-04-10T08:29:11Z</time>
      </trkpt>
      <trkpt lat="46.093237129971385" lon="8.824124755337834">
        <ele>926.72000000000003</ele>
        <time>2022-04-10T08:29:12Z</time>
      </trkpt>
      <trkpt lat="46.093155322596431" lon="8.823955608531833">
        <ele>925.08000000000004</ele>
        <time>2022-04-10T08:29:25Z</time>
      </trkpt>
      <trkpt lat="46.09306731261313" lon="8.823808589950204">
        <ele>924.39999999999998</ele>
        <time>2022-04-10T08:29:37Z</time>
      </trkpt>
      <trkpt lat="46.093057673424482" lon="8.823596779257059">
        <ele>923.70000000000005</ele>
        <time>2022-04-10T08:29:50Z</time>
      </trkpt>
      <trkpt lat="46.093058511614799" lon="8.823437942191958">
        <ele>923.61000000000001</ele>
        <time>2022-04-10T08:30:02Z</time>
      </trkpt>
      <trkpt lat="46.093050297349691" lon="8.823342220857739">
        <ele>923.27999999999997</ele>
        <time>2022-04-10T08:30:14Z</time>
      </trkpt>
      <trkpt lat="46.093058260157704" lon="8.823338449001312">
        <ele>922.74000000000001</ele>
        <time>2022-04-10T08:30:32Z</time>
      </trkpt>
      <trkpt lat="46.093074521049857" lon="8.823357224464417">
        <ele>923.44000000000005</ele>
        <time>2022-04-10T08:30:47Z</time>
      </trkpt>
      <trkpt lat="46.093139816075563" lon="8.823369545862079">
        <ele>924.12</ele>
        <time>2022-04-10T08:31:02Z</time>
      </trkpt>
      <trkpt lat="46.093176444992423" lon="8.823443474248052">
        <ele>924.40999999999997</ele>
        <time>2022-04-10T08:31:10Z</time>
      </trkpt>
      <trkpt lat="46.093191113322973" lon="8.823503069579601">
        <ele>924.61000000000001</ele>
        <time>2022-04-10T08:31:14Z</time>
      </trkpt>
      <trkpt lat="46.093230592086911" lon="8.823592336848378">
        <ele>925.51999999999998</ele>
        <time>2022-04-10T08:31:24Z</time>
      </trkpt>
      <trkpt lat="46.093225060030818" lon="8.823595102876425">
        <ele>925.47000000000003</ele>
        <time>2022-04-10T08:31:45Z</time>
      </trkpt>
      <trkpt lat="46.093216761946678" lon="8.823590660467744">
        <ele>924.94000000000005</ele>
        <time>2022-04-10T08:32:11Z</time>
      </trkpt>
      <trkpt lat="46.093221036717296" lon="8.823602730408311">
        <ele>925.26999999999998</ele>
        <time>2022-04-10T08:32:19Z</time>
      </trkpt>
      <trkpt lat="46.093242662027478" lon="8.823690572753549">
        <ele>925.72000000000003</ele>
        <time>2022-04-10T08:32:25Z</time>
      </trkpt>
      <trkpt lat="46.093318099156022" lon="8.823888972401619">
        <ele>926.29999999999995</ele>
        <time>2022-04-10T08:32:38Z</time>
      </trkpt>
      <trkpt lat="46.09325791709125" lon="8.824088294059038">
        <ele>926.86000000000001</ele>
        <time>2022-04-10T08:32:50Z</time>
      </trkpt>
      <trkpt lat="46.093342239037156" lon="8.82424327544868">
        <ele>929.29999999999995</ele>
        <time>2022-04-10T08:33:05Z</time>
      </trkpt>
      <trkpt lat="46.093395128846169" lon="8.824333464726806">
        <ele>931.10000000000002</ele>
        <time>2022-04-10T08:33:17Z</time>
      </trkpt>
      <trkpt lat="46.093398565426469" lon="8.824370848014951">
        <ele>931.30999999999995</ele>
        <time>2022-04-10T08:33:29Z</time>
      </trkpt>
      <trkpt lat="46.093402421101928" lon="8.824372189119458">
        <ele>931.70000000000005</ele>
        <time>2022-04-10T08:33:43Z</time>
      </trkpt>
      <trkpt lat="46.093410132452846" lon="8.82440353743732">
        <ele>931.69000000000005</ele>
        <time>2022-04-10T08:33:53Z</time>
      </trkpt>
      <trkpt lat="46.093408456072211" lon="8.824411248788238">
        <ele>931.62</ele>
        <time>2022-04-10T08:34:10Z</time>
      </trkpt>
      <trkpt lat="46.09339420683682" lon="8.824406554922462">
        <ele>931.63999999999999</ele>
        <time>2022-04-10T08:34:24Z</time>
      </trkpt>
      <trkpt lat="46.093416837975383" lon="8.824494397267699">
        <ele>930.83000000000004</ele>
        <time>2022-04-10T08:34:33Z</time>
      </trkpt>
      <trkpt lat="46.093453383073211" lon="8.824731018394232">
        <ele>928.76999999999998</ele>
        <time>2022-04-10T08:34:50Z</time>
      </trkpt>
      <trkpt lat="46.093454053625464" lon="8.824726743623614">
        <ele>928.65999999999997</ele>
        <time>2022-04-10T08:35:04Z</time>
      </trkpt>
      <trkpt lat="46.093454556539655" lon="8.824719535186887">
        <ele>928.64999999999998</ele>
        <time>2022-04-10T08:35:19Z</time>
      </trkpt>
      <trkpt lat="46.093472577631474" lon="8.824752308428288">
        <ele>928.60000000000002</ele>
        <time>2022-04-10T08:35:36Z</time>
      </trkpt>
      <trkpt lat="46.093478947877884" lon="8.824814585968852">
        <ele>928.26999999999998</ele>
        <time>2022-04-10T08:35:42Z</time>
      </trkpt>
      <trkpt lat="46.093496801331639" lon="8.824888849630952">
        <ele>927.63999999999999</ele>
        <time>2022-04-10T08:35:47Z</time>
      </trkpt>
      <trkpt lat="46.093591935932636" lon="8.825158663094044">
        <ele>925.99000000000001</ele>
        <time>2022-04-10T08:36:06Z</time>
      </trkpt>
      <trkpt lat="46.093614147976041" lon="8.82521566003561">
        <ele>925.55999999999995</ele>
        <time>2022-04-10T08:36:10Z</time>
      </trkpt>
      <trkpt lat="46.093757059425116" lon="8.825409868732095">
        <ele>923.10000000000002</ele>
        <time>2022-04-10T08:36:27Z</time>
      </trkpt>
      <trkpt lat="46.093776673078537" lon="8.825684040784836">
        <ele>922.46000000000004</ele>
        <time>2022-04-10T08:36:43Z</time>
      </trkpt>
      <trkpt lat="46.093775415793061" lon="8.825738439336419">
        <ele>921.87</ele>
        <time>2022-04-10T08:36:47Z</time>
      </trkpt>
      <trkpt lat="46.093732165172696" lon="8.825821755453944">
        <ele>921.26999999999998</ele>
        <time>2022-04-10T08:36:53Z</time>
      </trkpt>
      <trkpt lat="46.093689249828458" lon="8.826124090701342">
        <ele>918.79999999999995</ele>
        <time>2022-04-10T08:37:10Z</time>
      </trkpt>
      <trkpt lat="46.093748426064849" lon="8.826428772881627">
        <ele>918.59000000000003</ele>
        <time>2022-04-10T08:37:28Z</time>
      </trkpt>
      <trkpt lat="46.093798046931624" lon="8.826555674895644">
        <ele>917.62</ele>
        <time>2022-04-10T08:37:44Z</time>
      </trkpt>
      <trkpt lat="46.093814726918936" lon="8.826564475893974">
        <ele>917.22000000000003</ele>
        <time>2022-04-10T08:38:01Z</time>
      </trkpt>
      <trkpt lat="46.093836352229118" lon="8.826636476442218">
        <ele>916.66999999999996</ele>
        <time>2022-04-10T08:38:18Z</time>
      </trkpt>
      <trkpt lat="46.093879351392388" lon="8.826727168634534">
        <ele>916.05999999999995</ele>
        <time>2022-04-10T08:38:30Z</time>
      </trkpt>
      <trkpt lat="46.094000637531281" lon="8.826934201642871">
        <ele>914.25999999999999</ele>
        <time>2022-04-10T08:38:46Z</time>
      </trkpt>
      <trkpt lat="46.09415452927351" lon="8.827042495831847">
        <ele>913</ele>
        <time>2022-04-10T08:39:00Z</time>
      </trkpt>
      <trkpt lat="46.094273468479514" lon="8.827022882178426">
        <ele>912.05999999999995</ele>
        <time>2022-04-10T08:39:11Z</time>
      </trkpt>
      <trkpt lat="46.094323173165321" lon="8.827014500275254">
        <ele>911.88999999999999</ele>
        <time>2022-04-10T08:39:16Z</time>
      </trkpt>
      <trkpt lat="46.094368016347289" lon="8.82702455855906">
        <ele>911.40999999999997</ele>
        <time>2022-04-10T08:39:20Z</time>
      </trkpt>
      <trkpt lat="46.094411015510559" lon="8.827059762552381">
        <ele>910.88999999999999</ele>
        <time>2022-04-10T08:39:24Z</time>
      </trkpt>
      <trkpt lat="46.094456864520907" lon="8.827146515250206">
        <ele>910.54999999999995</ele>
        <time>2022-04-10T08:39:30Z</time>
      </trkpt>
      <trkpt lat="46.094468934461474" lon="8.827218012884259">
        <ele>909.75</ele>
        <time>2022-04-10T08:39:34Z</time>
      </trkpt>
      <trkpt lat="46.094386707991362" lon="8.827375508844852">
        <ele>908.59000000000003</ele>
        <time>2022-04-10T08:39:46Z</time>
      </trkpt>
      <trkpt lat="46.094322921708226" lon="8.827442564070225">
        <ele>907.65999999999997</ele>
        <time>2022-04-10T08:39:57Z</time>
      </trkpt>
      <trkpt lat="46.094301296398044" lon="8.827457902953029">
        <ele>907.39999999999998</ele>
        <time>2022-04-10T08:39:59Z</time>
      </trkpt>
      <trkpt lat="46.094218986108899" lon="8.827685303986073">
        <ele>905.96000000000004</ele>
        <time>2022-04-10T08:40:14Z</time>
      </trkpt>
      <trkpt lat="46.094217225909233" lon="8.827768787741661">
        <ele>905.76999999999998</ele>
        <time>2022-04-10T08:40:21Z</time>
      </trkpt>
      <trkpt lat="46.094227032735944" lon="8.827826455235481">
        <ele>905.19000000000005</ele>
        <time>2022-04-10T08:40:25Z</time>
      </trkpt>
      <trkpt lat="46.094293417409062" lon="8.828056370839477">
        <ele>903.04999999999995</ele>
        <time>2022-04-10T08:40:41Z</time>
      </trkpt>
      <trkpt lat="46.094355108216405" lon="8.828164916485548">
        <ele>902.07000000000005</ele>
        <time>2022-04-10T08:40:51Z</time>
      </trkpt>
      <trkpt lat="46.09438612125814" lon="8.828199030831456">
        <ele>901.63</ele>
        <time>2022-04-10T08:40:55Z</time>
      </trkpt>
      <trkpt lat="46.094501623883843" lon="8.828271953389049">
        <ele>899.96000000000004</ele>
        <time>2022-04-10T08:41:07Z</time>
      </trkpt>
      <trkpt lat="46.094578485935926" lon="8.828291650861502">
        <ele>898.98000000000002</ele>
        <time>2022-04-10T08:41:15Z</time>
      </trkpt>
      <trkpt lat="46.094630202278495" lon="8.828307073563337">
        <ele>898.44000000000005</ele>
        <time>2022-04-10T08:41:20Z</time>
      </trkpt>
      <trkpt lat="46.094716871157289" lon="8.828349988907576">
        <ele>897.47000000000003</ele>
        <time>2022-04-10T08:41:28Z</time>
      </trkpt>
      <trkpt lat="46.094762468710542" lon="8.828408159315586">
        <ele>897.04999999999995</ele>
        <time>2022-04-10T08:41:32Z</time>
      </trkpt>
      <trkpt lat="46.094821561127901" lon="8.828553501516581">
        <ele>896</ele>
        <time>2022-04-10T08:41:41Z</time>
      </trkpt>
      <trkpt lat="46.094696670770645" lon="8.828708231449127">
        <ele>894.5</ele>
        <time>2022-04-10T08:41:53Z</time>
      </trkpt>
      <trkpt lat="46.094588795676827" lon="8.828783081844449">
        <ele>893.40999999999997</ele>
        <time>2022-04-10T08:42:01Z</time>
      </trkpt>
      <trkpt lat="46.094548981636763" lon="8.828812083229423">
        <ele>893.25999999999999</ele>
        <time>2022-04-10T08:42:04Z</time>
      </trkpt>
      <trkpt lat="46.09446918591857" lon="8.828891040757299">
        <ele>892.25</ele>
        <time>2022-04-10T08:42:11Z</time>
      </trkpt>
      <trkpt lat="46.094411183148623" lon="8.828928004950285">
        <ele>891.54999999999995</ele>
        <time>2022-04-10T08:42:16Z</time>
      </trkpt>
      <trkpt lat="46.094364328309894" lon="8.82897175848484">
        <ele>890.73000000000002</ele>
        <time>2022-04-10T08:42:21Z</time>
      </trkpt>
      <trkpt lat="46.094342702999711" lon="8.82899958640337">
        <ele>890.28999999999996</ele>
        <time>2022-04-10T08:42:24Z</time>
      </trkpt>
      <trkpt lat="46.094273803755641" lon="8.829092793166637">
        <ele>889.19000000000005</ele>
        <time>2022-04-10T08:42:33Z</time>
      </trkpt>
      <trkpt lat="46.094222590327263" lon="8.829170074313879">
        <ele>888.16999999999996</ele>
        <time>2022-04-10T08:42:41Z</time>
      </trkpt>
      <trkpt lat="46.094156205654144" lon="8.829271327704191">
        <ele>887.07000000000005</ele>
        <time>2022-04-10T08:42:51Z</time>
      </trkpt>
      <trkpt lat="46.094086971133947" lon="8.829358331859112">
        <ele>885.87</ele>
        <time>2022-04-10T08:43:00Z</time>
      </trkpt>
      <trkpt lat="46.094010192900896" lon="8.829510798677802">
        <ele>884.20000000000005</ele>
        <time>2022-04-10T08:43:12Z</time>
      </trkpt>
      <trkpt lat="46.094021927565336" lon="8.829634012654424">
        <ele>882.48000000000002</ele>
        <time>2022-04-10T08:43:23Z</time>
      </trkpt>
      <trkpt lat="46.094036092981696" lon="8.829733673483133">
        <ele>881.47000000000003</ele>
        <time>2022-04-10T08:43:30Z</time>
      </trkpt>
      <trkpt lat="46.094053778797388" lon="8.829913549125195">
        <ele>879.67999999999995</ele>
        <time>2022-04-10T08:43:43Z</time>
      </trkpt>
      <trkpt lat="46.094067860394716" lon="8.83009853772819">
        <ele>877.75999999999999</ele>
        <time>2022-04-10T08:43:55Z</time>
      </trkpt>
      <trkpt lat="46.094114799052477" lon="8.830281011760235">
        <ele>876.19000000000005</ele>
        <time>2022-04-10T08:44:07Z</time>
      </trkpt>
      <trkpt lat="46.094136592000723" lon="8.830352844670415">
        <ele>875.55999999999995</ele>
        <time>2022-04-10T08:44:11Z</time>
      </trkpt>
      <trkpt lat="46.094209011644125" lon="8.830556608736515">
        <ele>873.46000000000004</ele>
        <time>2022-04-10T08:44:26Z</time>
      </trkpt>
      <trkpt lat="46.09428302384913" lon="8.830634644255042">
        <ele>872.90999999999997</ele>
        <time>2022-04-10T08:44:34Z</time>
      </trkpt>
      <trkpt lat="46.094354689121246" lon="8.830699939280748">
        <ele>872.13999999999999</ele>
        <time>2022-04-10T08:44:44Z</time>
      </trkpt>
      <trkpt lat="46.094307163730264" lon="8.830798845738173">
        <ele>871.82000000000005</ele>
        <time>2022-04-10T08:44:59Z</time>
      </trkpt>
      <trkpt lat="46.094302972778678" lon="8.830803707242012">
        <ele>871.82000000000005</ele>
        <time>2022-04-10T08:45:16Z</time>
      </trkpt>
      <trkpt lat="46.09428352676332" lon="8.830790631473064">
        <ele>871.70000000000005</ele>
        <time>2022-04-10T08:45:30Z</time>
      </trkpt>
      <trkpt lat="46.094277491793036" lon="8.830762384459376">
        <ele>872.28999999999996</ele>
        <time>2022-04-10T08:45:34Z</time>
      </trkpt>
      <trkpt lat="46.094208341091871" lon="8.830656185746193">
        <ele>873.08000000000004</ele>
        <time>2022-04-10T08:45:45Z</time>
      </trkpt>
      <trkpt lat="46.094153355807066" lon="8.830613689497113">
        <ele>873.53999999999996</ele>
        <time>2022-04-10T08:46:00Z</time>
      </trkpt>
      <trkpt lat="46.094177076593041" lon="8.830600613728166">
        <ele>873.39999999999998</ele>
        <time>2022-04-10T08:46:12Z</time>
      </trkpt>
      <trkpt lat="46.09420046210289" lon="8.830625088885427">
        <ele>873.30999999999995</ele>
        <time>2022-04-10T08:46:14Z</time>
      </trkpt>
      <trkpt lat="46.09434069134295" lon="8.830743692815304">
        <ele>872.82000000000005</ele>
        <time>2022-04-10T08:46:26Z</time>
      </trkpt>
      <trkpt lat="46.094415374100208" lon="8.830808401107788">
        <ele>871.25999999999999</ele>
        <time>2022-04-10T08:46:35Z</time>
      </trkpt>
      <trkpt lat="46.094412775710225" lon="8.830994814634323">
        <ele>868.88999999999999</ele>
        <time>2022-04-10T08:46:49Z</time>
      </trkpt>
      <trkpt lat="46.094402968883514" lon="8.831054493784905">
        <ele>868.66999999999996</ele>
        <time>2022-04-10T08:46:52Z</time>
      </trkpt>
      <trkpt lat="46.094399364665151" lon="8.831111071631312">
        <ele>867.91999999999996</ele>
        <time>2022-04-10T08:46:54Z</time>
      </trkpt>
      <trkpt lat="46.094393581151962" lon="8.8311617821455">
        <ele>867.57000000000005</ele>
        <time>2022-04-10T08:46:56Z</time>
      </trkpt>
      <trkpt lat="46.09438662417233" lon="8.831261275336146">
        <ele>867.04999999999995</ele>
        <time>2022-04-10T08:47:01Z</time>
      </trkpt>
      <trkpt lat="46.094436161220074" lon="8.831448024138808">
        <ele>865.42999999999995</ele>
        <time>2022-04-10T08:47:12Z</time>
      </trkpt>
      <trkpt lat="46.094478657469153" lon="8.831581380218267">
        <ele>863.10000000000002</ele>
        <time>2022-04-10T08:47:23Z</time>
      </trkpt>
      <trkpt lat="46.094468515366316" lon="8.8315693102777">
        <ele>862.98000000000002</ele>
        <time>2022-04-10T08:47:25Z</time>
      </trkpt>
      <trkpt lat="46.094457115978003" lon="8.831551875919104">
        <ele>862.75999999999999</ele>
        <time>2022-04-10T08:47:27Z</time>
      </trkpt>
      <trkpt lat="46.09435779042542" lon="8.831461099907756">
        <ele>861.03999999999996</ele>
        <time>2022-04-10T08:47:38Z</time>
      </trkpt>
      <trkpt lat="46.094318814575672" lon="8.831474594771862">
        <ele>858.63</ele>
        <time>2022-04-10T08:47:48Z</time>
      </trkpt>
      <trkpt lat="46.094316467642784" lon="8.831606693565846">
        <ele>855.96000000000004</ele>
        <time>2022-04-10T08:47:57Z</time>
      </trkpt>
      <trkpt lat="46.094325017184019" lon="8.831760417670012">
        <ele>852.60000000000002</ele>
        <time>2022-04-10T08:48:08Z</time>
      </trkpt>
      <trkpt lat="46.094372207298875" lon="8.831900646910071">
        <ele>850.67999999999995</ele>
        <time>2022-04-10T08:48:20Z</time>
      </trkpt>
      <trkpt lat="46.094396179541945" lon="8.831954291090369">
        <ele>848.90999999999997</ele>
        <time>2022-04-10T08:48:26Z</time>
      </trkpt>
      <trkpt lat="46.094465916976333" lon="8.832077421247959">
        <ele>847.62</ele>
        <time>2022-04-10T08:48:42Z</time>
      </trkpt>
      <trkpt lat="46.094496762380004" lon="8.832220584154129">
        <ele>844.38</ele>
        <time>2022-04-10T08:48:52Z</time>
      </trkpt>
      <trkpt lat="46.094536744058132" lon="8.832370955497026">
        <ele>841.21000000000004</ele>
        <time>2022-04-10T08:49:02Z</time>
      </trkpt>
      <trkpt lat="46.094544623047113" lon="8.832420744001865">
        <ele>840.67999999999995</ele>
        <time>2022-04-10T08:49:05Z</time>
      </trkpt>
      <trkpt lat="46.094555268064141" lon="8.832634398713708">
        <ele>837.07000000000005</ele>
        <time>2022-04-10T08:49:19Z</time>
      </trkpt>
      <trkpt lat="46.094545545056462" lon="8.832739759236574">
        <ele>834.53999999999996</ele>
        <time>2022-04-10T08:49:27Z</time>
      </trkpt>
      <trkpt lat="46.094623915851116" lon="8.832921730354428">
        <ele>833.89999999999998</ele>
        <time>2022-04-10T08:49:41Z</time>
      </trkpt>
      <trkpt lat="46.094683595001698" lon="8.833022899925709">
        <ele>833.38999999999999</ele>
        <time>2022-04-10T08:49:51Z</time>
      </trkpt>
      <trkpt lat="46.094705387949944" lon="8.833127422258258">
        <ele>833.47000000000003</ele>
        <time>2022-04-10T08:50:07Z</time>
      </trkpt>
      <trkpt lat="46.094714188948274" lon="8.833142342045903">
        <ele>831.59000000000003</ele>
        <time>2022-04-10T08:50:09Z</time>
      </trkpt>
      <trkpt lat="46.094755427911878" lon="8.833183916285634">
        <ele>830.95000000000005</ele>
        <time>2022-04-10T08:50:16Z</time>
      </trkpt>
      <trkpt lat="46.094859195873141" lon="8.833272010087967">
        <ele>827.79999999999995</ele>
        <time>2022-04-10T08:50:28Z</time>
      </trkpt>
      <trkpt lat="46.094895908609033" lon="8.833358008414507">
        <ele>824.76999999999998</ele>
        <time>2022-04-10T08:50:37Z</time>
      </trkpt>
      <trkpt lat="46.094925161451101" lon="8.833373850211501">
        <ele>824.00999999999999</ele>
        <time>2022-04-10T08:50:40Z</time>
      </trkpt>
      <trkpt lat="46.095003951340914" lon="8.833475103601813">
        <ele>821.14999999999998</ele>
        <time>2022-04-10T08:50:51Z</time>
      </trkpt>
      <trkpt lat="46.095099588856101" lon="8.83352966979146">
        <ele>819.91999999999996</ele>
        <time>2022-04-10T08:51:01Z</time>
      </trkpt>
      <trkpt lat="46.095213415101171" lon="8.833488011732698">
        <ele>819.19000000000005</ele>
        <time>2022-04-10T08:51:11Z</time>
      </trkpt>
      <trkpt lat="46.095256581902504" lon="8.833433529362083">
        <ele>818.55999999999995</ele>
        <time>2022-04-10T08:51:16Z</time>
      </trkpt>
      <trkpt lat="46.095333443954587" lon="8.8333635404706">
        <ele>818.16999999999996</ele>
        <time>2022-04-10T08:51:23Z</time>
      </trkpt>
      <trkpt lat="46.095397565513849" lon="8.833318864926696">
        <ele>817.96000000000004</ele>
        <time>2022-04-10T08:51:29Z</time>
      </trkpt>
      <trkpt lat="46.095442492514849" lon="8.833352979272604">
        <ele>817.58000000000004</ele>
        <time>2022-04-10T08:51:39Z</time>
      </trkpt>
      <trkpt lat="46.095482055097818" lon="8.833486419171095">
        <ele>816.60000000000002</ele>
        <time>2022-04-10T08:51:51Z</time>
      </trkpt>
      <trkpt lat="46.095473924651742" lon="8.833558419719338">
        <ele>816.75999999999999</ele>
        <time>2022-04-10T08:51:55Z</time>
      </trkpt>
      <trkpt lat="46.095459340140224" lon="8.833848852664232">
        <ele>815.91999999999996</ele>
        <time>2022-04-10T08:52:07Z</time>
      </trkpt>
      <trkpt lat="46.095482725650072" lon="8.83387902751565">
        <ele>815.90999999999997</ele>
        <time>2022-04-10T08:52:18Z</time>
      </trkpt>
      <trkpt lat="46.095493035390973" lon="8.833871735259891">
        <ele>815.98000000000002</ele>
        <time>2022-04-10T08:52:20Z</time>
      </trkpt>
      <trkpt lat="46.095502758398652" lon="8.833884727209806">
        <ele>815.73000000000002</ele>
        <time>2022-04-10T08:52:24Z</time>
      </trkpt>
      <trkpt lat="46.095521366223693" lon="8.833943651989102">
        <ele>815.61000000000001</ele>
        <time>2022-04-10T08:52:29Z</time>
      </trkpt>
      <trkpt lat="46.095536202192307" lon="8.834002073854208">
        <ele>815.46000000000004</ele>
        <time>2022-04-10T08:52:33Z</time>
      </trkpt>
      <trkpt lat="46.095551876351237" lon="8.834043648093939">
        <ele>815.19000000000005</ele>
        <time>2022-04-10T08:52:38Z</time>
      </trkpt>
      <trkpt lat="46.095562353730202" lon="8.834093688055873">
        <ele>815</ele>
        <time>2022-04-10T08:52:41Z</time>
      </trkpt>
      <trkpt lat="46.095590768381953" lon="8.834238778799772">
        <ele>815.84000000000003</ele>
        <time>2022-04-10T08:52:52Z</time>
      </trkpt>
      <trkpt lat="46.095672743394971" lon="8.834269205108285">
        <ele>815.60000000000002</ele>
        <time>2022-04-10T08:53:04Z</time>
      </trkpt>
      <trkpt lat="46.095737786963582" lon="8.834368027746677">
        <ele>813.13</ele>
        <time>2022-04-10T08:53:16Z</time>
      </trkpt>
      <trkpt lat="46.095744324848056" lon="8.834464335814118">
        <ele>812.32000000000005</ele>
        <time>2022-04-10T08:53:32Z</time>
      </trkpt>
      <trkpt lat="46.095807356759906" lon="8.834621915593743">
        <ele>810.48000000000002</ele>
        <time>2022-04-10T08:53:45Z</time>
      </trkpt>
      <trkpt lat="46.095852283760905" lon="8.834644965827465">
        <ele>810.02999999999997</ele>
        <time>2022-04-10T08:53:58Z</time>
      </trkpt>
      <trkpt lat="46.095927469432354" lon="8.834743704646826">
        <ele>809.47000000000003</ele>
        <time>2022-04-10T08:54:13Z</time>
      </trkpt>
      <trkpt lat="46.095976587384939" lon="8.834858452901244">
        <ele>810.01999999999998</ele>
        <time>2022-04-10T08:54:26Z</time>
      </trkpt>
      <trkpt lat="46.095967032015324" lon="8.834871863946319">
        <ele>809.69000000000005</ele>
        <time>2022-04-10T08:54:29Z</time>
      </trkpt>
      <trkpt lat="46.095970552414656" lon="8.834925508126617">
        <ele>809.59000000000003</ele>
        <time>2022-04-10T08:54:33Z</time>
      </trkpt>
      <trkpt lat="46.09602059237659" lon="8.835085434839129">
        <ele>809.34000000000003</ele>
        <time>2022-04-10T08:54:50Z</time>
      </trkpt>
      <trkpt lat="46.096033835783601" lon="8.83510110899806">
        <ele>809.59000000000003</ele>
        <time>2022-04-10T08:54:52Z</time>
      </trkpt>
      <trkpt lat="46.096027800813317" lon="8.835162883624435">
        <ele>808.58000000000004</ele>
        <time>2022-04-10T08:54:59Z</time>
      </trkpt>
      <trkpt lat="46.096019083634019" lon="8.835185682401061">
        <ele>808.19000000000005</ele>
        <time>2022-04-10T08:55:01Z</time>
      </trkpt>
      <trkpt lat="46.095987819135189" lon="8.835243601351976">
        <ele>807.89999999999998</ele>
        <time>2022-04-10T08:55:07Z</time>
      </trkpt>
      <trkpt lat="46.096029980108142" lon="8.835325157269836">
        <ele>808.38</ele>
        <time>2022-04-10T08:55:18Z</time>
      </trkpt>
      <trkpt lat="46.09602595679462" lon="8.835298251360655">
        <ele>808.40999999999997</ele>
        <time>2022-04-10T08:55:25Z</time>
      </trkpt>
      <trkpt lat="46.096016736701131" lon="8.835294144228101">
        <ele>808.39999999999998</ele>
        <time>2022-04-10T08:55:31Z</time>
      </trkpt>
      <trkpt lat="46.095989663153887" lon="8.83527796715498">
        <ele>808.49000000000001</ele>
        <time>2022-04-10T08:55:40Z</time>
      </trkpt>
      <trkpt lat="46.095981784164906" lon="8.835253156721592">
        <ele>808.79999999999995</ele>
        <time>2022-04-10T08:55:49Z</time>
      </trkpt>
      <trkpt lat="46.095990166068077" lon="8.835263717919588">
        <ele>808.60000000000002</ele>
        <time>2022-04-10T08:55:56Z</time>
      </trkpt>
      <trkpt lat="46.096060322597623" lon="8.835356421768665">
        <ele>810</ele>
        <time>2022-04-10T08:56:07Z</time>
      </trkpt>
      <trkpt lat="46.096139866858721" lon="8.835459854453802">
        <ele>809.50999999999999</ele>
        <time>2022-04-10T08:56:16Z</time>
      </trkpt>
      <trkpt lat="46.096233241260052" lon="8.835638891905546">
        <ele>808.27999999999997</ele>
        <time>2022-04-10T08:56:29Z</time>
      </trkpt>
      <trkpt lat="46.096261236816645" lon="8.835678119212389">
        <ele>808.50999999999999</ele>
        <time>2022-04-10T08:56:32Z</time>
      </trkpt>
      <trkpt lat="46.096304906532168" lon="8.835902838036418">
        <ele>809.60000000000002</ele>
        <time>2022-04-10T08:56:46Z</time>
      </trkpt>
      <trkpt lat="46.096271462738514" lon="8.836031500250101">
        <ele>810.15999999999997</ele>
        <time>2022-04-10T08:56:59Z</time>
      </trkpt>
      <trkpt lat="46.096192421391606" lon="8.836125545203686">
        <ele>810.47000000000003</ele>
        <time>2022-04-10T08:57:09Z</time>
      </trkpt>
      <trkpt lat="46.096118912100792" lon="8.836092185229063">
        <ele>811.95000000000005</ele>
        <time>2022-04-10T08:57:28Z</time>
      </trkpt>
      <trkpt lat="46.096186470240355" lon="8.836159491911531">
        <ele>814.71000000000004</ele>
        <time>2022-04-10T08:57:41Z</time>
      </trkpt>
      <trkpt lat="46.096140956506133" lon="8.836165862157941">
        <ele>817.5</ele>
        <time>2022-04-10T08:57:55Z</time>
      </trkpt>
      <trkpt lat="46.096114637330174" lon="8.836163012310863">
        <ele>818.17999999999995</ele>
        <time>2022-04-10T08:57:59Z</time>
      </trkpt>
      <trkpt lat="46.096013970673084" lon="8.836105512455106">
        <ele>820.94000000000005</ele>
        <time>2022-04-10T08:58:14Z</time>
      </trkpt>
      <trkpt lat="46.095927301794291" lon="8.836029823869467">
        <ele>820.13</ele>
        <time>2022-04-10T08:58:28Z</time>
      </trkpt>
      <trkpt lat="46.095859743654728" lon="8.835902167484164">
        <ele>821.72000000000003</ele>
        <time>2022-04-10T08:58:42Z</time>
      </trkpt>
      <trkpt lat="46.0958490986377" lon="8.835885906592012">
        <ele>821.84000000000003</ele>
        <time>2022-04-10T08:58:44Z</time>
      </trkpt>
      <trkpt lat="46.095814146101475" lon="8.835758501663804">
        <ele>824.89999999999998</ele>
        <time>2022-04-10T08:58:57Z</time>
      </trkpt>
      <trkpt lat="46.095766872167587" lon="8.835633778944612">
        <ele>827.61000000000001</ele>
        <time>2022-04-10T08:59:16Z</time>
      </trkpt>
      <trkpt lat="46.095719514414668" lon="8.835607459768653">
        <ele>828.45000000000005</ele>
        <time>2022-04-10T08:59:30Z</time>
      </trkpt>
      <trkpt lat="46.095684478059411" lon="8.835581140592694">
        <ele>829.54999999999995</ele>
        <time>2022-04-10T08:59:45Z</time>
      </trkpt>
      <trkpt lat="46.095590349286795" lon="8.835526825860143">
        <ele>828.51999999999998</ele>
        <time>2022-04-10T08:59:59Z</time>
      </trkpt>
      <trkpt lat="46.095509547740221" lon="8.835448371246457">
        <ele>829.00999999999999</ele>
        <time>2022-04-10T09:00:11Z</time>
      </trkpt>
      <trkpt lat="46.095423549413681" lon="8.835433200001717">
        <ele>828.67999999999995</ele>
        <time>2022-04-10T09:00:22Z</time>
      </trkpt>
      <trkpt lat="46.095273178070784" lon="8.835341921076179">
        <ele>827.57000000000005</ele>
        <time>2022-04-10T09:00:38Z</time>
      </trkpt>
      <trkpt lat="46.095188185572624" lon="8.83526036515832">
        <ele>829.34000000000003</ele>
        <time>2022-04-10T09:00:49Z</time>
      </trkpt>
      <trkpt lat="46.095151891931891" lon="8.83523010648787">
        <ele>829.91999999999996</ele>
        <time>2022-04-10T09:00:53Z</time>
      </trkpt>
      <trkpt lat="46.095128087326884" lon="8.835211917757988">
        <ele>829.90999999999997</ele>
        <time>2022-04-10T09:00:55Z</time>
      </trkpt>
      <trkpt lat="46.095095230266452" lon="8.835186269134283">
        <ele>830.14999999999998</ele>
        <time>2022-04-10T09:00:58Z</time>
      </trkpt>
      <trkpt lat="46.095068827271461" lon="8.835151065140963">
        <ele>830.36000000000001</ele>
        <time>2022-04-10T09:01:01Z</time>
      </trkpt>
      <trkpt lat="46.094937399029732" lon="8.835108149796724">
        <ele>831.88999999999999</ele>
        <time>2022-04-10T09:01:13Z</time>
      </trkpt>
      <trkpt lat="46.094864141196012" lon="8.835076298564673">
        <ele>831.95000000000005</ele>
        <time>2022-04-10T09:01:19Z</time>
      </trkpt>
      <trkpt lat="46.094769593328238" lon="8.835016367956996">
        <ele>830.69000000000005</ele>
        <time>2022-04-10T09:01:29Z</time>
      </trkpt>
      <trkpt lat="46.094680409878492" lon="8.834969094023109">
        <ele>828.39999999999998</ele>
        <time>2022-04-10T09:01:40Z</time>
      </trkpt>
      <trkpt lat="46.094574043527246" lon="8.834941098466516">
        <ele>826.70000000000005</ele>
        <time>2022-04-10T09:01:52Z</time>
      </trkpt>
      <trkpt lat="46.094457451254129" lon="8.834897764027119">
        <ele>824.85000000000002</ele>
        <time>2022-04-10T09:02:04Z</time>
      </trkpt>
      <trkpt lat="46.094366172328591" lon="8.834861470386386">
        <ele>821.72000000000003</ele>
        <time>2022-04-10T09:02:17Z</time>
      </trkpt>
      <trkpt lat="46.094305738806725" lon="8.834873037412763">
        <ele>819.02999999999997</ele>
        <time>2022-04-10T09:02:31Z</time>
      </trkpt>
      <trkpt lat="46.094240946695209" lon="8.834935985505581">
        <ele>817.40999999999997</ele>
        <time>2022-04-10T09:02:47Z</time>
      </trkpt>
      <trkpt lat="46.094230972230434" lon="8.834942020475864">
        <ele>817.38999999999999</ele>
        <time>2022-04-10T09:02:49Z</time>
      </trkpt>
      <trkpt lat="46.094124102964997" lon="8.834841102361679">
        <ele>815.67999999999995</ele>
        <time>2022-04-10T09:03:04Z</time>
      </trkpt>
      <trkpt lat="46.094023687765002" lon="8.834788547828794">
        <ele>816.21000000000004</ele>
        <time>2022-04-10T09:03:19Z</time>
      </trkpt>
      <trkpt lat="46.093933079391718" lon="8.834723252803087">
        <ele>815.37</ele>
        <time>2022-04-10T09:03:32Z</time>
      </trkpt>
      <trkpt lat="46.093866946175694" lon="8.834661478176713">
        <ele>813.19000000000005</ele>
        <time>2022-04-10T09:03:46Z</time>
      </trkpt>
      <trkpt lat="46.093821516260505" lon="8.834559135138989">
        <ele>810.99000000000001</ele>
        <time>2022-04-10T09:03:55Z</time>
      </trkpt>
      <trkpt lat="46.093811374157667" lon="8.834509681910276">
        <ele>810.25999999999999</ele>
        <time>2022-04-10T09:03:58Z</time>
      </trkpt>
      <trkpt lat="46.093812212347984" lon="8.834426617249847">
        <ele>809.92999999999995</ele>
        <time>2022-04-10T09:04:10Z</time>
      </trkpt>
      <trkpt lat="46.093804249539971" lon="8.834419492632151">
        <ele>810.72000000000003</ele>
        <time>2022-04-10T09:04:30Z</time>
      </trkpt>
      <trkpt lat="46.093773487955332" lon="8.834371464326978">
        <ele>811.28999999999996</ele>
        <time>2022-04-10T09:04:35Z</time>
      </trkpt>
      <trkpt lat="46.093687657266855" lon="8.834272138774395">
        <ele>811.88</ele>
        <time>2022-04-10T09:04:48Z</time>
      </trkpt>
      <trkpt lat="46.093616997823119" lon="8.834181949496269">
        <ele>809.88999999999999</ele>
        <time>2022-04-10T09:05:00Z</time>
      </trkpt>
      <trkpt lat="46.09360333532095" lon="8.834151439368725">
        <ele>809.65999999999997</ele>
        <time>2022-04-10T09:05:02Z</time>
      </trkpt>
      <trkpt lat="46.093529406934977" lon="8.833945831283927">
        <ele>808.88</ele>
        <time>2022-04-10T09:05:16Z</time>
      </trkpt>
      <trkpt lat="46.093487329781055" lon="8.833852792158723">
        <ele>808.72000000000003</ele>
        <time>2022-04-10T09:05:28Z</time>
      </trkpt>
      <trkpt lat="46.093425052240491" lon="8.833880703896284">
        <ele>807.16999999999996</ele>
        <time>2022-04-10T09:05:36Z</time>
      </trkpt>
      <trkpt lat="46.093296222388744" lon="8.833956057205796">
        <ele>805.86000000000001</ele>
        <time>2022-04-10T09:05:49Z</time>
      </trkpt>
      <trkpt lat="46.093240734189749" lon="8.833946920931339">
        <ele>803.26999999999998</ele>
        <time>2022-04-10T09:06:04Z</time>
      </trkpt>
      <trkpt lat="46.093240985646844" lon="8.833776600658894">
        <ele>801.19000000000005</ele>
        <time>2022-04-10T09:06:17Z</time>
      </trkpt>
      <trkpt lat="46.093243081122637" lon="8.833708120509982">
        <ele>798.69000000000005</ele>
        <time>2022-04-10T09:06:27Z</time>
      </trkpt>
      <trkpt lat="46.09319781884551" lon="8.833737708628178">
        <ele>797.37</ele>
        <time>2022-04-10T09:06:40Z</time>
      </trkpt>
      <trkpt lat="46.093160351738334" lon="8.833837620913982">
        <ele>794.87</ele>
        <time>2022-04-10T09:06:54Z</time>
      </trkpt>
      <trkpt lat="46.093120956793427" lon="8.833861509338021">
        <ele>795.27999999999997</ele>
        <time>2022-04-10T09:07:05Z</time>
      </trkpt>
      <trkpt lat="46.093069240450859" lon="8.833849607035518">
        <ele>796.15999999999997</ele>
        <time>2022-04-10T09:07:12Z</time>
      </trkpt>
      <trkpt lat="46.093024229630828" lon="8.833905179053545">
        <ele>794.65999999999997</ele>
        <time>2022-04-10T09:07:26Z</time>
      </trkpt>
      <trkpt lat="46.092975195497274" lon="8.833935018628836">
        <ele>793.69000000000005</ele>
        <time>2022-04-10T09:07:37Z</time>
      </trkpt>
      <trkpt lat="46.092958180233836" lon="8.833951866254211">
        <ele>793.38999999999999</ele>
        <time>2022-04-10T09:07:39Z</time>
      </trkpt>
      <trkpt lat="46.092835972085595" lon="8.834011042490602">
        <ele>794.38</ele>
        <time>2022-04-10T09:07:54Z</time>
      </trkpt>
      <trkpt lat="46.092771515250206" lon="8.834022609516978">
        <ele>796.38</ele>
        <time>2022-04-10T09:08:07Z</time>
      </trkpt>
      <trkpt lat="46.092688031494617" lon="8.833920182660222">
        <ele>799.05999999999995</ele>
        <time>2022-04-10T09:08:23Z</time>
      </trkpt>
      <trkpt lat="46.09264075756073" lon="8.833890175446868">
        <ele>799.20000000000005</ele>
        <time>2022-04-10T09:08:28Z</time>
      </trkpt>
      <trkpt lat="46.092536486685276" lon="8.833828903734684">
        <ele>800.08000000000004</ele>
        <time>2022-04-10T09:08:40Z</time>
      </trkpt>
      <trkpt lat="46.092462223023176" lon="8.833816079422832">
        <ele>800.77999999999997</ele>
        <time>2022-04-10T09:08:54Z</time>
      </trkpt>
      <trkpt lat="46.09237203374505" lon="8.833789005875588">
        <ele>800.02999999999997</ele>
        <time>2022-04-10T09:09:08Z</time>
      </trkpt>
      <trkpt lat="46.092267343774438" lon="8.833748605102301">
        <ele>798.02999999999997</ele>
        <time>2022-04-10T09:09:19Z</time>
      </trkpt>
      <trkpt lat="46.092186290770769" lon="8.833769392222166">
        <ele>796.35000000000002</ele>
        <time>2022-04-10T09:09:30Z</time>
      </trkpt>
      <trkpt lat="46.092122672125697" lon="8.833892019465566">
        <ele>793.89999999999998</ele>
        <time>2022-04-10T09:09:42Z</time>
      </trkpt>
      <trkpt lat="46.092100627720356" lon="8.833919344469905">
        <ele>793.41999999999996</ele>
        <time>2022-04-10T09:09:45Z</time>
      </trkpt>
      <trkpt lat="46.09205536544323" lon="8.833963433280587">
        <ele>792.47000000000003</ele>
        <time>2022-04-10T09:09:50Z</time>
      </trkpt>
      <trkpt lat="46.091996943578124" lon="8.834046749398112">
        <ele>792.07000000000005</ele>
        <time>2022-04-10T09:09:58Z</time>
      </trkpt>
      <trkpt lat="46.091935252770782" lon="8.834098549559712">
        <ele>789.94000000000005</ele>
        <time>2022-04-10T09:10:06Z</time>
      </trkpt>
      <trkpt lat="46.091868532821536" lon="8.83419812656939">
        <ele>787.74000000000001</ele>
        <time>2022-04-10T09:10:15Z</time>
      </trkpt>
      <trkpt lat="46.091781193390489" lon="8.834280101582408">
        <ele>786.77999999999997</ele>
        <time>2022-04-10T09:10:24Z</time>
      </trkpt>
      <trkpt lat="46.091742133721709" lon="8.834358220919967">
        <ele>785.28999999999996</ele>
        <time>2022-04-10T09:10:32Z</time>
      </trkpt>
      <trkpt lat="46.091726962476969" lon="8.834366351366043">
        <ele>784.91999999999996</ele>
        <time>2022-04-10T09:10:34Z</time>
      </trkpt>
      <trkpt lat="46.091650938615203" lon="8.834318239241839">
        <ele>784.65999999999997</ele>
        <time>2022-04-10T09:10:43Z</time>
      </trkpt>
      <trkpt lat="46.091617327183485" lon="8.834250010550022">
        <ele>784.91999999999996</ele>
        <time>2022-04-10T09:10:57Z</time>
      </trkpt>
      <trkpt lat="46.091568041592836" lon="8.83422645740211">
        <ele>784.32000000000005</ele>
        <time>2022-04-10T09:11:02Z</time>
      </trkpt>
      <trkpt lat="46.091449856758118" lon="8.834172980859876">
        <ele>784.98000000000002</ele>
        <time>2022-04-10T09:11:12Z</time>
      </trkpt>
      <trkpt lat="46.091364696621895" lon="8.834047168493271">
        <ele>784.83000000000004</ele>
        <time>2022-04-10T09:11:23Z</time>
      </trkpt>
      <trkpt lat="46.091261934489012" lon="8.833979107439518">
        <ele>784.58000000000004</ele>
        <time>2022-04-10T09:11:38Z</time>
      </trkpt>
      <trkpt lat="46.091199154034257" lon="8.833990003913641">
        <ele>783.55999999999995</ele>
        <time>2022-04-10T09:11:57Z</time>
      </trkpt>
      <trkpt lat="46.091123884543777" lon="8.833974665030837">
        <ele>783.66999999999996</ele>
        <time>2022-04-10T09:12:11Z</time>
      </trkpt>
      <trkpt lat="46.091093458235264" lon="8.833922110497952">
        <ele>783.12</ele>
        <time>2022-04-10T09:12:23Z</time>
      </trkpt>
      <trkpt lat="46.091131092980504" lon="8.833969552069902">
        <ele>783.19000000000005</ele>
        <time>2022-04-10T09:12:41Z</time>
      </trkpt>
      <trkpt lat="46.091066971421242" lon="8.833888834342361">
        <ele>782.91999999999996</ele>
        <time>2022-04-10T09:12:50Z</time>
      </trkpt>
      <trkpt lat="46.091004610061646" lon="8.833875674754381">
        <ele>782.82000000000005</ele>
        <time>2022-04-10T09:12:58Z</time>
      </trkpt>
      <trkpt lat="46.090914504602551" lon="8.833864275366068">
        <ele>781.07000000000005</ele>
        <time>2022-04-10T09:13:06Z</time>
      </trkpt>
      <trkpt lat="46.090873768553138" lon="8.833858575671911">
        <ele>779.99000000000001</ele>
        <time>2022-04-10T09:13:09Z</time>
      </trkpt>
      <trkpt lat="46.090778466314077" lon="8.833848349750042">
        <ele>779.29999999999995</ele>
        <time>2022-04-10T09:13:17Z</time>
      </trkpt>
      <trkpt lat="46.090712836012244" lon="8.833835106343031">
        <ele>779.92999999999995</ele>
        <time>2022-04-10T09:13:24Z</time>
      </trkpt>
      <trkpt lat="46.090665645897388" lon="8.833824545145035">
        <ele>781.33000000000004</ele>
        <time>2022-04-10T09:13:31Z</time>
      </trkpt>
      <trkpt lat="46.090640500187874" lon="8.833828736096621">
        <ele>781.15999999999997</ele>
        <time>2022-04-10T09:13:33Z</time>
      </trkpt>
      <trkpt lat="46.090595573186874" lon="8.833810798823834">
        <ele>781.12</ele>
        <time>2022-04-10T09:13:37Z</time>
      </trkpt>
      <trkpt lat="46.090510999783874" lon="8.833719100803137">
        <ele>781.60000000000002</ele>
        <time>2022-04-10T09:13:46Z</time>
      </trkpt>
      <trkpt lat="46.090458109974861" lon="8.833695212379098">
        <ele>781.76999999999998</ele>
        <time>2022-04-10T09:13:51Z</time>
      </trkpt>
      <trkpt lat="46.090440340340137" lon="8.833684651181102">
        <ele>782.02999999999997</ele>
        <time>2022-04-10T09:13:53Z</time>
      </trkpt>
      <trkpt lat="46.090381834656" lon="8.833690267056227">
        <ele>783.16999999999996</ele>
        <time>2022-04-10T09:14:07Z</time>
      </trkpt>
      <trkpt lat="46.090426761657" lon="8.833661517128348">
        <ele>785.35000000000002</ele>
        <time>2022-04-10T09:14:19Z</time>
      </trkpt>
      <trkpt lat="46.090424414724112" lon="8.833573758602142">
        <ele>787.57000000000005</ele>
        <time>2022-04-10T09:14:34Z</time>
      </trkpt>
      <trkpt lat="46.090369932353497" lon="8.833565125241876">
        <ele>789.23000000000002</ele>
        <time>2022-04-10T09:14:50Z</time>
      </trkpt>
      <trkpt lat="46.090342104434967" lon="8.833616254851222">
        <ele>789.42999999999995</ele>
        <time>2022-04-10T09:15:05Z</time>
      </trkpt>
      <trkpt lat="46.090332549065351" lon="8.833619607612491">
        <ele>790.09000000000003</ele>
        <time>2022-04-10T09:15:21Z</time>
      </trkpt>
      <trkpt lat="46.09031293541193" lon="8.833634527400136">
        <ele>791.38999999999999</ele>
        <time>2022-04-10T09:15:31Z</time>
      </trkpt>
      <trkpt lat="46.090314527973533" lon="8.833618853241205">
        <ele>791.88999999999999</ele>
        <time>2022-04-10T09:15:47Z</time>
      </trkpt>
      <trkpt lat="46.090361131355166" lon="8.833604604005814">
        <ele>793.69000000000005</ele>
        <time>2022-04-10T09:16:00Z</time>
      </trkpt>
      <trkpt lat="46.090325508266687" lon="8.833544086664915">
        <ele>794.80999999999995</ele>
        <time>2022-04-10T09:16:15Z</time>
      </trkpt>
      <trkpt lat="46.090321065858006" lon="8.833539644256234">
        <ele>794.75</ele>
        <time>2022-04-10T09:16:17Z</time>
      </trkpt>
      <trkpt lat="46.0902747977525" lon="8.833549786359072">
        <ele>796.24000000000001</ele>
        <time>2022-04-10T09:16:34Z</time>
      </trkpt>
      <trkpt lat="46.090260213240981" lon="8.833505529910326">
        <ele>798.84000000000003</ele>
        <time>2022-04-10T09:16:48Z</time>
      </trkpt>
      <trkpt lat="46.090278988704085" lon="8.833550456911326">
        <ele>800.08000000000004</ele>
        <time>2022-04-10T09:17:01Z</time>
      </trkpt>
      <trkpt lat="46.090229619294405" lon="8.833585996180773">
        <ele>802.10000000000002</ele>
        <time>2022-04-10T09:17:10Z</time>
      </trkpt>
      <trkpt lat="46.090226098895073" lon="8.833606448024511">
        <ele>802.53999999999996</ele>
        <time>2022-04-10T09:17:12Z</time>
      </trkpt>
      <trkpt lat="46.090205563232303" lon="8.833531681448221">
        <ele>803.92999999999995</ele>
        <time>2022-04-10T09:17:27Z</time>
      </trkpt>
      <trkpt lat="46.090197097510099" lon="8.833455992862582">
        <ele>805.91999999999996</ele>
        <time>2022-04-10T09:17:41Z</time>
      </trkpt>
      <trkpt lat="46.090116379782557" lon="8.833505110815167">
        <ele>808.50999999999999</ele>
        <time>2022-04-10T09:17:56Z</time>
      </trkpt>
      <trkpt lat="46.090053264051676" lon="8.833471247926354">
        <ele>810.44000000000005</ele>
        <time>2022-04-10T09:18:09Z</time>
      </trkpt>
      <trkpt lat="46.090014455839992" lon="8.833459261804819">
        <ele>812.73000000000002</ele>
        <time>2022-04-10T09:18:25Z</time>
      </trkpt>
      <trkpt lat="46.089949579909444" lon="8.833457753062248">
        <ele>815.29999999999995</ele>
        <time>2022-04-10T09:18:41Z</time>
      </trkpt>
      <trkpt lat="46.089992830529809" lon="8.833382651209831">
        <ele>817.79999999999995</ele>
        <time>2022-04-10T09:18:56Z</time>
      </trkpt>
      <trkpt lat="46.090013030916452" lon="8.833286259323359">
        <ele>820.57000000000005</ele>
        <time>2022-04-10T09:19:13Z</time>
      </trkpt>
      <trkpt lat="46.090010516345501" lon="8.833196153864265">
        <ele>822.51999999999998</ele>
        <time>2022-04-10T09:19:27Z</time>
      </trkpt>
      <trkpt lat="46.089962404221296" lon="8.833229681476951">
        <ele>824.46000000000004</ele>
        <time>2022-04-10T09:19:39Z</time>
      </trkpt>
      <trkpt lat="46.089972546324134" lon="8.833228508010507">
        <ele>826.26999999999998</ele>
        <time>2022-04-10T09:19:55Z</time>
      </trkpt>
      <trkpt lat="46.08998067677021" lon="8.833136055618525">
        <ele>828.63</ele>
        <time>2022-04-10T09:20:11Z</time>
      </trkpt>
      <trkpt lat="46.090008337050676" lon="8.833069168031216">
        <ele>830.71000000000004</ele>
        <time>2022-04-10T09:20:26Z</time>
      </trkpt>
      <trkpt lat="46.090090898796916" lon="8.833031952381134">
        <ele>831.85000000000002</ele>
        <time>2022-04-10T09:20:42Z</time>
      </trkpt>
      <trkpt lat="46.090094419196248" lon="8.83300974033773">
        <ele>833.73000000000002</ele>
        <time>2022-04-10T09:20:57Z</time>
      </trkpt>
      <trkpt lat="46.090068267658353" lon="8.833004543557763">
        <ele>836.60000000000002</ele>
        <time>2022-04-10T09:21:15Z</time>
      </trkpt>
      <trkpt lat="46.090118223801255" lon="8.832966992631555">
        <ele>838.19000000000005</ele>
        <time>2022-04-10T09:21:29Z</time>
      </trkpt>
      <trkpt lat="46.090182429179549" lon="8.832945199683309">
        <ele>840.32000000000005</ele>
        <time>2022-04-10T09:21:43Z</time>
      </trkpt>
      <trkpt lat="46.090249987319112" lon="8.832946121692658">
        <ele>842.49000000000001</ele>
        <time>2022-04-10T09:21:57Z</time>
      </trkpt>
      <trkpt lat="46.090329112485051" lon="8.832956599071622">
        <ele>844.22000000000003</ele>
        <time>2022-04-10T09:22:10Z</time>
      </trkpt>
      <trkpt lat="46.090360376983881" lon="8.832905972376466">
        <ele>846.27999999999997</ele>
        <time>2022-04-10T09:22:24Z</time>
      </trkpt>
      <trkpt lat="46.090431204065681" lon="8.832893064245582">
        <ele>848.58000000000004</ele>
        <time>2022-04-10T09:22:40Z</time>
      </trkpt>
      <trkpt lat="46.090487195178866" lon="8.832854004576802">
        <ele>851.00999999999999</ele>
        <time>2022-04-10T09:22:55Z</time>
      </trkpt>
      <trkpt lat="46.090539917349815" lon="8.832844281569123">
        <ele>852.63999999999999</ele>
        <time>2022-04-10T09:23:09Z</time>
      </trkpt>
      <trkpt lat="46.090544611215591" lon="8.83283631876111">
        <ele>851.80999999999995</ele>
        <time>2022-04-10T09:23:21Z</time>
      </trkpt>
      <trkpt lat="46.090537821874022" lon="8.832825422286987">
        <ele>852.01999999999998</ele>
        <time>2022-04-10T09:23:41Z</time>
      </trkpt>
      <trkpt lat="46.090534469112754" lon="8.832840342074633">
        <ele>851.24000000000001</ele>
        <time>2022-04-10T09:24:11Z</time>
      </trkpt>
      <trkpt lat="46.090536648407578" lon="8.8328558485955">
        <ele>851.13999999999999</ele>
        <time>2022-04-10T09:24:29Z</time>
      </trkpt>
      <trkpt lat="46.090521309524775" lon="8.832896584644914">
        <ele>851.24000000000001</ele>
        <time>2022-04-10T09:24:58Z</time>
      </trkpt>
      <trkpt lat="46.090512508526444" lon="8.83288124576211">
        <ele>851.12</ele>
        <time>2022-04-10T09:25:27Z</time>
      </trkpt>
      <trkpt lat="46.090522482991219" lon="8.832888454198837">
        <ele>851.16999999999996</ele>
        <time>2022-04-10T09:25:56Z</time>
      </trkpt>
      <trkpt lat="46.09055575914681" lon="8.832917455583811">
        <ele>852.12</ele>
        <time>2022-04-10T09:26:21Z</time>
      </trkpt>
      <trkpt lat="46.09055919572711" lon="8.832881581038237">
        <ele>850.96000000000004</ele>
        <time>2022-04-10T09:26:52Z</time>
      </trkpt>
      <trkpt lat="46.090555172413588" lon="8.832864733412862">
        <ele>850.75</ele>
        <time>2022-04-10T09:27:14Z</time>
      </trkpt>
      <trkpt lat="46.090561542659998" lon="8.832837073132396">
        <ele>850.71000000000004</ele>
        <time>2022-04-10T09:27:28Z</time>
      </trkpt>
      <trkpt lat="46.09051913022995" lon="8.832841264083982">
        <ele>850.91999999999996</ele>
        <time>2022-04-10T09:27:41Z</time>
      </trkpt>
      <trkpt lat="46.09051032923162" lon="8.832834139466286">
        <ele>850.98000000000002</ele>
        <time>2022-04-10T09:27:48Z</time>
      </trkpt>
      <trkpt lat="46.090523321181536" lon="8.83287051692605">
        <ele>851.04999999999995</ele>
        <time>2022-04-10T09:27:55Z</time>
      </trkpt>
      <trkpt lat="46.090518794953823" lon="8.832867667078972">
        <ele>851.03999999999996</ele>
        <time>2022-04-10T09:28:06Z</time>
      </trkpt>
      <trkpt lat="46.090522818267345" lon="8.8328851852566">
        <ele>851</ele>
        <time>2022-04-10T09:28:37Z</time>
      </trkpt>
      <trkpt lat="46.090519716963172" lon="8.832887029275298">
        <ele>850.73000000000002</ele>
        <time>2022-04-10T09:28:55Z</time>
      </trkpt>
      <trkpt lat="46.090528937056661" lon="8.832893818616867">
        <ele>850.97000000000003</ele>
        <time>2022-04-10T09:29:00Z</time>
      </trkpt>
      <trkpt lat="46.090538576245308" lon="8.832882754504681">
        <ele>851.12</ele>
        <time>2022-04-10T09:29:09Z</time>
      </trkpt>
      <trkpt lat="46.090569337829947" lon="8.832913683727384">
        <ele>850.89999999999998</ele>
        <time>2022-04-10T09:29:43Z</time>
      </trkpt>
      <trkpt lat="46.090561794117093" lon="8.832896584644914">
        <ele>850.96000000000004</ele>
        <time>2022-04-10T09:30:09Z</time>
      </trkpt>
      <trkpt lat="46.09058752655983" lon="8.83289054967463">
        <ele>850.88</ele>
        <time>2022-04-10T09:30:20Z</time>
      </trkpt>
      <trkpt lat="46.090587107464671" lon="8.832897087559104">
        <ele>851.91999999999996</ele>
        <time>2022-04-10T09:30:36Z</time>
      </trkpt>
      <trkpt lat="46.090571265667677" lon="8.832880072295666">
        <ele>852.25999999999999</ele>
        <time>2022-04-10T09:30:52Z</time>
      </trkpt>
      <trkpt lat="46.090575624257326" lon="8.832878395915031">
        <ele>851.71000000000004</ele>
        <time>2022-04-10T09:30:57Z</time>
      </trkpt>
      <trkpt lat="46.090558860450983" lon="8.832862051203847">
        <ele>852.11000000000001</ele>
        <time>2022-04-10T09:31:06Z</time>
      </trkpt>
      <trkpt lat="46.090546455234289" lon="8.832852663472295">
        <ele>851.97000000000003</ele>
        <time>2022-04-10T09:31:20Z</time>
      </trkpt>
      <trkpt lat="46.090546539053321" lon="8.832848137244582">
        <ele>851.75999999999999</ele>
        <time>2022-04-10T09:31:46Z</time>
      </trkpt>
      <trkpt lat="46.090562045574188" lon="8.8328524120152">
        <ele>851.39999999999998</ele>
        <time>2022-04-10T09:32:05Z</time>
      </trkpt>
      <trkpt lat="46.09056020155549" lon="8.832823326811194">
        <ele>851.38999999999999</ele>
        <time>2022-04-10T09:32:15Z</time>
      </trkpt>
      <trkpt lat="46.090581994503736" lon="8.832802455872297">
        <ele>852.85000000000002</ele>
        <time>2022-04-10T09:32:20Z</time>
      </trkpt>
      <trkpt lat="46.090563386678696" lon="8.832757445052266">
        <ele>855.13</ele>
        <time>2022-04-10T09:32:34Z</time>
      </trkpt>
      <trkpt lat="46.090543605387211" lon="8.832743614912033">
        <ele>856.10000000000002</ele>
        <time>2022-04-10T09:32:39Z</time>
      </trkpt>
      <trkpt lat="46.090461546555161" lon="8.832691563293338">
        <ele>858.08000000000004</ele>
        <time>2022-04-10T09:32:50Z</time>
      </trkpt>
      <trkpt lat="46.090370267629623" lon="8.832631800323725">
        <ele>860.47000000000003</ele>
        <time>2022-04-10T09:33:05Z</time>
      </trkpt>
      <trkpt lat="46.090322742238641" lon="8.832624927163124">
        <ele>862.39999999999998</ele>
        <time>2022-04-10T09:33:19Z</time>
      </trkpt>
      <trkpt lat="46.090293824672699" lon="8.832617467269301">
        <ele>863.07000000000005</ele>
        <time>2022-04-10T09:33:23Z</time>
      </trkpt>
      <trkpt lat="46.090254262089729" lon="8.832615287974477">
        <ele>863.88</ele>
        <time>2022-04-10T09:33:29Z</time>
      </trkpt>
      <trkpt lat="46.090204808861017" lon="8.832599278539419">
        <ele>865.61000000000001</ele>
        <time>2022-04-10T09:33:43Z</time>
      </trkpt>
      <trkpt lat="46.090088468044996" lon="8.832549322396517">
        <ele>868.15999999999997</ele>
        <time>2022-04-10T09:33:59Z</time>
      </trkpt>
      <trkpt lat="46.089995428919792" lon="8.832529708743095">
        <ele>869.53999999999996</ele>
        <time>2022-04-10T09:34:10Z</time>
      </trkpt>
      <trkpt lat="46.089909598231316" lon="8.832481093704701">
        <ele>870.25</ele>
        <time>2022-04-10T09:34:16Z</time>
      </trkpt>
      <trkpt lat="46.089872214943171" lon="8.832485871389508">
        <ele>871.10000000000002</ele>
        <time>2022-04-10T09:34:21Z</time>
      </trkpt>
      <trkpt lat="46.089829802513123" lon="8.832473214715719">
        <ele>871.75999999999999</ele>
        <time>2022-04-10T09:34:26Z</time>
      </trkpt>
      <trkpt lat="46.089780684560537" lon="8.832475729286671">
        <ele>872.39999999999998</ele>
        <time>2022-04-10T09:34:31Z</time>
      </trkpt>
      <trkpt lat="46.089703487232327" lon="8.832482183352113">
        <ele>874.27999999999997</ele>
        <time>2022-04-10T09:34:43Z</time>
      </trkpt>
      <trkpt lat="46.089625619351864" lon="8.832474639639258">
        <ele>874.25</ele>
        <time>2022-04-10T09:34:58Z</time>
      </trkpt>
      <trkpt lat="46.089613968506455" lon="8.832476735115051">
        <ele>873.50999999999999</ele>
        <time>2022-04-10T09:35:00Z</time>
      </trkpt>
      <trkpt lat="46.089512966573238" lon="8.832470113411546">
        <ele>872.75</ele>
        <time>2022-04-10T09:35:12Z</time>
      </trkpt>
      <trkpt lat="46.089447671547532" lon="8.832586370408535">
        <ele>874.96000000000004</ele>
        <time>2022-04-10T09:35:27Z</time>
      </trkpt>
      <trkpt lat="46.089403498917818" lon="8.832649989053607">
        <ele>877.99000000000001</ele>
        <time>2022-04-10T09:35:39Z</time>
      </trkpt>
      <trkpt lat="46.089316075667739" lon="8.832682175561786">
        <ele>878.70000000000005</ele>
        <time>2022-04-10T09:35:53Z</time>
      </trkpt>
      <trkpt lat="46.089221024885774" lon="8.832690138369799">
        <ele>881.00999999999999</ele>
        <time>2022-04-10T09:36:10Z</time>
      </trkpt>
      <trkpt lat="46.089128404855728" lon="8.832696089521051">
        <ele>883.26999999999998</ele>
        <time>2022-04-10T09:36:23Z</time>
      </trkpt>
      <trkpt lat="46.089049950242043" lon="8.832682091742754">
        <ele>885.63999999999999</ele>
        <time>2022-04-10T09:36:36Z</time>
      </trkpt>
      <trkpt lat="46.089063361287117" lon="8.832600871101022">
        <ele>888.19000000000005</ele>
        <time>2022-04-10T09:36:50Z</time>
      </trkpt>
      <trkpt lat="46.089122872799635" lon="8.832554267719388">
        <ele>890.70000000000005</ele>
        <time>2022-04-10T09:37:07Z</time>
      </trkpt>
      <trkpt lat="46.089122118428349" lon="8.832532810047269">
        <ele>892.95000000000005</ele>
        <time>2022-04-10T09:37:23Z</time>
      </trkpt>
      <trkpt lat="46.089116586372256" lon="8.832528870552778">
        <ele>894.40999999999997</ele>
        <time>2022-04-10T09:37:38Z</time>
      </trkpt>
      <trkpt lat="46.089125890284777" lon="8.832495175302029">
        <ele>896.44000000000005</ele>
        <time>2022-04-10T09:37:52Z</time>
      </trkpt>
      <trkpt lat="46.089047687128186" lon="8.832485033199191">
        <ele>898.88</ele>
        <time>2022-04-10T09:38:06Z</time>
      </trkpt>
      <trkpt lat="46.089106360450387" lon="8.832424348220229">
        <ele>901.04999999999995</ele>
        <time>2022-04-10T09:38:21Z</time>
      </trkpt>
      <trkpt lat="46.089200237765908" lon="8.832339942455292">
        <ele>903.71000000000004</ele>
        <time>2022-04-10T09:38:39Z</time>
      </trkpt>
      <trkpt lat="46.089273244142532" lon="8.832273306325078">
        <ele>905.64999999999998</ele>
        <time>2022-04-10T09:38:55Z</time>
      </trkpt>
      <trkpt lat="46.089381203055382" lon="8.832255033776164">
        <ele>907.46000000000004</ele>
        <time>2022-04-10T09:39:10Z</time>
      </trkpt>
      <trkpt lat="46.089467452839017" lon="8.832211028784514">
        <ele>909.47000000000003</ele>
        <time>2022-04-10T09:39:22Z</time>
      </trkpt>
      <trkpt lat="46.089554792270064" lon="8.832147493958473">
        <ele>911.5</ele>
        <time>2022-04-10T09:39:37Z</time>
      </trkpt>
      <trkpt lat="46.089607598260045" lon="8.832076415419579">
        <ele>913.15999999999997</ele>
        <time>2022-04-10T09:39:50Z</time>
      </trkpt>
      <trkpt lat="46.089628217741847" lon="8.832066776230931">
        <ele>913.61000000000001</ele>
        <time>2022-04-10T09:40:00Z</time>
      </trkpt>
      <trkpt lat="46.089614974334836" lon="8.832015814259648">
        <ele>913.13</ele>
        <time>2022-04-10T09:40:13Z</time>
      </trkpt>
      <trkpt lat="46.089605251327157" lon="8.832010198384523">
        <ele>913.14999999999998</ele>
        <time>2022-04-10T09:40:25Z</time>
      </trkpt>
      <trkpt lat="46.089612208306789" lon="8.83201296441257">
        <ele>913.12</ele>
        <time>2022-04-10T09:40:44Z</time>
      </trkpt>
      <trkpt lat="46.089639449492097" lon="8.832003911957145">
        <ele>913.38</ele>
        <time>2022-04-10T09:40:57Z</time>
      </trkpt>
      <trkpt lat="46.08963031321764" lon="8.83203249424696">
        <ele>912.75999999999999</ele>
        <time>2022-04-10T09:41:06Z</time>
      </trkpt>
      <trkpt lat="46.089640287682414" lon="8.832025621086359">
        <ele>912.50999999999999</ele>
        <time>2022-04-10T09:41:27Z</time>
      </trkpt>
      <trkpt lat="46.089651687070727" lon="8.832032745704055">
        <ele>912.63</ele>
        <time>2022-04-10T09:41:53Z</time>
      </trkpt>
      <trkpt lat="46.089656967669725" lon="8.832015730440617">
        <ele>913.13</ele>
        <time>2022-04-10T09:42:06Z</time>
      </trkpt>
      <trkpt lat="46.089635593816638" lon="8.832018496468663">
        <ele>913.25</ele>
        <time>2022-04-10T09:42:20Z</time>
      </trkpt>
      <trkpt lat="46.089662918820977" lon="8.832007432356477">
        <ele>913.07000000000005</ele>
        <time>2022-04-10T09:42:41Z</time>
      </trkpt>
      <trkpt lat="46.089660823345184" lon="8.832003073766828">
        <ele>912.98000000000002</ele>
        <time>2022-04-10T09:42:59Z</time>
      </trkpt>
      <trkpt lat="46.089634587988257" lon="8.832056298851967">
        <ele>913.01999999999998</ele>
        <time>2022-04-10T09:43:13Z</time>
      </trkpt>
      <trkpt lat="46.089601228013635" lon="8.832071470096707">
        <ele>912.99000000000001</ele>
        <time>2022-04-10T09:43:26Z</time>
      </trkpt>
      <trkpt lat="46.089602904394269" lon="8.832034254446626">
        <ele>912.59000000000003</ele>
        <time>2022-04-10T09:43:42Z</time>
      </trkpt>
      <trkpt lat="46.089592007920146" lon="8.832063172012568">
        <ele>912.97000000000003</ele>
        <time>2022-04-10T09:43:56Z</time>
      </trkpt>
      <trkpt lat="46.089594354853034" lon="8.832056634128094">
        <ele>912.95000000000005</ele>
        <time>2022-04-10T09:44:11Z</time>
      </trkpt>
      <trkpt lat="46.089573819190264" lon="8.832049341872335">
        <ele>912.61000000000001</ele>
        <time>2022-04-10T09:44:35Z</time>
      </trkpt>
      <trkpt lat="46.089557390660048" lon="8.832041127607226">
        <ele>913.24000000000001</ele>
        <time>2022-04-10T09:44:58Z</time>
      </trkpt>
      <trkpt lat="46.089524701237679" lon="8.832038613036275">
        <ele>913.53999999999996</ele>
        <time>2022-04-10T09:45:03Z</time>
      </trkpt>
      <trkpt lat="46.089445659890771" lon="8.832066273316741">
        <ele>913.82000000000005</ele>
        <time>2022-04-10T09:45:15Z</time>
      </trkpt>
      <trkpt lat="46.089380364865065" lon="8.832074990496039">
        <ele>914.42999999999995</ele>
        <time>2022-04-10T09:45:28Z</time>
      </trkpt>
      <trkpt lat="46.089297467842698" lon="8.832105919718742">
        <ele>915.92999999999995</ele>
        <time>2022-04-10T09:45:40Z</time>
      </trkpt>
      <trkpt lat="46.089239381253719" lon="8.832078846171498">
        <ele>918.28999999999996</ele>
        <time>2022-04-10T09:45:55Z</time>
      </trkpt>
      <trkpt lat="46.089197052642703" lon="8.832011874765158">
        <ele>918.91999999999996</ele>
        <time>2022-04-10T09:46:10Z</time>
      </trkpt>
      <trkpt lat="46.089161345735192" lon="8.831987148150802">
        <ele>920.77999999999997</ele>
        <time>2022-04-10T09:46:19Z</time>
      </trkpt>
      <trkpt lat="46.089060176163912" lon="8.831946244463325">
        <ele>923.83000000000004</ele>
        <time>2022-04-10T09:46:34Z</time>
      </trkpt>
      <trkpt lat="46.088939979672432" lon="8.831897461786866">
        <ele>926.95000000000005</ele>
        <time>2022-04-10T09:46:50Z</time>
      </trkpt>
      <trkpt lat="46.088843839243054" lon="8.831864604726434">
        <ele>929.76999999999998</ele>
        <time>2022-04-10T09:47:04Z</time>
      </trkpt>
      <trkpt lat="46.088794637471437" lon="8.831842979416251">
        <ele>931.87</ele>
        <time>2022-04-10T09:47:17Z</time>
      </trkpt>
      <trkpt lat="46.088665723800659" lon="8.831797046586871">
        <ele>934.52999999999997</ele>
        <time>2022-04-10T09:47:32Z</time>
      </trkpt>
      <trkpt lat="46.088572349399328" lon="8.831802159547806">
        <ele>936.75999999999999</ele>
        <time>2022-04-10T09:47:48Z</time>
      </trkpt>
      <trkpt lat="46.088475370779634" lon="8.831889498978853">
        <ele>939.15999999999997</ele>
        <time>2022-04-10T09:48:05Z</time>
      </trkpt>
      <trkpt lat="46.088379733264446" lon="8.831912046298385">
        <ele>941.35000000000002</ele>
        <time>2022-04-10T09:48:21Z</time>
      </trkpt>
      <trkpt lat="46.088322484865785" lon="8.831910621374846">
        <ele>943.00999999999999</ele>
        <time>2022-04-10T09:48:38Z</time>
      </trkpt>
      <trkpt lat="46.088339751586318" lon="8.831946412101388">
        <ele>943.30999999999995</ele>
        <time>2022-04-10T09:49:02Z</time>
      </trkpt>
      <trkpt lat="46.088333632797003" lon="8.831949848681688">
        <ele>943.83000000000004</ele>
        <time>2022-04-10T09:49:18Z</time>
      </trkpt>
      <trkpt lat="46.088251573964953" lon="8.831910705193877">
        <ele>946.66999999999996</ele>
        <time>2022-04-10T09:49:33Z</time>
      </trkpt>
      <trkpt lat="46.088157529011369" lon="8.831815738230944">
        <ele>949.20000000000005</ele>
        <time>2022-04-10T09:49:49Z</time>
      </trkpt>
      <trkpt lat="46.088070692494512" lon="8.831877345219255">
        <ele>951.57000000000005</ele>
        <time>2022-04-10T09:50:04Z</time>
      </trkpt>
      <trkpt lat="46.088012522086501" lon="8.831916572526097">
        <ele>954.42999999999995</ele>
        <time>2022-04-10T09:50:22Z</time>
      </trkpt>
      <trkpt lat="46.087998691946268" lon="8.831852031871676">
        <ele>954.89999999999998</ele>
        <time>2022-04-10T09:50:40Z</time>
      </trkpt>
      <trkpt lat="46.087980503216386" lon="8.83179159834981">
        <ele>956.32000000000005</ele>
        <time>2022-04-10T09:50:58Z</time>
      </trkpt>
      <trkpt lat="46.087942700833082" lon="8.83184339851141">
        <ele>958.96000000000004</ele>
        <time>2022-04-10T09:51:15Z</time>
      </trkpt>
      <trkpt lat="46.087920656427741" lon="8.831846667453647">
        <ele>961.63999999999999</ele>
        <time>2022-04-10T09:51:30Z</time>
      </trkpt>
      <trkpt lat="46.087883021682501" lon="8.831873489543796">
        <ele>963.75</ele>
        <time>2022-04-10T09:51:46Z</time>
      </trkpt>
      <trkpt lat="46.087868437170982" lon="8.83191330358386">
        <ele>965.39999999999998</ele>
        <time>2022-04-10T09:52:02Z</time>
      </trkpt>
      <trkpt lat="46.087812529876828" lon="8.831942221149802">
        <ele>967.49000000000001</ele>
        <time>2022-04-10T09:52:19Z</time>
      </trkpt>
      <trkpt lat="46.087745726108551" lon="8.831873489543796">
        <ele>970.14999999999998</ele>
        <time>2022-04-10T09:52:35Z</time>
      </trkpt>
      <trkpt lat="46.087724519893527" lon="8.83194993250072">
        <ele>971.99000000000001</ele>
        <time>2022-04-10T09:52:49Z</time>
      </trkpt>
      <trkpt lat="46.087674982845783" lon="8.832026878371835">
        <ele>974.5</ele>
        <time>2022-04-10T09:53:05Z</time>
      </trkpt>
      <trkpt lat="46.087620751932263" lon="8.83195873349905">
        <ele>976.55999999999995</ele>
        <time>2022-04-10T09:53:21Z</time>
      </trkpt>
      <trkpt lat="46.087573729455471" lon="8.831950267776847">
        <ele>977.77999999999997</ele>
        <time>2022-04-10T09:53:35Z</time>
      </trkpt>
      <trkpt lat="46.087528048083186" lon="8.831957308575511">
        <ele>980.25999999999999</ele>
        <time>2022-04-10T09:53:51Z</time>
      </trkpt>
      <trkpt lat="46.087480774149299" lon="8.831935850903392">
        <ele>982.47000000000003</ele>
        <time>2022-04-10T09:54:06Z</time>
      </trkpt>
      <trkpt lat="46.087445570155978" lon="8.831911878660321">
        <ele>983.57000000000005</ele>
        <time>2022-04-10T09:54:25Z</time>
      </trkpt>
      <trkpt lat="46.087438613176346" lon="8.831879273056984">
        <ele>983.26999999999998</ele>
        <time>2022-04-10T09:54:49Z</time>
      </trkpt>
      <trkpt lat="46.087372815236449" lon="8.831827556714416">
        <ele>986.13</ele>
        <time>2022-04-10T09:55:05Z</time>
      </trkpt>
      <trkpt lat="46.087337359786034" lon="8.831730578094721">
        <ele>989.10000000000002</ele>
        <time>2022-04-10T09:55:21Z</time>
      </trkpt>
      <trkpt lat="46.087321517989039" lon="8.831771900877357">
        <ele>991.46000000000004</ele>
        <time>2022-04-10T09:55:36Z</time>
      </trkpt>
      <trkpt lat="46.087278015911579" lon="8.831841303035617">
        <ele>993.20000000000005</ele>
        <time>2022-04-10T09:55:50Z</time>
      </trkpt>
      <trkpt lat="46.087228897958994" lon="8.831838788464665">
        <ele>995.89999999999998</ele>
        <time>2022-04-10T09:56:07Z</time>
      </trkpt>
      <trkpt lat="46.087193442508578" lon="8.83185169659555">
        <ele>997.66999999999996</ele>
        <time>2022-04-10T09:56:25Z</time>
      </trkpt>
      <trkpt lat="46.087189000099897" lon="8.831836609169841">
        <ele>997</ele>
        <time>2022-04-10T09:56:42Z</time>
      </trkpt>
      <trkpt lat="46.08718765899539" lon="8.831846248358488">
        <ele>997.92999999999995</ele>
        <time>2022-04-10T09:57:09Z</time>
      </trkpt>
      <trkpt lat="46.087178271263838" lon="8.83181749843061">
        <ele>997.70000000000005</ele>
        <time>2022-04-10T09:57:25Z</time>
      </trkpt>
      <trkpt lat="46.087146839126945" lon="8.831793442368507">
        <ele>998.22000000000003</ele>
        <time>2022-04-10T09:57:46Z</time>
      </trkpt>
      <trkpt lat="46.087151784449816" lon="8.831783886998892">
        <ele>998</ele>
        <time>2022-04-10T09:58:04Z</time>
      </trkpt>
      <trkpt lat="46.087136277928948" lon="8.831708114594221">
        <ele>999.98000000000002</ele>
        <time>2022-04-10T09:58:19Z</time>
      </trkpt>
      <trkpt lat="46.087084645405412" lon="8.831671569496393">
        <ele>1002.2</ele>
        <time>2022-04-10T09:58:34Z</time>
      </trkpt>
      <trkpt lat="46.087029241025448" lon="8.831694703549147">
        <ele>1005.26</ele>
        <time>2022-04-10T09:58:48Z</time>
      </trkpt>
      <trkpt lat="46.086967131122947" lon="8.831656565889716">
        <ele>1008.15</ele>
        <time>2022-04-10T09:59:06Z</time>
      </trkpt>
      <trkpt lat="46.086906362324953" lon="8.831514660269022">
        <ele>1011.04</ele>
        <time>2022-04-10T09:59:23Z</time>
      </trkpt>
      <trkpt lat="46.086833942681551" lon="8.831458417698741">
        <ele>1013.41</ele>
        <time>2022-04-10T09:59:37Z</time>
      </trkpt>
      <trkpt lat="46.086775856092572" lon="8.831378202885389">
        <ele>1015.54</ele>
        <time>2022-04-10T09:59:53Z</time>
      </trkpt>
      <trkpt lat="46.086737215518951" lon="8.831289438530803">
        <ele>1017.3200000000001</ele>
        <time>2022-04-10T10:00:06Z</time>
      </trkpt>
      <trkpt lat="46.086682984605432" lon="8.831239147111774">
        <ele>1019.1900000000001</ele>
        <time>2022-04-10T10:00:21Z</time>
      </trkpt>
      <trkpt lat="46.086624646559358" lon="8.831165554001927">
        <ele>1020.49</ele>
        <time>2022-04-10T10:00:33Z</time>
      </trkpt>
      <trkpt lat="46.086547197774053" lon="8.831105120480061">
        <ele>1022.59</ele>
        <time>2022-04-10T10:00:50Z</time>
      </trkpt>
      <trkpt lat="46.086449800059199" lon="8.831027001142502">
        <ele>1024.04</ele>
        <time>2022-04-10T10:01:04Z</time>
      </trkpt>
      <trkpt lat="46.08637360855937" lon="8.830941086634994">
        <ele>1026.3199999999999</ele>
        <time>2022-04-10T10:01:20Z</time>
      </trkpt>
      <trkpt lat="46.08628417365253" lon="8.83089791983366">
        <ele>1029.3299999999999</ele>
        <time>2022-04-10T10:01:37Z</time>
      </trkpt>
      <trkpt lat="46.086234636604786" lon="8.830796163529158">
        <ele>1030.5899999999999</ele>
        <time>2022-04-10T10:01:49Z</time>
      </trkpt>
      <trkpt lat="46.086140926927328" lon="8.830730365589261">
        <ele>1032.96</ele>
        <time>2022-04-10T10:02:04Z</time>
      </trkpt>
      <trkpt lat="46.086041936650872" lon="8.830645205453038">
        <ele>1035.3399999999999</ele>
        <time>2022-04-10T10:02:20Z</time>
      </trkpt>
      <trkpt lat="46.085993237793446" lon="8.830622574314475">
        <ele>1036.01</ele>
        <time>2022-04-10T10:02:34Z</time>
      </trkpt>
      <trkpt lat="46.085991393774748" lon="8.830607738345861">
        <ele>1035.04</ele>
        <time>2022-04-10T10:02:46Z</time>
      </trkpt>
      <trkpt lat="46.085997344926" lon="8.830590974539518">
        <ele>1035.0899999999999</ele>
        <time>2022-04-10T10:03:03Z</time>
      </trkpt>
      <trkpt lat="46.086015785112977" lon="8.830527942627668">
        <ele>1035.02</ele>
        <time>2022-04-10T10:03:23Z</time>
      </trkpt>
      <trkpt lat="46.086016288027167" lon="8.83053875528276">
        <ele>1035.51</ele>
        <time>2022-04-10T10:03:52Z</time>
      </trkpt>
      <trkpt lat="46.086004804819822" lon="8.830561889335513">
        <ele>1036</ele>
        <time>2022-04-10T10:04:14Z</time>
      </trkpt>
      <trkpt lat="46.086001116782427" lon="8.830550154671073">
        <ele>1035.3499999999999</ele>
        <time>2022-04-10T10:04:26Z</time>
      </trkpt>
      <trkpt lat="46.086004469543695" lon="8.830550406128168">
        <ele>1036.23</ele>
        <time>2022-04-10T10:04:48Z</time>
      </trkpt>
      <trkpt lat="46.08604721724987" lon="8.830545209348202">
        <ele>1035.26</ele>
        <time>2022-04-10T10:05:09Z</time>
      </trkpt>
      <trkpt lat="46.086070016026497" lon="8.830543952062726">
        <ele>1036.3699999999999</ele>
        <time>2022-04-10T10:05:30Z</time>
      </trkpt>
      <trkpt lat="46.086036404594779" lon="8.830579156056047">
        <ele>1036.46</ele>
        <time>2022-04-10T10:05:47Z</time>
      </trkpt>
      <trkpt lat="46.086005559191108" lon="8.830598099157214">
        <ele>1036.24</ele>
        <time>2022-04-10T10:06:03Z</time>
      </trkpt>
      <trkpt lat="46.085957949981093" lon="8.830570271238685">
        <ele>1036.55</ele>
        <time>2022-04-10T10:06:18Z</time>
      </trkpt>
      <trkpt lat="46.085862144827843" lon="8.830522410571575">
        <ele>1037.1400000000001</ele>
        <time>2022-04-10T10:06:32Z</time>
      </trkpt>
      <trkpt lat="46.085766172036529" lon="8.830484105274081">
        <ele>1035.5999999999999</ele>
        <time>2022-04-10T10:06:45Z</time>
      </trkpt>
      <trkpt lat="46.085687214508653" lon="8.830382265150547">
        <ele>1033.4200000000001</ele>
        <time>2022-04-10T10:07:00Z</time>
      </trkpt>
      <trkpt lat="46.085629798471928" lon="8.830299451947212">
        <ele>1031.48</ele>
        <time>2022-04-10T10:07:13Z</time>
      </trkpt>
      <trkpt lat="46.085531394928694" lon="8.830341948196292">
        <ele>1030.3499999999999</ele>
        <time>2022-04-10T10:07:27Z</time>
      </trkpt>
      <trkpt lat="46.085446234792471" lon="8.830362232401967">
        <ele>1027.6800000000001</ele>
        <time>2022-04-10T10:07:43Z</time>
      </trkpt>
      <trkpt lat="46.085370630025864" lon="8.830384109169245">
        <ele>1025.8399999999999</ele>
        <time>2022-04-10T10:07:59Z</time>
      </trkpt>
      <trkpt lat="46.085285805165768" lon="8.830404728651047">
        <ele>1022.83</ele>
        <time>2022-04-10T10:08:14Z</time>
      </trkpt>
      <trkpt lat="46.085205087438226" lon="8.830440687015653">
        <ele>1022.05</ele>
        <time>2022-04-10T10:08:29Z</time>
      </trkpt>
      <trkpt lat="46.085106013342738" lon="8.830520901829004">
        <ele>1021.27</ele>
        <time>2022-04-10T10:08:45Z</time>
      </trkpt>
      <trkpt lat="46.08501230366528" lon="8.83049332536757">
        <ele>1021.0700000000001</ele>
        <time>2022-04-10T10:09:01Z</time>
      </trkpt>
      <trkpt lat="46.084878863766789" lon="8.830429874360561">
        <ele>1021.72</ele>
        <time>2022-04-10T10:09:18Z</time>
      </trkpt>
      <trkpt lat="46.084734108299017" lon="8.830335661768913">
        <ele>1021.59</ele>
        <time>2022-04-10T10:09:32Z</time>
      </trkpt>
      <trkpt lat="46.084653390571475" lon="8.830203646793962">
        <ele>1022.71</ele>
        <time>2022-04-10T10:09:46Z</time>
      </trkpt>
      <trkpt lat="46.084534367546439" lon="8.830153606832027">
        <ele>1025.6700000000001</ele>
        <time>2022-04-10T10:10:03Z</time>
      </trkpt>
      <trkpt lat="46.084465384483337" lon="8.830054784193635">
        <ele>1026.53</ele>
        <time>2022-04-10T10:10:20Z</time>
      </trkpt>
      <trkpt lat="46.084389444440603" lon="8.829962247982621">
        <ele>1024.8900000000001</ele>
        <time>2022-04-10T10:10:34Z</time>
      </trkpt>
      <trkpt lat="46.084297830238938" lon="8.829850852489471">
        <ele>1021.8200000000001</ele>
        <time>2022-04-10T10:10:49Z</time>
      </trkpt>
      <trkpt lat="46.084225242957473" lon="8.829745072871447">
        <ele>1019.53</ele>
        <time>2022-04-10T10:11:01Z</time>
      </trkpt>
      <trkpt lat="46.084128515794873" lon="8.829709617421031">
        <ele>1017.85</ele>
        <time>2022-04-10T10:11:13Z</time>
      </trkpt>
      <trkpt lat="46.084000440314412" lon="8.829686902463436">
        <ele>1015.97</ele>
        <time>2022-04-10T10:11:28Z</time>
      </trkpt>
      <trkpt lat="46.083872951567173" lon="8.829668378457427">
        <ele>1014.65</ele>
        <time>2022-04-10T10:11:42Z</time>
      </trkpt>
      <trkpt lat="46.083761220797896" lon="8.829683717340231">
        <ele>1014.36</ele>
        <time>2022-04-10T10:11:58Z</time>
      </trkpt>
      <trkpt lat="46.08365879394114" lon="8.829662930220366">
        <ele>1012.72</ele>
        <time>2022-04-10T10:12:12Z</time>
      </trkpt>
      <trkpt lat="46.083520827814937" lon="8.829697631299496">
        <ele>1013.6799999999999</ele>
        <time>2022-04-10T10:12:27Z</time>
      </trkpt>
      <trkpt lat="46.083441786468029" lon="8.829744821414352">
        <ele>1013.9400000000001</ele>
        <time>2022-04-10T10:12:40Z</time>
      </trkpt>
      <trkpt lat="46.08333726413548" lon="8.829728560522199">
        <ele>1013.6900000000001</ele>
        <time>2022-04-10T10:12:54Z</time>
      </trkpt>
      <trkpt lat="46.083216397091746" lon="8.829687992110848">
        <ele>1013.9299999999999</ele>
        <time>2022-04-10T10:13:09Z</time>
      </trkpt>
      <trkpt lat="46.08307633548975" lon="8.829625127837062">
        <ele>1012.8200000000001</ele>
        <time>2022-04-10T10:13:24Z</time>
      </trkpt>
      <trkpt lat="46.082934932783246" lon="8.82957274094224">
        <ele>1012.5</ele>
        <time>2022-04-10T10:13:40Z</time>
      </trkpt>
      <trkpt lat="46.082831667736173" lon="8.829506440088153">
        <ele>1010.16</ele>
        <time>2022-04-10T10:13:52Z</time>
      </trkpt>
      <trkpt lat="46.082678362727165" lon="8.829477103427053">
        <ele>1008.8</ele>
        <time>2022-04-10T10:14:09Z</time>
      </trkpt>
      <trkpt lat="46.082564117386937" lon="8.829449694603682">
        <ele>1006.54</ele>
        <time>2022-04-10T10:14:24Z</time>
      </trkpt>
      <trkpt lat="46.082462863996625" lon="8.82947064936161">
        <ele>1005.13</ele>
        <time>2022-04-10T10:14:39Z</time>
      </trkpt>
      <trkpt lat="46.08233604580164" lon="8.829525634646416">
        <ele>1005.23</ele>
        <time>2022-04-10T10:14:54Z</time>
      </trkpt>
      <trkpt lat="46.082265805453062" lon="8.829625630751252">
        <ele>1006.13</ele>
        <time>2022-04-10T10:15:07Z</time>
      </trkpt>
      <trkpt lat="46.082187183201313" lon="8.829712467268109">
        <ele>1005.8</ele>
        <time>2022-04-10T10:15:20Z</time>
      </trkpt>
      <trkpt lat="46.082089953124523" lon="8.829748006537557">
        <ele>1002.7</ele>
        <time>2022-04-10T10:15:35Z</time>
      </trkpt>
      <trkpt lat="46.081998255103827" lon="8.829775918275118">
        <ele>1000.28</ele>
        <time>2022-04-10T10:15:52Z</time>
      </trkpt>
      <trkpt lat="46.081941341981292" lon="8.829776085913181">
        <ele>998.45000000000005</ele>
        <time>2022-04-10T10:16:05Z</time>
      </trkpt>
      <trkpt lat="46.081867413595319" lon="8.829809194430709">
        <ele>995.65999999999997</ele>
        <time>2022-04-10T10:16:19Z</time>
      </trkpt>
      <trkpt lat="46.081812093034387" lon="8.82992553524673">
        <ele>996.05999999999995</ele>
        <time>2022-04-10T10:16:33Z</time>
      </trkpt>
      <trkpt lat="46.081764819100499" lon="8.830008851364255">
        <ele>996.25</ele>
        <time>2022-04-10T10:16:47Z</time>
      </trkpt>
      <trkpt lat="46.081680078059435" lon="8.830087305977941">
        <ele>993.45000000000005</ele>
        <time>2022-04-10T10:17:03Z</time>
      </trkpt>
      <trkpt lat="46.081607239320874" lon="8.830136843025684">
        <ele>990.74000000000001</ele>
        <time>2022-04-10T10:17:17Z</time>
      </trkpt>
      <trkpt lat="46.081514535471797" lon="8.830228121951222">
        <ele>987.72000000000003</ele>
        <time>2022-04-10T10:17:33Z</time>
      </trkpt>
      <trkpt lat="46.081441361457109" lon="8.830307582393289">
        <ele>984.65999999999997</ele>
        <time>2022-04-10T10:17:47Z</time>
      </trkpt>
      <trkpt lat="46.081357374787331" lon="8.830399699509144">
        <ele>981.57000000000005</ele>
        <time>2022-04-10T10:18:02Z</time>
      </trkpt>
      <trkpt lat="46.081289649009705" lon="8.830473041161895">
        <ele>979.47000000000003</ele>
        <time>2022-04-10T10:18:13Z</time>
      </trkpt>
      <trkpt lat="46.081198453903198" lon="8.830563900992274">
        <ele>976.42999999999995</ele>
        <time>2022-04-10T10:18:29Z</time>
      </trkpt>
      <trkpt lat="46.08115503564477" lon="8.830694910138845">
        <ele>973.97000000000003</ele>
        <time>2022-04-10T10:18:45Z</time>
      </trkpt>
      <trkpt lat="46.081079598516226" lon="8.83079431951046">
        <ele>970.94000000000005</ele>
        <time>2022-04-10T10:19:01Z</time>
      </trkpt>
      <trkpt lat="46.081032156944275" lon="8.830880904570222">
        <ele>968.17999999999995</ele>
        <time>2022-04-10T10:19:15Z</time>
      </trkpt>
      <trkpt lat="46.080984715372324" lon="8.830936560407281">
        <ele>966.74000000000001</ele>
        <time>2022-04-10T10:19:33Z</time>
      </trkpt>
      <trkpt lat="46.080933753401041" lon="8.830969417467713">
        <ele>965.04999999999995</ele>
        <time>2022-04-10T10:19:47Z</time>
      </trkpt>
      <trkpt lat="46.080874828621745" lon="8.83106748573482">
        <ele>962.46000000000004</ele>
        <time>2022-04-10T10:20:02Z</time>
      </trkpt>
      <trkpt lat="46.080843899399042" lon="8.830987187102437">
        <ele>960.36000000000001</ele>
        <time>2022-04-10T10:20:18Z</time>
      </trkpt>
      <trkpt lat="46.080813724547625" lon="8.830940835177898">
        <ele>957.77999999999997</ele>
        <time>2022-04-10T10:20:33Z</time>
      </trkpt>
      <trkpt lat="46.080755554139614" lon="8.831003615632653">
        <ele>955.5</ele>
        <time>2022-04-10T10:20:49Z</time>
      </trkpt>
      <trkpt lat="46.080677350983024" lon="8.831039573997259">
        <ele>952.88</ele>
        <time>2022-04-10T10:21:03Z</time>
      </trkpt>
      <trkpt lat="46.080642566084862" lon="8.831041837111116">
        <ele>951.90999999999997</ele>
        <time>2022-04-10T10:21:18Z</time>
      </trkpt>
      <trkpt lat="46.080622281879187" lon="8.831000095233321">
        <ele>949.94000000000005</ele>
        <time>2022-04-10T10:21:31Z</time>
      </trkpt>
      <trkpt lat="46.08056578785181" lon="8.83106698282063">
        <ele>947.47000000000003</ele>
        <time>2022-04-10T10:21:46Z</time>
      </trkpt>
      <trkpt lat="46.080480208620429" lon="8.831102270632982">
        <ele>945.15999999999997</ele>
        <time>2022-04-10T10:22:02Z</time>
      </trkpt>
      <trkpt lat="46.080392953008413" lon="8.831140492111445">
        <ele>942.10000000000002</ele>
        <time>2022-04-10T10:22:16Z</time>
      </trkpt>
      <trkpt lat="46.080318940803409" lon="8.831200590357184">
        <ele>938.92999999999995</ele>
        <time>2022-04-10T10:22:34Z</time>
      </trkpt>
      <trkpt lat="46.080299075692892" lon="8.831132529303432">
        <ele>937.01999999999998</ele>
        <time>2022-04-10T10:22:48Z</time>
      </trkpt>
      <trkpt lat="46.080280551686883" lon="8.831078382208943">
        <ele>935.66999999999996</ele>
        <time>2022-04-10T10:23:02Z</time>
      </trkpt>
      <trkpt lat="46.08024668879807" lon="8.831031527370215">
        <ele>932.91999999999996</ele>
        <time>2022-04-10T10:23:19Z</time>
      </trkpt>
      <trkpt lat="46.080234115943313" lon="8.83096438832581">
        <ele>929.77999999999997</ele>
        <time>2022-04-10T10:23:29Z</time>
      </trkpt>
      <trkpt lat="46.080181477591395" lon="8.831000933423638">
        <ele>928.34000000000003</ele>
        <time>2022-04-10T10:23:45Z</time>
      </trkpt>
      <trkpt lat="46.080127246677876" lon="8.83102448657155">
        <ele>925.82000000000005</ele>
        <time>2022-04-10T10:23:58Z</time>
      </trkpt>
      <trkpt lat="46.080116434022784" lon="8.830999005585909">
        <ele>926.11000000000001</ele>
        <time>2022-04-10T10:24:16Z</time>
      </trkpt>
      <trkpt lat="46.080094557255507" lon="8.830963131040335">
        <ele>923.60000000000002</ele>
        <time>2022-04-10T10:24:29Z</time>
      </trkpt>
      <trkpt lat="46.080036051571369" lon="8.831014009192586">
        <ele>920.72000000000003</ele>
        <time>2022-04-10T10:24:41Z</time>
      </trkpt>
      <trkpt lat="46.0800067987293" lon="8.831141078844667">
        <ele>917.67999999999995</ele>
        <time>2022-04-10T10:24:54Z</time>
      </trkpt>
      <trkpt lat="46.079980144277215" lon="8.831288013607264">
        <ele>915.53999999999996</ele>
        <time>2022-04-10T10:25:06Z</time>
      </trkpt>
      <trkpt lat="46.079970085993409" lon="8.831406114622951">
        <ele>914.67999999999995</ele>
        <time>2022-04-10T10:25:19Z</time>
      </trkpt>
      <trkpt lat="46.080006463453174" lon="8.831485323607922">
        <ele>914.25</ele>
        <time>2022-04-10T10:25:33Z</time>
      </trkpt>
      <trkpt lat="46.079972349107265" lon="8.831549612805247">
        <ele>914.52999999999997</ele>
        <time>2022-04-10T10:25:52Z</time>
      </trkpt>
      <trkpt lat="46.079928763210773" lon="8.831587331369519">
        <ele>913.10000000000002</ele>
        <time>2022-04-10T10:26:07Z</time>
      </trkpt>
      <trkpt lat="46.07986556366086" lon="8.83160493336618">
        <ele>911.05999999999995</ele>
        <time>2022-04-10T10:26:20Z</time>
      </trkpt>
      <trkpt lat="46.079799430444837" lon="8.83157710544765">
        <ele>908.46000000000004</ele>
        <time>2022-04-10T10:26:34Z</time>
      </trkpt>
      <trkpt lat="46.079728351905942" lon="8.831586912274361">
        <ele>908.00999999999999</ele>
        <time>2022-04-10T10:26:48Z</time>
      </trkpt>
      <trkpt lat="46.079670349135995" lon="8.831603592261672">
        <ele>907.07000000000005</ele>
        <time>2022-04-10T10:26:55Z</time>
      </trkpt>
      <trkpt lat="46.079579489305615" lon="8.831628989428282">
        <ele>905.54999999999995</ele>
        <time>2022-04-10T10:27:06Z</time>
      </trkpt>
      <trkpt lat="46.079559959471226" lon="8.831680119037628">
        <ele>905.13999999999999</ele>
        <time>2022-04-10T10:27:21Z</time>
      </trkpt>
      <trkpt lat="46.079528946429491" lon="8.831734769046307">
        <ele>903.44000000000005</ele>
        <time>2022-04-10T10:27:36Z</time>
      </trkpt>
      <trkpt lat="46.079462813213468" lon="8.831837279722095">
        <ele>901.41999999999996</ele>
        <time>2022-04-10T10:27:52Z</time>
      </trkpt>
      <trkpt lat="46.07938033528626" lon="8.831890840083361">
        <ele>901.03999999999996</ele>
        <time>2022-04-10T10:28:05Z</time>
      </trkpt>
      <trkpt lat="46.079332139343023" lon="8.831996703520417">
        <ele>900.97000000000003</ele>
        <time>2022-04-10T10:28:17Z</time>
      </trkpt>
      <trkpt lat="46.079236501827836" lon="8.832091083750129">
        <ele>899.58000000000004</ele>
        <time>2022-04-10T10:28:30Z</time>
      </trkpt>
      <trkpt lat="46.079109432175756" lon="8.832144225016236">
        <ele>896.86000000000001</ele>
        <time>2022-04-10T10:28:45Z</time>
      </trkpt>
      <trkpt lat="46.079030809924006" lon="8.832259057089686">
        <ele>894.76999999999998</ele>
        <time>2022-04-10T10:28:56Z</time>
      </trkpt>
      <trkpt lat="46.078980602324009" lon="8.83238579146564">
        <ele>892.32000000000005</ele>
        <time>2022-04-10T10:29:06Z</time>
      </trkpt>
      <trkpt lat="46.078905751928687" lon="8.832513280212879">
        <ele>891.02999999999997</ele>
        <time>2022-04-10T10:29:20Z</time>
      </trkpt>
      <trkpt lat="46.078865183517337" lon="8.832653928548098">
        <ele>888.17999999999995</ele>
        <time>2022-04-10T10:29:36Z</time>
      </trkpt>
      <trkpt lat="46.078882198780775" lon="8.832819052040577">
        <ele>887.41999999999996</ele>
        <time>2022-04-10T10:29:49Z</time>
      </trkpt>
      <trkpt lat="46.07886828482151" lon="8.832887196913362">
        <ele>887.12</ele>
        <time>2022-04-10T10:30:02Z</time>
      </trkpt>
      <trkpt lat="46.078792847692966" lon="8.832923406735063">
        <ele>886.10000000000002</ele>
        <time>2022-04-10T10:30:14Z</time>
      </trkpt>
      <trkpt lat="46.078698299825191" lon="8.832948720082641">
        <ele>887.50999999999999</ele>
        <time>2022-04-10T10:30:28Z</time>
      </trkpt>
      <trkpt lat="46.078619174659252" lon="8.83299658074975">
        <ele>889.87</ele>
        <time>2022-04-10T10:30:45Z</time>
      </trkpt>
      <trkpt lat="46.078556729480624" lon="8.833027761429548">
        <ele>892.24000000000001</ele>
        <time>2022-04-10T10:30:58Z</time>
      </trkpt>
      <trkpt lat="46.078492188826203" lon="8.833017954602838">
        <ele>889.42999999999995</ele>
        <time>2022-04-10T10:31:13Z</time>
      </trkpt>
      <trkpt lat="46.078427564352751" lon="8.832998676225543">
        <ele>887.76999999999998</ele>
        <time>2022-04-10T10:31:21Z</time>
      </trkpt>
      <trkpt lat="46.078328406438231" lon="8.833073191344738">
        <ele>887.28999999999996</ele>
        <time>2022-04-10T10:31:32Z</time>
      </trkpt>
      <trkpt lat="46.078235618770123" lon="8.833090541884303">
        <ele>886.20000000000005</ele>
        <time>2022-04-10T10:31:45Z</time>
      </trkpt>
      <trkpt lat="46.078172922134399" lon="8.833086350932717">
        <ele>885.27999999999997</ele>
        <time>2022-04-10T10:31:51Z</time>
      </trkpt>
      <trkpt lat="46.078144088387489" lon="8.833076627925038">
        <ele>885.25</ele>
        <time>2022-04-10T10:31:53Z</time>
      </trkpt>
      <trkpt lat="46.078041577711701" lon="8.833128344267607">
        <ele>884.62</ele>
        <time>2022-04-10T10:32:04Z</time>
      </trkpt>
      <trkpt lat="46.07801852747798" lon="8.833173355087638">
        <ele>883.75</ele>
        <time>2022-04-10T10:32:07Z</time>
      </trkpt>
      <trkpt lat="46.07799899764359" lon="8.833317523822188">
        <ele>883.88999999999999</ele>
        <time>2022-04-10T10:32:16Z</time>
      </trkpt>
      <trkpt lat="46.07796823605895" lon="8.833440402522683">
        <ele>884.55999999999995</ele>
        <time>2022-04-10T10:32:26Z</time>
      </trkpt>
      <trkpt lat="46.077960608527064" lon="8.833575937896967">
        <ele>885.77999999999997</ele>
        <time>2022-04-10T10:32:37Z</time>
      </trkpt>
      <trkpt lat="46.077975695952773" lon="8.833702253177762">
        <ele>885.17999999999995</ele>
        <time>2022-04-10T10:32:51Z</time>
      </trkpt>
      <trkpt lat="46.078023640438914" lon="8.833800740540028">
        <ele>884.69000000000005</ele>
        <time>2022-04-10T10:33:02Z</time>
      </trkpt>
      <trkpt lat="46.07800830155611" lon="8.833858827129006">
        <ele>884.78999999999996</ele>
        <time>2022-04-10T10:33:19Z</time>
      </trkpt>
      <trkpt lat="46.07792372815311" lon="8.833866203203797">
        <ele>885.82000000000005</ele>
        <time>2022-04-10T10:33:34Z</time>
      </trkpt>
      <trkpt lat="46.07786170206964" lon="8.833691943436861">
        <ele>885.89999999999998</ele>
        <time>2022-04-10T10:33:50Z</time>
      </trkpt>
      <trkpt lat="46.077824737876654" lon="8.833628743886948">
        <ele>887.90999999999997</ele>
        <time>2022-04-10T10:34:02Z</time>
      </trkpt>
      <trkpt lat="46.077729351818562" lon="8.833596725016832">
        <ele>889.07000000000005</ele>
        <time>2022-04-10T10:34:16Z</time>
      </trkpt>
      <trkpt lat="46.077643940225244" lon="8.833582391962409">
        <ele>887.50999999999999</ele>
        <time>2022-04-10T10:34:25Z</time>
      </trkpt>
      <trkpt lat="46.077542267739773" lon="8.833615835756064">
        <ele>888.48000000000002</ele>
        <time>2022-04-10T10:34:40Z</time>
      </trkpt>
      <trkpt lat="46.07748594135046" lon="8.833667552098632">
        <ele>887.74000000000001</ele>
        <time>2022-04-10T10:34:52Z</time>
      </trkpt>
      <trkpt lat="46.077495077624917" lon="8.833615584298968">
        <ele>888.09000000000003</ele>
        <time>2022-04-10T10:35:08Z</time>
      </trkpt>
      <trkpt lat="46.077502286061645" lon="8.833563784137368">
        <ele>888.19000000000005</ele>
        <time>2022-04-10T10:35:13Z</time>
      </trkpt>
      <trkpt lat="46.077502202242613" lon="8.833516258746386">
        <ele>889.20000000000005</ele>
        <time>2022-04-10T10:35:21Z</time>
      </trkpt>
      <trkpt lat="46.077578058466315" lon="8.833413580432534">
        <ele>892.00999999999999</ele>
        <time>2022-04-10T10:35:38Z</time>
      </trkpt>
      <trkpt lat="46.077568084001541" lon="8.833388518542051">
        <ele>893.13</ele>
        <time>2022-04-10T10:35:54Z</time>
      </trkpt>
      <trkpt lat="46.077559366822243" lon="8.833352392539382">
        <ele>894.54999999999995</ele>
        <time>2022-04-10T10:36:10Z</time>
      </trkpt>
      <trkpt lat="46.077581830322742" lon="8.833237392827869">
        <ele>896.24000000000001</ele>
        <time>2022-04-10T10:36:24Z</time>
      </trkpt>
      <trkpt lat="46.077579064294696" lon="8.833212330937386">
        <ele>896.55999999999995</ele>
        <time>2022-04-10T10:36:27Z</time>
      </trkpt>
      <trkpt lat="46.077528353780508" lon="8.833103785291314">
        <ele>897.76999999999998</ele>
        <time>2022-04-10T10:36:39Z</time>
      </trkpt>
      <trkpt lat="46.077502118423581" lon="8.832980319857597">
        <ele>899.88</ele>
        <time>2022-04-10T10:36:54Z</time>
      </trkpt>
      <trkpt lat="46.077471189200878" lon="8.832867667078972">
        <ele>901.60000000000002</ele>
        <time>2022-04-10T10:37:07Z</time>
      </trkpt>
      <trkpt lat="46.077438080683351" lon="8.832743698731065">
        <ele>903.88999999999999</ele>
        <time>2022-04-10T10:37:25Z</time>
      </trkpt>
      <trkpt lat="46.077438667416573" lon="8.83264378644526">
        <ele>905.74000000000001</ele>
        <time>2022-04-10T10:37:40Z</time>
      </trkpt>
      <trkpt lat="46.077465657144785" lon="8.832541443407536">
        <ele>908.23000000000002</ele>
        <time>2022-04-10T10:37:58Z</time>
      </trkpt>
      <trkpt lat="46.077469429001212" lon="8.832493079826236">
        <ele>911.08000000000004</ele>
        <time>2022-04-10T10:38:13Z</time>
      </trkpt>
      <trkpt lat="46.077490551397204" lon="8.832426946610212">
        <ele>911.94000000000005</ele>
        <time>2022-04-10T10:38:27Z</time>
      </trkpt>
      <trkpt lat="46.077492563053966" lon="8.832319909706712">
        <ele>914.24000000000001</ele>
        <time>2022-04-10T10:38:40Z</time>
      </trkpt>
      <trkpt lat="46.077548805624247" lon="8.832207676023245">
        <ele>915.82000000000005</ele>
        <time>2022-04-10T10:38:54Z</time>
      </trkpt>
      <trkpt lat="46.077586021274328" lon="8.832097873091698">
        <ele>916.32000000000005</ele>
        <time>2022-04-10T10:39:08Z</time>
      </trkpt>
      <trkpt lat="46.077598510310054" lon="8.832083037123084">
        <ele>916.79999999999995</ele>
        <time>2022-04-10T10:39:21Z</time>
      </trkpt>
      <trkpt lat="46.077562971040606" lon="8.831924367696047">
        <ele>919.08000000000004</ele>
        <time>2022-04-10T10:39:37Z</time>
      </trkpt>
      <trkpt lat="46.077569676563144" lon="8.831781120970845">
        <ele>919.44000000000005</ele>
        <time>2022-04-10T10:39:49Z</time>
      </trkpt>
      <trkpt lat="46.07756313867867" lon="8.831682046875358">
        <ele>920.09000000000003</ele>
        <time>2022-04-10T10:40:00Z</time>
      </trkpt>
      <trkpt lat="46.077541513368487" lon="8.831587331369519">
        <ele>922.25</ele>
        <time>2022-04-10T10:40:16Z</time>
      </trkpt>
      <trkpt lat="46.07751720584929" lon="8.831487083807588">
        <ele>924.71000000000004</ele>
        <time>2022-04-10T10:40:31Z</time>
      </trkpt>
      <trkpt lat="46.077473452314734" lon="8.831401923671365">
        <ele>925.82000000000005</ele>
        <time>2022-04-10T10:40:44Z</time>
      </trkpt>
      <trkpt lat="46.077455179765821" lon="8.831333862617612">
        <ele>926.67999999999995</ele>
        <time>2022-04-10T10:40:55Z</time>
      </trkpt>
      <trkpt lat="46.077408827841282" lon="8.831234872341156">
        <ele>927.79999999999995</ele>
        <time>2022-04-10T10:41:07Z</time>
      </trkpt>
      <trkpt lat="46.077330876141787" lon="8.831127332523465">
        <ele>928.88999999999999</ele>
        <time>2022-04-10T10:41:21Z</time>
      </trkpt>
      <trkpt lat="46.077315956354141" lon="8.831059858202934">
        <ele>930.04999999999995</ele>
        <time>2022-04-10T10:41:34Z</time>
      </trkpt>
      <trkpt lat="46.07732173986733" lon="8.830997999757528">
        <ele>930.65999999999997</ele>
        <time>2022-04-10T10:41:41Z</time>
      </trkpt>
      <trkpt lat="46.077261390164495" lon="8.830861961469054">
        <ele>931.00999999999999</ele>
        <time>2022-04-10T10:41:55Z</time>
      </trkpt>
      <trkpt lat="46.07721570879221" lon="8.830782752484083">
        <ele>931.05999999999995</ele>
        <time>2022-04-10T10:42:07Z</time>
      </trkpt>
      <trkpt lat="46.077226772904396" lon="8.830647300928831">
        <ele>930.71000000000004</ele>
        <time>2022-04-10T10:42:21Z</time>
      </trkpt>
      <trkpt lat="46.077230963855982" lon="8.830485362559557">
        <ele>930.15999999999997</ele>
        <time>2022-04-10T10:42:32Z</time>
      </trkpt>
      <trkpt lat="46.077213948592544" lon="8.830368854105473">
        <ele>930.72000000000003</ele>
        <time>2022-04-10T10:42:44Z</time>
      </trkpt>
      <trkpt lat="46.077250996604562" lon="8.830266008153558">
        <ele>930.65999999999997</ele>
        <time>2022-04-10T10:42:58Z</time>
      </trkpt>
      <trkpt lat="46.077254265546799" lon="8.830130137503147">
        <ele>930.00999999999999</ele>
        <time>2022-04-10T10:43:11Z</time>
      </trkpt>
      <trkpt lat="46.077245967462659" lon="8.829973228275776">
        <ele>929.38</ele>
        <time>2022-04-10T10:43:25Z</time>
      </trkpt>
      <trkpt lat="46.077242447063327" lon="8.829798633232713">
        <ele>928.58000000000004</ele>
        <time>2022-04-10T10:43:39Z</time>
      </trkpt>
      <trkpt lat="46.077228281646967" lon="8.829670893028379">
        <ele>927.46000000000004</ele>
        <time>2022-04-10T10:43:51Z</time>
      </trkpt>
      <trkpt lat="46.077182935550809" lon="8.829540470615029">
        <ele>928.41999999999996</ele>
        <time>2022-04-10T10:44:05Z</time>
      </trkpt>
      <trkpt lat="46.077181091532111" lon="8.829516666010022">
        <ele>928.34000000000003</ele>
        <time>2022-04-10T10:44:07Z</time>
      </trkpt>
      <trkpt lat="46.077143289148808" lon="8.829376855865121">
        <ele>927.04999999999995</ele>
        <time>2022-04-10T10:44:18Z</time>
      </trkpt>
      <trkpt lat="46.077098194509745" lon="8.829271076247096">
        <ele>926.88999999999999</ele>
        <time>2022-04-10T10:44:31Z</time>
      </trkpt>
      <trkpt lat="46.077065337449312" lon="8.829146437346935">
        <ele>926.23000000000002</ele>
        <time>2022-04-10T10:44:43Z</time>
      </trkpt>
      <trkpt lat="46.077009597793221" lon="8.829067312180996">
        <ele>927.75</ele>
        <time>2022-04-10T10:44:56Z</time>
      </trkpt>
      <trkpt lat="46.076982021331787" lon="8.828863631933928">
        <ele>927.42999999999995</ele>
        <time>2022-04-10T10:45:11Z</time>
      </trkpt>
      <trkpt lat="46.076947068795562" lon="8.828725833445787">
        <ele>927.84000000000003</ele>
        <time>2022-04-10T10:45:23Z</time>
      </trkpt>
      <trkpt lat="46.076890239492059" lon="8.828622400760651">
        <ele>927.58000000000004</ele>
        <time>2022-04-10T10:45:35Z</time>
      </trkpt>
      <trkpt lat="46.076862830668688" lon="8.828538414090872">
        <ele>927.16999999999996</ele>
        <time>2022-04-10T10:45:48Z</time>
      </trkpt>
      <trkpt lat="46.076856208965182" lon="8.828479740768671">
        <ele>926.59000000000003</ele>
        <time>2022-04-10T10:46:00Z</time>
      </trkpt>
      <trkpt lat="46.076842043548822" lon="8.828442273661494">
        <ele>926.63999999999999</ele>
        <time>2022-04-10T10:46:13Z</time>
      </trkpt>
      <trkpt lat="46.076823435723782" lon="8.82836633361876">
        <ele>926.09000000000003</ele>
        <time>2022-04-10T10:46:27Z</time>
      </trkpt>
      <trkpt lat="46.076798038557172" lon="8.828198444098234">
        <ele>925.09000000000003</ele>
        <time>2022-04-10T10:46:39Z</time>
      </trkpt>
      <trkpt lat="46.076815221458673" lon="8.828053269535303">
        <ele>925.07000000000005</ele>
        <time>2022-04-10T10:46:48Z</time>
      </trkpt>
      <trkpt lat="46.076778089627624" lon="8.827881440520287">
        <ele>924.84000000000003</ele>
        <time>2022-04-10T10:47:02Z</time>
      </trkpt>
      <trkpt lat="46.076751351356506" lon="8.827771972864866">
        <ele>926.38999999999999</ele>
        <time>2022-04-10T10:47:12Z</time>
      </trkpt>
      <trkpt lat="46.076739197596908" lon="8.827700894325972">
        <ele>926.65999999999997</ele>
        <time>2022-04-10T10:47:33Z</time>
      </trkpt>
      <trkpt lat="46.076708771288395" lon="8.827656386420131">
        <ele>927.32000000000005</ele>
        <time>2022-04-10T10:47:49Z</time>
      </trkpt>
      <trkpt lat="46.076690582558513" lon="8.82756351493299">
        <ele>927.85000000000002</ele>
        <time>2022-04-10T10:48:04Z</time>
      </trkpt>
      <trkpt lat="46.07662595808506" lon="8.827449688687921">
        <ele>929.32000000000005</ele>
        <time>2022-04-10T10:48:16Z</time>
      </trkpt>
      <trkpt lat="46.076575666666031" lon="8.827395373955369">
        <ele>930.08000000000004</ele>
        <time>2022-04-10T10:48:24Z</time>
      </trkpt>
      <trkpt lat="46.076512718573213" lon="8.827352374792099">
        <ele>930.35000000000002</ele>
        <time>2022-04-10T10:48:31Z</time>
      </trkpt>
      <trkpt lat="46.076422110199928" lon="8.827343406155706">
        <ele>930.61000000000001</ele>
        <time>2022-04-10T10:48:41Z</time>
      </trkpt>
      <trkpt lat="46.076310044154525" lon="8.827369222417474">
        <ele>931.44000000000005</ele>
        <time>2022-04-10T10:48:55Z</time>
      </trkpt>
      <trkpt lat="46.076240558177233" lon="8.82740861736238">
        <ele>931.55999999999995</ele>
        <time>2022-04-10T10:49:05Z</time>
      </trkpt>
      <trkpt lat="46.076195379719138" lon="8.827440887689591">
        <ele>931.41999999999996</ele>
        <time>2022-04-10T10:49:10Z</time>
      </trkpt>
      <trkpt lat="46.076110219582915" lon="8.827487155795097">
        <ele>931.11000000000001</ele>
        <time>2022-04-10T10:49:20Z</time>
      </trkpt>
      <trkpt lat="46.076030256226659" lon="8.827488496899605">
        <ele>929.73000000000002</ele>
        <time>2022-04-10T10:49:31Z</time>
      </trkpt>
      <trkpt lat="46.07593746855855" lon="8.827518504112959">
        <ele>928.83000000000004</ele>
        <time>2022-04-10T10:49:42Z</time>
      </trkpt>
      <trkpt lat="46.075901091098785" lon="8.82750241085887">
        <ele>928.23000000000002</ele>
        <time>2022-04-10T10:49:56Z</time>
      </trkpt>
      <trkpt lat="46.075886255130172" lon="8.827408952638507">
        <ele>926.08000000000004</ele>
        <time>2022-04-10T10:50:10Z</time>
      </trkpt>
      <trkpt lat="46.075884411111474" lon="8.827337119728327">
        <ele>923.90999999999997</ele>
        <time>2022-04-10T10:50:23Z</time>
      </trkpt>
      <trkpt lat="46.075894637033343" lon="8.827271405607462">
        <ele>920.78999999999996</ele>
        <time>2022-04-10T10:50:30Z</time>
      </trkpt>
      <trkpt lat="46.075865300372243" lon="8.82723611779511">
        <ele>918.96000000000004</ele>
        <time>2022-04-10T10:50:38Z</time>
      </trkpt>
      <trkpt lat="46.075766393914819" lon="8.82727132178843">
        <ele>916.82000000000005</ele>
        <time>2022-04-10T10:50:50Z</time>
      </trkpt>
      <trkpt lat="46.07570537365973" lon="8.82728548720479">
        <ele>915.92999999999995</ele>
        <time>2022-04-10T10:50:57Z</time>
      </trkpt>
      <trkpt lat="46.075634211301804" lon="8.82733728736639">
        <ele>913.92999999999995</ele>
        <time>2022-04-10T10:51:07Z</time>
      </trkpt>
      <trkpt lat="46.075620213523507" lon="8.827351368963718">
        <ele>913.50999999999999</ele>
        <time>2022-04-10T10:51:11Z</time>
      </trkpt>
      <trkpt lat="46.075591631233692" lon="8.827431164681912">
        <ele>912.58000000000004</ele>
        <time>2022-04-10T10:51:32Z</time>
      </trkpt>
      <trkpt lat="46.075517786666751" lon="8.82741934619844">
        <ele>911.86000000000001</ele>
        <time>2022-04-10T10:51:45Z</time>
      </trkpt>
      <trkpt lat="46.075443606823683" lon="8.827420016750693">
        <ele>912</ele>
        <time>2022-04-10T10:51:56Z</time>
      </trkpt>
      <trkpt lat="46.075392309576273" lon="8.827298060059547">
        <ele>910.35000000000002</ele>
        <time>2022-04-10T10:52:10Z</time>
      </trkpt>
      <trkpt lat="46.075426759198308" lon="8.827146431431174">
        <ele>909.70000000000005</ele>
        <time>2022-04-10T10:52:20Z</time>
      </trkpt>
      <trkpt lat="46.075435392558575" lon="8.827100582420826">
        <ele>909.46000000000004</ele>
        <time>2022-04-10T10:52:23Z</time>
      </trkpt>
      <trkpt lat="46.075463388115168" lon="8.826950462535024">
        <ele>909.16999999999996</ele>
        <time>2022-04-10T10:52:33Z</time>
      </trkpt>
      <trkpt lat="46.075430447235703" lon="8.826804282143712">
        <ele>909.70000000000005</ele>
        <time>2022-04-10T10:52:44Z</time>
      </trkpt>
      <trkpt lat="46.07542441226542" lon="8.826666148379445">
        <ele>908.72000000000003</ele>
        <time>2022-04-10T10:52:54Z</time>
      </trkpt>
      <trkpt lat="46.075380574911833" lon="8.826448135077953">
        <ele>908.04999999999995</ele>
        <time>2022-04-10T10:53:10Z</time>
      </trkpt>
      <trkpt lat="46.075331792235374" lon="8.826317712664604">
        <ele>908.13</ele>
        <time>2022-04-10T10:53:25Z</time>
      </trkpt>
      <trkpt lat="46.075318800285459" lon="8.826280413195491">
        <ele>908.45000000000005</ele>
        <time>2022-04-10T10:53:37Z</time>
      </trkpt>
      <trkpt lat="46.075273286551237" lon="8.826196761801839">
        <ele>908.57000000000005</ele>
        <time>2022-04-10T10:53:50Z</time>
      </trkpt>
      <trkpt lat="46.07522408477962" lon="8.826098693534732">
        <ele>908.78999999999996</ele>
        <time>2022-04-10T10:54:02Z</time>
      </trkpt>
      <trkpt lat="46.075197346508503" lon="8.825960895046592">
        <ele>908.90999999999997</ele>
        <time>2022-04-10T10:54:16Z</time>
      </trkpt>
      <trkpt lat="46.075145378708839" lon="8.825840447098017">
        <ele>908.09000000000003</ele>
        <time>2022-04-10T10:54:29Z</time>
      </trkpt>
      <trkpt lat="46.075074719265103" lon="8.825719663873315">
        <ele>907.52999999999997</ele>
        <time>2022-04-10T10:54:42Z</time>
      </trkpt>
      <trkpt lat="46.07504521496594" lon="8.825650932267308">
        <ele>906.95000000000005</ele>
        <time>2022-04-10T10:54:48Z</time>
      </trkpt>
      <trkpt lat="46.074992408975959" lon="8.8255356810987">
        <ele>906.26999999999998</ele>
        <time>2022-04-10T10:54:58Z</time>
      </trkpt>
      <trkpt lat="46.074916552752256" lon="8.825309872627258">
        <ele>906.27999999999997</ele>
        <time>2022-04-10T10:55:14Z</time>
      </trkpt>
      <trkpt lat="46.074864082038403" lon="8.825175510719419">
        <ele>907.69000000000005</ele>
        <time>2022-04-10T10:55:26Z</time>
      </trkpt>
      <trkpt lat="46.074833068996668" lon="8.825110131874681">
        <ele>908.12</ele>
        <time>2022-04-10T10:55:32Z</time>
      </trkpt>
      <trkpt lat="46.074762493371964" lon="8.825000915676355">
        <ele>908.63</ele>
        <time>2022-04-10T10:55:42Z</time>
      </trkpt>
      <trkpt lat="46.074683954939246" lon="8.824953977018595">
        <ele>908.29999999999995</ele>
        <time>2022-04-10T10:55:50Z</time>
      </trkpt>
      <trkpt lat="46.074603907763958" lon="8.824918856844306">
        <ele>907.62</ele>
        <time>2022-04-10T10:55:58Z</time>
      </trkpt>
      <trkpt lat="46.074567949399352" lon="8.824906619265676">
        <ele>907.50999999999999</ele>
        <time>2022-04-10T10:56:02Z</time>
      </trkpt>
      <trkpt lat="46.074415482580662" lon="8.824857082217932">
        <ele>906.64999999999998</ele>
        <time>2022-04-10T10:56:17Z</time>
      </trkpt>
      <trkpt lat="46.07430056668818" lon="8.824841072782874">
        <ele>905.96000000000004</ele>
        <time>2022-04-10T10:56:29Z</time>
      </trkpt>
      <trkpt lat="46.074256729334593" lon="8.824845012277365">
        <ele>906.30999999999995</ele>
        <time>2022-04-10T10:56:43Z</time>
      </trkpt>
      <trkpt lat="46.07424633577466" lon="8.824854651466012">
        <ele>905.89999999999998</ele>
        <time>2022-04-10T10:57:00Z</time>
      </trkpt>
      <trkpt lat="46.074242144823074" lon="8.824855322018266">
        <ele>905.70000000000005</ele>
        <time>2022-04-10T10:57:26Z</time>
      </trkpt>
      <trkpt lat="46.07421507127583" lon="8.824844593182206">
        <ele>905.21000000000004</ele>
        <time>2022-04-10T10:57:33Z</time>
      </trkpt>
      <trkpt lat="46.07416084036231" lon="8.824865464121103">
        <ele>905.60000000000002</ele>
        <time>2022-04-10T10:57:44Z</time>
      </trkpt>
      <trkpt lat="46.074162349104881" lon="8.824870074167848">
        <ele>905.50999999999999</ele>
        <time>2022-04-10T10:58:03Z</time>
      </trkpt>
      <trkpt lat="46.074158325791359" lon="8.824881641194224">
        <ele>905.61000000000001</ele>
        <time>2022-04-10T10:58:21Z</time>
      </trkpt>
      <trkpt lat="46.074157152324915" lon="8.824880048632622">
        <ele>906.07000000000005</ele>
        <time>2022-04-10T10:58:37Z</time>
      </trkpt>
      <trkpt lat="46.074061933904886" lon="8.824886670336127">
        <ele>905.75999999999999</ele>
        <time>2022-04-10T10:58:49Z</time>
      </trkpt>
      <trkpt lat="46.073968894779682" lon="8.824953474104404">
        <ele>906.26999999999998</ele>
        <time>2022-04-10T10:59:03Z</time>
      </trkpt>
      <trkpt lat="46.073943581432104" lon="8.824982391670346">
        <ele>906.25999999999999</ele>
        <time>2022-04-10T10:59:15Z</time>
      </trkpt>
      <trkpt lat="46.073922039940953" lon="8.825025223195553">
        <ele>906.69000000000005</ele>
        <time>2022-04-10T10:59:20Z</time>
      </trkpt>
      <trkpt lat="46.073867557570338" lon="8.825089512392879">
        <ele>907.48000000000002</ele>
        <time>2022-04-10T10:59:27Z</time>
      </trkpt>
      <trkpt lat="46.07378114014864" lon="8.825134439393878">
        <ele>907.42999999999995</ele>
        <time>2022-04-10T10:59:35Z</time>
      </trkpt>
      <trkpt lat="46.073663458228111" lon="8.825223287567496">
        <ele>906.57000000000005</ele>
        <time>2022-04-10T10:59:46Z</time>
      </trkpt>
      <trkpt lat="46.073590368032455" lon="8.82527039386332">
        <ele>906.97000000000003</ele>
        <time>2022-04-10T10:59:54Z</time>
      </trkpt>
      <trkpt lat="46.073517696931958" lon="8.825321272015572">
        <ele>907.33000000000004</ele>
        <time>2022-04-10T11:00:03Z</time>
      </trkpt>
      <trkpt lat="46.073461621999741" lon="8.825384387746453">
        <ele>908.01999999999998</ele>
        <time>2022-04-10T11:00:11Z</time>
      </trkpt>
      <trkpt lat="46.073395740240812" lon="8.825461249798536">
        <ele>908.88</ele>
        <time>2022-04-10T11:00:20Z</time>
      </trkpt>
      <trkpt lat="46.073341844603419" lon="8.825524784624577">
        <ele>909.66999999999996</ele>
        <time>2022-04-10T11:00:27Z</time>
      </trkpt>
      <trkpt lat="46.073293061926961" lon="8.825586978346109">
        <ele>909.88</ele>
        <time>2022-04-10T11:00:32Z</time>
      </trkpt>
      <trkpt lat="46.073277220129967" lon="8.825617488473654">
        <ele>909.87</ele>
        <time>2022-04-10T11:00:34Z</time>
      </trkpt>
      <trkpt lat="46.07323195785284" lon="8.825713628903031">
        <ele>910.01999999999998</ele>
        <time>2022-04-10T11:00:43Z</time>
      </trkpt>
      <trkpt lat="46.073227347806096" lon="8.825724106281996">
        <ele>909.98000000000002</ele>
        <time>2022-04-10T11:00:44Z</time>
      </trkpt>
      <trkpt lat="46.073154928162694" lon="8.825775235891342">
        <ele>909.39999999999998</ele>
        <time>2022-04-10T11:00:54Z</time>
      </trkpt>
      <trkpt lat="46.073071947321296" lon="8.825871124863625">
        <ele>909.45000000000005</ele>
        <time>2022-04-10T11:01:04Z</time>
      </trkpt>
      <trkpt lat="46.072996761649847" lon="8.82599257864058">
        <ele>910.34000000000003</ele>
        <time>2022-04-10T11:01:16Z</time>
      </trkpt>
      <trkpt lat="46.072929203510284" lon="8.826080756261945">
        <ele>911.69000000000005</ele>
        <time>2022-04-10T11:01:32Z</time>
      </trkpt>
      <trkpt lat="46.072865836322308" lon="8.826191229745746">
        <ele>912.21000000000004</ele>
        <time>2022-04-10T11:01:38Z</time>
      </trkpt>
      <trkpt lat="46.072824597358704" lon="8.826231462880969">
        <ele>912.00999999999999</ele>
        <time>2022-04-10T11:01:42Z</time>
      </trkpt>
      <trkpt lat="46.072745891287923" lon="8.826408823952079">
        <ele>911.88</ele>
        <time>2022-04-10T11:01:54Z</time>
      </trkpt>
      <trkpt lat="46.07272619381547" lon="8.826478645205498">
        <ele>912.19000000000005</ele>
        <time>2022-04-10T11:01:58Z</time>
      </trkpt>
      <trkpt lat="46.072640027850866" lon="8.826620299369097">
        <ele>911.25</ele>
        <time>2022-04-10T11:02:09Z</time>
      </trkpt>
      <trkpt lat="46.072548748925328" lon="8.826764719560742">
        <ele>911.34000000000003</ele>
        <time>2022-04-10T11:02:22Z</time>
      </trkpt>
      <trkpt lat="46.072437856346369" lon="8.826871924102306">
        <ele>910.01999999999998</ele>
        <time>2022-04-10T11:02:39Z</time>
      </trkpt>
      <trkpt lat="46.072440706193447" lon="8.826867146417499">
        <ele>909.92999999999995</ele>
        <time>2022-04-10T11:02:40Z</time>
      </trkpt>
      <trkpt lat="46.072419164702296" lon="8.826942080631852">
        <ele>910.13999999999999</ele>
        <time>2022-04-10T11:02:45Z</time>
      </trkpt>
      <trkpt lat="46.072324197739363" lon="8.827013242989779">
        <ele>912.12</ele>
        <time>2022-04-10T11:02:58Z</time>
      </trkpt>
      <trkpt lat="46.072205677628517" lon="8.827038640156388">
        <ele>914.35000000000002</ele>
        <time>2022-04-10T11:03:13Z</time>
      </trkpt>
      <trkpt lat="46.072110459208488" lon="8.827044926583767">
        <ele>915.36000000000001</ele>
        <time>2022-04-10T11:03:24Z</time>
      </trkpt>
      <trkpt lat="46.072064358741045" lon="8.827159171923995">
        <ele>915.48000000000002</ele>
        <time>2022-04-10T11:03:37Z</time>
      </trkpt>
      <trkpt lat="46.072069555521011" lon="8.827257910743356">
        <ele>916.59000000000003</ele>
        <time>2022-04-10T11:03:49Z</time>
      </trkpt>
      <trkpt lat="46.0719976387918" lon="8.827310297638178">
        <ele>919.00999999999999</ele>
        <time>2022-04-10T11:04:02Z</time>
      </trkpt>
      <trkpt lat="46.071940893307328" lon="8.827307112514973">
        <ele>921.00999999999999</ele>
        <time>2022-04-10T11:04:12Z</time>
      </trkpt>
      <trkpt lat="46.07189211063087" lon="8.827224718406797">
        <ele>923.13999999999999</ele>
        <time>2022-04-10T11:04:25Z</time>
      </trkpt>
      <trkpt lat="46.071818517521024" lon="8.827175181359053">
        <ele>925.09000000000003</ele>
        <time>2022-04-10T11:04:37Z</time>
      </trkpt>
      <trkpt lat="46.071747355163097" lon="8.827141989022493">
        <ele>927.12</ele>
        <time>2022-04-10T11:04:48Z</time>
      </trkpt>
      <trkpt lat="46.071691447868943" lon="8.827111562713981">
        <ele>929.58000000000004</ele>
        <time>2022-04-10T11:05:00Z</time>
      </trkpt>
      <trkpt lat="46.071634283289313" lon="8.827057918533683">
        <ele>932.53999999999996</ele>
        <time>2022-04-10T11:05:13Z</time>
      </trkpt>
      <trkpt lat="46.071565803140402" lon="8.827050207182765">
        <ele>934.08000000000004</ele>
        <time>2022-04-10T11:05:23Z</time>
      </trkpt>
      <trkpt lat="46.071504531428218" lon="8.82701919414103">
        <ele>935.79999999999995</ele>
        <time>2022-04-10T11:05:33Z</time>
      </trkpt>
      <trkpt lat="46.0714450199157" lon="8.827014248818159">
        <ele>937.50999999999999</ele>
        <time>2022-04-10T11:05:43Z</time>
      </trkpt>
      <trkpt lat="46.07137955725193" lon="8.827001843601465">
        <ele>939.5</ele>
        <time>2022-04-10T11:05:52Z</time>
      </trkpt>
      <trkpt lat="46.071271514520049" lon="8.826989941298962">
        <ele>941.89999999999998</ele>
        <time>2022-04-10T11:06:05Z</time>
      </trkpt>
      <trkpt lat="46.071188449859619" lon="8.826994216069579">
        <ele>943.80999999999995</ele>
        <time>2022-04-10T11:06:15Z</time>
      </trkpt>
      <trkpt lat="46.071116533130407" lon="8.827049704268575">
        <ele>946.13999999999999</ele>
        <time>2022-04-10T11:06:28Z</time>
      </trkpt>
      <trkpt lat="46.071049477905035" lon="8.827078202739358">
        <ele>947.64999999999998</ele>
        <time>2022-04-10T11:06:42Z</time>
      </trkpt>
      <trkpt lat="46.071051070466638" lon="8.827074430882931">
        <ele>947.60000000000002</ele>
        <time>2022-04-10T11:06:45Z</time>
      </trkpt>
      <trkpt lat="46.07103556394577" lon="8.827091194689274">
        <ele>946.71000000000004</ele>
        <time>2022-04-10T11:06:54Z</time>
      </trkpt>
      <trkpt lat="46.071061044931412" lon="8.827088931575418">
        <ele>947.38999999999999</ele>
        <time>2022-04-10T11:07:11Z</time>
      </trkpt>
      <trkpt lat="46.071080407127738" lon="8.827079124748707">
        <ele>947.79999999999995</ele>
        <time>2022-04-10T11:07:16Z</time>
      </trkpt>
      <trkpt lat="46.070996755734086" lon="8.82710125297308">
        <ele>947.75999999999999</ele>
        <time>2022-04-10T11:07:27Z</time>
      </trkpt>
      <trkpt lat="46.070971777662635" lon="8.827103935182095">
        <ele>947.70000000000005</ele>
        <time>2022-04-10T11:07:45Z</time>
      </trkpt>
      <trkpt lat="46.070964988321066" lon="8.827108209952712">
        <ele>948.02999999999997</ele>
        <time>2022-04-10T11:08:00Z</time>
      </trkpt>
      <trkpt lat="46.070960545912385" lon="8.827111562713981">
        <ele>948</ele>
        <time>2022-04-10T11:08:16Z</time>
      </trkpt>
      <trkpt lat="46.070932969450951" lon="8.827121537178755">
        <ele>947.87</ele>
        <time>2022-04-10T11:08:31Z</time>
      </trkpt>
      <trkpt lat="46.070922827348113" lon="8.827118016779423">
        <ele>948</ele>
        <time>2022-04-10T11:08:53Z</time>
      </trkpt>
      <trkpt lat="46.070919977501035" lon="8.827113909646869">
        <ele>948.12</ele>
        <time>2022-04-10T11:09:14Z</time>
      </trkpt>
      <trkpt lat="46.070923330262303" lon="8.827115586027503">
        <ele>948.03999999999996</ele>
        <time>2022-04-10T11:09:32Z</time>
      </trkpt>
      <trkpt lat="46.070912349969149" lon="8.82717358879745">
        <ele>947.80999999999995</ele>
        <time>2022-04-10T11:09:48Z</time>
      </trkpt>
      <trkpt lat="46.070905476808548" lon="8.82719705812633">
        <ele>947.39999999999998</ele>
        <time>2022-04-10T11:09:50Z</time>
      </trkpt>
      <trkpt lat="46.070904219523072" lon="8.827271573245525">
        <ele>946.35000000000002</ele>
        <time>2022-04-10T11:10:02Z</time>
      </trkpt>
      <trkpt lat="46.070914529263973" lon="8.827251791954041">
        <ele>946.24000000000001</ele>
        <time>2022-04-10T11:10:04Z</time>
      </trkpt>
      <trkpt lat="46.070923330262303" lon="8.82714961655438">
        <ele>946.02999999999997</ele>
        <time>2022-04-10T11:10:14Z</time>
      </trkpt>
      <trkpt lat="46.070842780172825" lon="8.827119274064899">
        <ele>945.32000000000005</ele>
        <time>2022-04-10T11:10:25Z</time>
      </trkpt>
      <trkpt lat="46.070830291137099" lon="8.827112736180425">
        <ele>945.15999999999997</ele>
        <time>2022-04-10T11:10:43Z</time>
      </trkpt>
      <trkpt lat="46.070826770737767" lon="8.827133690938354">
        <ele>945.49000000000001</ele>
        <time>2022-04-10T11:10:56Z</time>
      </trkpt>
      <trkpt lat="46.070821490138769" lon="8.827137043699622">
        <ele>945.59000000000003</ele>
        <time>2022-04-10T11:11:13Z</time>
      </trkpt>
      <trkpt lat="46.070820400491357" lon="8.827147521078587">
        <ele>945.37</ele>
        <time>2022-04-10T11:11:30Z</time>
      </trkpt>
      <trkpt lat="46.070807995274663" lon="8.827171074226499">
        <ele>945.30999999999995</ele>
        <time>2022-04-10T11:11:46Z</time>
      </trkpt>
      <trkpt lat="46.070798188447952" lon="8.827168894931674">
        <ele>945.46000000000004</ele>
        <time>2022-04-10T11:12:14Z</time>
      </trkpt>
      <trkpt lat="46.070798942819238" lon="8.827211726456881">
        <ele>945.52999999999997</ele>
        <time>2022-04-10T11:12:28Z</time>
      </trkpt>
      <trkpt lat="46.070799194276333" lon="8.827272159978747">
        <ele>945.32000000000005</ele>
        <time>2022-04-10T11:12:43Z</time>
      </trkpt>
      <trkpt lat="46.070797769352794" lon="8.827285068109632">
        <ele>945.35000000000002</ele>
        <time>2022-04-10T11:12:44Z</time>
      </trkpt>
      <trkpt lat="46.070793494582176" lon="8.827312728390098">
        <ele>945.30999999999995</ele>
        <time>2022-04-10T11:12:46Z</time>
      </trkpt>
      <trkpt lat="46.07083666138351" lon="8.827363606542349">
        <ele>945.20000000000005</ele>
        <time>2022-04-10T11:12:52Z</time>
      </trkpt>
      <trkpt lat="46.070872787386179" lon="8.827404594048858">
        <ele>946</ele>
        <time>2022-04-10T11:13:02Z</time>
      </trkpt>
      <trkpt lat="46.07086893171072" lon="8.827558318153024">
        <ele>946.84000000000003</ele>
        <time>2022-04-10T11:13:15Z</time>
      </trkpt>
      <trkpt lat="46.070849820971489" lon="8.82762998342514">
        <ele>945.74000000000001</ele>
        <time>2022-04-10T11:13:28Z</time>
      </trkpt>
      <trkpt lat="46.070817550644279" lon="8.827689914032817">
        <ele>944.29999999999995</ele>
        <time>2022-04-10T11:13:35Z</time>
      </trkpt>
      <trkpt lat="46.070804307237267" lon="8.827860066667199">
        <ele>942.58000000000004</ele>
        <time>2022-04-10T11:13:49Z</time>
      </trkpt>
      <trkpt lat="46.070771031081676" lon="8.827949753031135">
        <ele>941.46000000000004</ele>
        <time>2022-04-10T11:13:58Z</time>
      </trkpt>
      <trkpt lat="46.070740101858974" lon="8.828098280355334">
        <ele>941.95000000000005</ele>
        <time>2022-04-10T11:14:07Z</time>
      </trkpt>
      <trkpt lat="46.070742951706052" lon="8.828156115487218">
        <ele>942.11000000000001</ele>
        <time>2022-04-10T11:14:21Z</time>
      </trkpt>
      <trkpt lat="46.07074873521924" lon="8.828155528753996">
        <ele>940.74000000000001</ele>
        <time>2022-04-10T11:14:39Z</time>
      </trkpt>
      <trkpt lat="46.070738257840276" lon="8.828149745240808">
        <ele>940.87</ele>
        <time>2022-04-10T11:14:50Z</time>
      </trkpt>
      <trkpt lat="46.070700790733099" lon="8.828161144629121">
        <ele>941.01999999999998</ele>
        <time>2022-04-10T11:15:11Z</time>
      </trkpt>
      <trkpt lat="46.070721410214901" lon="8.82816206663847">
        <ele>940.78999999999996</ele>
        <time>2022-04-10T11:15:28Z</time>
      </trkpt>
      <trkpt lat="46.070718225091696" lon="8.828180255368352">
        <ele>940.80999999999995</ele>
        <time>2022-04-10T11:15:47Z</time>
      </trkpt>
      <trkpt lat="46.070742951706052" lon="8.828171454370022">
        <ele>940.75999999999999</ele>
        <time>2022-04-10T11:16:08Z</time>
      </trkpt>
      <trkpt lat="46.070737168192863" lon="8.828169358894229">
        <ele>941.54999999999995</ele>
        <time>2022-04-10T11:16:23Z</time>
      </trkpt>
      <trkpt lat="46.070736330002546" lon="8.828167179599404">
        <ele>941.57000000000005</ele>
        <time>2022-04-10T11:16:32Z</time>
      </trkpt>
      <trkpt lat="46.070755105465651" lon="8.828144716098905">
        <ele>941.89999999999998</ele>
        <time>2022-04-10T11:16:44Z</time>
      </trkpt>
      <trkpt lat="46.070778993889689" lon="8.828140189871192">
        <ele>941.16999999999996</ele>
        <time>2022-04-10T11:16:55Z</time>
      </trkpt>
      <trkpt lat="46.070801205933094" lon="8.828134741634131">
        <ele>940.97000000000003</ele>
        <time>2022-04-10T11:17:17Z</time>
      </trkpt>
      <trkpt lat="46.070811431854963" lon="8.828140022233129">
        <ele>940.95000000000005</ele>
        <time>2022-04-10T11:17:36Z</time>
      </trkpt>
      <trkpt lat="46.070807576179504" lon="8.828140776604414">
        <ele>940.52999999999997</ele>
        <time>2022-04-10T11:17:46Z</time>
      </trkpt>
      <trkpt lat="46.070792572572827" lon="8.828156283125281">
        <ele>940.38999999999999</ele>
        <time>2022-04-10T11:18:07Z</time>
      </trkpt>
      <trkpt lat="46.070808414369822" lon="8.828129377216101">
        <ele>940.69000000000005</ele>
        <time>2022-04-10T11:18:25Z</time>
      </trkpt>
      <trkpt lat="46.070817047730088" lon="8.828106159344316">
        <ele>940.28999999999996</ele>
        <time>2022-04-10T11:18:45Z</time>
      </trkpt>
      <trkpt lat="46.070779412984848" lon="8.828110685572028">
        <ele>940.75</ele>
        <time>2022-04-10T11:19:12Z</time>
      </trkpt>
      <trkpt lat="46.070787291973829" lon="8.828122755512595">
        <ele>940.94000000000005</ele>
        <time>2022-04-10T11:19:38Z</time>
      </trkpt>
      <trkpt lat="46.070817969739437" lon="8.828115463256836">
        <ele>941.00999999999999</ele>
        <time>2022-04-10T11:19:59Z</time>
      </trkpt>
      <trkpt lat="46.0708078276366" lon="8.828112697228789">
        <ele>941.05999999999995</ele>
        <time>2022-04-10T11:20:20Z</time>
      </trkpt>
      <trkpt lat="46.070792656391859" lon="8.828108254820108">
        <ele>941.07000000000005</ele>
        <time>2022-04-10T11:20:37Z</time>
      </trkpt>
      <trkpt lat="46.070781340822577" lon="8.828105991706252">
        <ele>941.35000000000002</ele>
        <time>2022-04-10T11:20:39Z</time>
      </trkpt>
      <trkpt lat="46.070775389671326" lon="8.828110517933965">
        <ele>941.10000000000002</ele>
        <time>2022-04-10T11:20:56Z</time>
      </trkpt>
      <trkpt lat="46.070793913677335" lon="8.828118313103914">
        <ele>941.48000000000002</ele>
        <time>2022-04-10T11:21:07Z</time>
      </trkpt>
      <trkpt lat="46.070821657776833" lon="8.828130550682545">
        <ele>941.40999999999997</ele>
        <time>2022-04-10T11:21:29Z</time>
      </trkpt>
      <trkpt lat="46.070829536765814" lon="8.8281225040555">
        <ele>941.39999999999998</ele>
        <time>2022-04-10T11:21:47Z</time>
      </trkpt>
      <trkpt lat="46.070829117670655" lon="8.828119235113263">
        <ele>941.55999999999995</ele>
        <time>2022-04-10T11:22:04Z</time>
      </trkpt>
      <trkpt lat="46.070743538439274" lon="8.828112026676536">
        <ele>941.66999999999996</ele>
        <time>2022-04-10T11:22:29Z</time>
      </trkpt>
      <trkpt lat="46.070687128230929" lon="8.828135412186384">
        <ele>942.04999999999995</ele>
        <time>2022-04-10T11:22:55Z</time>
      </trkpt>
      <trkpt lat="46.070732222869992" lon="8.828112445771694">
        <ele>942.38</ele>
        <time>2022-04-10T11:23:11Z</time>
      </trkpt>
      <trkpt lat="46.070833224803209" lon="8.828089730814099">
        <ele>942.28999999999996</ele>
        <time>2022-04-10T11:23:35Z</time>
      </trkpt>
      <trkpt lat="46.070876391604543" lon="8.828064920380712">
        <ele>942.24000000000001</ele>
        <time>2022-04-10T11:24:06Z</time>
      </trkpt>
      <trkpt lat="46.070899944752455" lon="8.828076822683215">
        <ele>942.30999999999995</ele>
        <time>2022-04-10T11:24:29Z</time>
      </trkpt>
      <trkpt lat="46.070964150130749" lon="8.828084450215101">
        <ele>942.52999999999997</ele>
        <time>2022-04-10T11:25:08Z</time>
      </trkpt>
      <trkpt lat="46.070890221744776" lon="8.828073805198073">
        <ele>943.72000000000003</ele>
        <time>2022-04-10T11:25:23Z</time>
      </trkpt>
      <trkpt lat="46.070811850950122" lon="8.828086461871862">
        <ele>943.87</ele>
        <time>2022-04-10T11:25:40Z</time>
      </trkpt>
      <trkpt lat="46.070821741595864" lon="8.828060813248158">
        <ele>943.67999999999995</ele>
        <time>2022-04-10T11:25:43Z</time>
      </trkpt>
      <trkpt lat="46.070873541757464" lon="8.827930558472872">
        <ele>944.77999999999997</ele>
        <time>2022-04-10T11:25:55Z</time>
      </trkpt>
      <trkpt lat="46.070918804034591" lon="8.827826119959354">
        <ele>946.03999999999996</ele>
        <time>2022-04-10T11:26:04Z</time>
      </trkpt>
      <trkpt lat="46.070820149034262" lon="8.827576255425811">
        <ele>948.60000000000002</ele>
        <time>2022-04-10T11:26:20Z</time>
      </trkpt>
      <trkpt lat="46.070844624191523" lon="8.827416244894266">
        <ele>948.95000000000005</ele>
        <time>2022-04-10T11:26:32Z</time>
      </trkpt>
      <trkpt lat="46.070793997496367" lon="8.827405348420143">
        <ele>947.90999999999997</ele>
        <time>2022-04-10T11:26:40Z</time>
      </trkpt>
      <trkpt lat="46.070783520117402" lon="8.827399145811796">
        <ele>947.53999999999996</ele>
        <time>2022-04-10T11:26:43Z</time>
      </trkpt>
      <trkpt lat="46.070788213983178" lon="8.82724148221314">
        <ele>947.34000000000003</ele>
        <time>2022-04-10T11:26:56Z</time>
      </trkpt>
      <trkpt lat="46.0707888007164" lon="8.827226394787431">
        <ele>947.20000000000005</ele>
        <time>2022-04-10T11:27:12Z</time>
      </trkpt>
      <trkpt lat="46.070794081315398" lon="8.82722438313067">
        <ele>945.63</ele>
        <time>2022-04-10T11:27:24Z</time>
      </trkpt>
      <trkpt lat="46.070821238681674" lon="8.827232262119651">
        <ele>946.00999999999999</ele>
        <time>2022-04-10T11:27:51Z</time>
      </trkpt>
      <trkpt lat="46.070829117670655" lon="8.827234609052539">
        <ele>945.85000000000002</ele>
        <time>2022-04-10T11:28:19Z</time>
      </trkpt>
      <trkpt lat="46.070823837071657" lon="8.827224047854543">
        <ele>945.92999999999995</ele>
        <time>2022-04-10T11:28:59Z</time>
      </trkpt>
      <trkpt lat="46.070815287530422" lon="8.82722538895905">
        <ele>946.23000000000002</ele>
        <time>2022-04-10T11:29:38Z</time>
      </trkpt>
      <trkpt lat="46.070817047730088" lon="8.827229076996446">
        <ele>946.53999999999996</ele>
        <time>2022-04-10T11:30:16Z</time>
      </trkpt>
      <trkpt lat="46.070817718282342" lon="8.827238716185093">
        <ele>947.02999999999997</ele>
        <time>2022-04-10T11:30:59Z</time>
      </trkpt>
      <trkpt lat="46.070823837071657" lon="8.827241063117981">
        <ele>947.03999999999996</ele>
        <time>2022-04-10T11:31:43Z</time>
      </trkpt>
      <trkpt lat="46.070828195661306" lon="8.827235531061888">
        <ele>947.09000000000003</ele>
        <time>2022-04-10T11:32:17Z</time>
      </trkpt>
      <trkpt lat="46.070824339985847" lon="8.82723611779511">
        <ele>946.89999999999998</ele>
        <time>2022-04-10T11:32:54Z</time>
      </trkpt>
      <trkpt lat="46.070824842900038" lon="8.827235279604793">
        <ele>947</ele>
        <time>2022-04-10T11:33:33Z</time>
      </trkpt>
      <trkpt lat="46.070830374956131" lon="8.82723418995738">
        <ele>946.71000000000004</ele>
        <time>2022-04-10T11:34:14Z</time>
      </trkpt>
      <trkpt lat="46.070840684697032" lon="8.827240224927664">
        <ele>946.76999999999998</ele>
        <time>2022-04-10T11:35:02Z</time>
      </trkpt>
      <trkpt lat="46.070846300572157" lon="8.827242823317647">
        <ele>946.58000000000004</ele>
        <time>2022-04-10T11:35:45Z</time>
      </trkpt>
      <trkpt lat="46.070860885083675" lon="8.827239973470569">
        <ele>946.33000000000004</ele>
        <time>2022-04-10T11:36:21Z</time>
      </trkpt>
      <trkpt lat="46.070895921438932" lon="8.827228154987097">
        <ele>946.69000000000005</ele>
        <time>2022-04-10T11:36:44Z</time>
      </trkpt>
      <trkpt lat="46.070894664153457" lon="8.827214241027832">
        <ele>946.35000000000002</ele>
        <time>2022-04-10T11:37:03Z</time>
      </trkpt>
      <trkpt lat="46.070855017751455" lon="8.827222120016813">
        <ele>946.50999999999999</ele>
        <time>2022-04-10T11:37:27Z</time>
      </trkpt>
      <trkpt lat="46.070863734930754" lon="8.827225137501955">
        <ele>946.55999999999995</ele>
        <time>2022-04-10T11:38:03Z</time>
      </trkpt>
      <trkpt lat="46.070848647505045" lon="8.82721851579845">
        <ele>946.38999999999999</ele>
        <time>2022-04-10T11:38:28Z</time>
      </trkpt>
      <trkpt lat="46.070845294743776" lon="8.827208373695612">
        <ele>946.44000000000005</ele>
        <time>2022-04-10T11:38:41Z</time>
      </trkpt>
      <trkpt lat="46.070802547037601" lon="8.827210972085595">
        <ele>946.35000000000002</ele>
        <time>2022-04-10T11:39:06Z</time>
      </trkpt>
      <trkpt lat="46.070802379399538" lon="8.827218767255545">
        <ele>946.58000000000004</ele>
        <time>2022-04-10T11:39:39Z</time>
      </trkpt>
      <trkpt lat="46.070807576179504" lon="8.827228071168065">
        <ele>946.57000000000005</ele>
        <time>2022-04-10T11:40:13Z</time>
      </trkpt>
      <trkpt lat="46.070817802101374" lon="8.827228574082255">
        <ele>945.64999999999998</ele>
        <time>2022-04-10T11:40:38Z</time>
      </trkpt>
      <trkpt lat="46.07081662863493" lon="8.827213235199451">
        <ele>945.75</ele>
        <time>2022-04-10T11:40:58Z</time>
      </trkpt>
      <trkpt lat="46.070821741595864" lon="8.827223544940352">
        <ele>946.38</ele>
        <time>2022-04-10T11:41:20Z</time>
      </trkpt>
      <trkpt lat="46.070816293358803" lon="8.827232681214809">
        <ele>946.11000000000001</ele>
        <time>2022-04-10T11:41:57Z</time>
      </trkpt>
      <trkpt lat="46.070809084922075" lon="8.827233854681253">
        <ele>946.84000000000003</ele>
        <time>2022-04-10T11:42:44Z</time>
      </trkpt>
      <trkpt lat="46.070804391056299" lon="8.827241566032171">
        <ele>947.15999999999997</ele>
        <time>2022-04-10T11:43:33Z</time>
      </trkpt>
      <trkpt lat="46.070799781009555" lon="8.827237207442522">
        <ele>946.99000000000001</ele>
        <time>2022-04-10T11:44:18Z</time>
      </trkpt>
      <trkpt lat="46.070803971961141" lon="8.827229747548699">
        <ele>946.61000000000001</ele>
        <time>2022-04-10T11:45:04Z</time>
      </trkpt>
      <trkpt lat="46.07080589979887" lon="8.82722781971097">
        <ele>946.45000000000005</ele>
        <time>2022-04-10T11:45:50Z</time>
      </trkpt>
      <trkpt lat="46.070811012759805" lon="8.82723368704319">
        <ele>947.01999999999998</ele>
        <time>2022-04-10T11:46:37Z</time>
      </trkpt>
      <trkpt lat="46.070808246731758" lon="8.827227987349033">
        <ele>946.74000000000001</ele>
        <time>2022-04-10T11:47:28Z</time>
      </trkpt>
      <trkpt lat="46.070815119892359" lon="8.827234273776412">
        <ele>946.03999999999996</ele>
        <time>2022-04-10T11:48:20Z</time>
      </trkpt>
      <trkpt lat="46.070815119892359" lon="8.827234776690602">
        <ele>946.59000000000003</ele>
        <time>2022-04-10T11:48:42Z</time>
      </trkpt>
      <trkpt lat="46.070804810151458" lon="8.827236536890268">
        <ele>945.91999999999996</ele>
        <time>2022-04-10T11:49:02Z</time>
      </trkpt>
      <trkpt lat="46.070809923112392" lon="8.827225975692272">
        <ele>945.62</ele>
        <time>2022-04-10T11:49:21Z</time>
      </trkpt>
      <trkpt lat="46.070808582007885" lon="8.827224047854543">
        <ele>945.99000000000001</ele>
        <time>2022-04-10T11:49:46Z</time>
      </trkpt>
      <trkpt lat="46.070811180397868" lon="8.827231004834175">
        <ele>946.01999999999998</ele>
        <time>2022-04-10T11:50:25Z</time>
      </trkpt>
      <trkpt lat="46.070802798494697" lon="8.827233435586095">
        <ele>945.48000000000002</ele>
        <time>2022-04-10T11:51:07Z</time>
      </trkpt>
      <trkpt lat="46.070795003324747" lon="8.827232262119651">
        <ele>945.33000000000004</ele>
        <time>2022-04-10T11:51:48Z</time>
      </trkpt>
      <trkpt lat="46.070793829858303" lon="8.8272400572896">
        <ele>944.92999999999995</ele>
        <time>2022-04-10T11:52:32Z</time>
      </trkpt>
      <trkpt lat="46.070785112679005" lon="8.827228238806129">
        <ele>945.09000000000003</ele>
        <time>2022-04-10T11:53:10Z</time>
      </trkpt>
      <trkpt lat="46.070791147649288" lon="8.82722538895905">
        <ele>945.13999999999999</ele>
        <time>2022-04-10T11:53:55Z</time>
      </trkpt>
      <trkpt lat="46.070795590057969" lon="8.827225305140019">
        <ele>944.45000000000005</ele>
        <time>2022-04-10T11:54:38Z</time>
      </trkpt>
      <trkpt lat="46.070798104628921" lon="8.82721901871264">
        <ele>944.71000000000004</ele>
        <time>2022-04-10T11:55:28Z</time>
      </trkpt>
      <trkpt lat="46.070799361914396" lon="8.827209714800119">
        <ele>944.41999999999996</ele>
        <time>2022-04-10T11:56:11Z</time>
      </trkpt>
      <trkpt lat="46.070800367742777" lon="8.827210636809468">
        <ele>944.17999999999995</ele>
        <time>2022-04-10T11:56:47Z</time>
      </trkpt>
      <trkpt lat="46.070803049951792" lon="8.827210133895278">
        <ele>944.04999999999995</ele>
        <time>2022-04-10T11:57:24Z</time>
      </trkpt>
      <trkpt lat="46.070797350257635" lon="8.827201165258884">
        <ele>944.12</ele>
        <time>2022-04-10T11:58:06Z</time>
      </trkpt>
      <trkpt lat="46.070805229246616" lon="8.827202254906297">
        <ele>943.86000000000001</ele>
        <time>2022-04-10T11:58:49Z</time>
      </trkpt>
      <trkpt lat="46.070805480703712" lon="8.827207619324327">
        <ele>943.94000000000005</ele>
        <time>2022-04-10T11:59:23Z</time>
      </trkpt>
      <trkpt lat="46.070795254781842" lon="8.827203596010804">
        <ele>943.69000000000005</ele>
        <time>2022-04-10T12:00:08Z</time>
      </trkpt>
      <trkpt lat="46.070793243125081" lon="8.827193789184094">
        <ele>943.87</ele>
        <time>2022-04-10T12:00:41Z</time>
      </trkpt>
      <trkpt lat="46.070787711068988" lon="8.827195800840855">
        <ele>944.07000000000005</ele>
        <time>2022-04-10T12:01:16Z</time>
      </trkpt>
      <trkpt lat="46.070779832080007" lon="8.827205104753375">
        <ele>944.09000000000003</ele>
        <time>2022-04-10T12:01:56Z</time>
      </trkpt>
      <trkpt lat="46.070782179012895" lon="8.827201668173075">
        <ele>944.69000000000005</ele>
        <time>2022-04-10T12:02:28Z</time>
      </trkpt>
      <trkpt lat="46.070792656391859" lon="8.827196136116982">
        <ele>944.60000000000002</ele>
        <time>2022-04-10T12:02:58Z</time>
      </trkpt>
      <trkpt lat="46.070782514289021" lon="8.827206445857883">
        <ele>944.62</ele>
        <time>2022-04-10T12:03:15Z</time>
      </trkpt>
      <trkpt lat="46.070790477097034" lon="8.827207870781422">
        <ele>944.76999999999998</ele>
        <time>2022-04-10T12:03:24Z</time>
      </trkpt>
      <trkpt lat="46.070791566744447" lon="8.8272107206285">
        <ele>944.84000000000003</ele>
        <time>2022-04-10T12:03:31Z</time>
      </trkpt>
      <trkpt lat="46.070789974182844" lon="8.827215079218149">
        <ele>944.88999999999999</ele>
        <time>2022-04-10T12:03:38Z</time>
      </trkpt>
      <trkpt lat="46.070784442126751" lon="8.827237458899617">
        <ele>944.84000000000003</ele>
        <time>2022-04-10T12:03:47Z</time>
      </trkpt>
      <trkpt lat="46.070783687755466" lon="8.827229412272573">
        <ele>944.87</ele>
        <time>2022-04-10T12:03:55Z</time>
      </trkpt>
      <trkpt lat="46.070787375792861" lon="8.827225975692272">
        <ele>944.75</ele>
        <time>2022-04-10T12:04:06Z</time>
      </trkpt>
      <trkpt lat="46.070779077708721" lon="8.827227149158716">
        <ele>944.77999999999997</ele>
        <time>2022-04-10T12:04:14Z</time>
      </trkpt>
      <trkpt lat="46.070783771574497" lon="8.827225640416145">
        <ele>944.62</ele>
        <time>2022-04-10T12:04:20Z</time>
      </trkpt>
      <trkpt lat="46.070779329165816" lon="8.827244751155376">
        <ele>944.78999999999996</ele>
        <time>2022-04-10T12:04:42Z</time>
      </trkpt>
      <trkpt lat="46.070785447955132" lon="8.827235028147697">
        <ele>944.95000000000005</ele>
        <time>2022-04-10T12:04:52Z</time>
      </trkpt>
      <trkpt lat="46.070786034688354" lon="8.827251037582755">
        <ele>944.78999999999996</ele>
        <time>2022-04-10T12:05:11Z</time>
      </trkpt>
      <trkpt lat="46.070782095193863" lon="8.827244164422154">
        <ele>944.77999999999997</ele>
        <time>2022-04-10T12:05:18Z</time>
      </trkpt>
      <trkpt lat="46.070778910070658" lon="8.827246930450201">
        <ele>944.84000000000003</ele>
        <time>2022-04-10T12:05:31Z</time>
      </trkpt>
      <trkpt lat="46.070778071880341" lon="8.827243912965059">
        <ele>944.79999999999995</ele>
        <time>2022-04-10T12:05:42Z</time>
      </trkpt>
      <trkpt lat="46.070772791281343" lon="8.827233603224158">
        <ele>944.74000000000001</ele>
        <time>2022-04-10T12:05:49Z</time>
      </trkpt>
      <trkpt lat="46.070775389671326" lon="8.827230082824826">
        <ele>944.58000000000004</ele>
        <time>2022-04-10T12:05:58Z</time>
      </trkpt>
      <trkpt lat="46.070789135992527" lon="8.827215079218149">
        <ele>944.07000000000005</ele>
        <time>2022-04-10T12:06:07Z</time>
      </trkpt>
      <trkpt lat="46.070800116285682" lon="8.827205691486597">
        <ele>944.15999999999997</ele>
        <time>2022-04-10T12:06:13Z</time>
      </trkpt>
      <trkpt lat="46.070798691362143" lon="8.827208541333675">
        <ele>944.46000000000004</ele>
        <time>2022-04-10T12:06:20Z</time>
      </trkpt>
      <trkpt lat="46.070793578401208" lon="8.827215246856213">
        <ele>944.23000000000002</ele>
        <time>2022-04-10T12:06:28Z</time>
      </trkpt>
      <trkpt lat="46.070791566744447" lon="8.827219353988767">
        <ele>944.85000000000002</ele>
        <time>2022-04-10T12:06:36Z</time>
      </trkpt>
      <trkpt lat="46.070786872878671" lon="8.827220275998116">
        <ele>944.83000000000004</ele>
        <time>2022-04-10T12:06:42Z</time>
      </trkpt>
      <trkpt lat="46.070793578401208" lon="8.82721021771431">
        <ele>944.88</ele>
        <time>2022-04-10T12:06:50Z</time>
      </trkpt>
      <trkpt lat="46.070783603936434" lon="8.827218851074576">
        <ele>944.32000000000005</ele>
        <time>2022-04-10T12:07:02Z</time>
      </trkpt>
      <trkpt lat="46.070773880928755" lon="8.827218348160386">
        <ele>944.29999999999995</ele>
        <time>2022-04-10T12:07:11Z</time>
      </trkpt>
      <trkpt lat="46.07076239772141" lon="8.827221617102623">
        <ele>944.28999999999996</ele>
        <time>2022-04-10T12:07:17Z</time>
      </trkpt>
      <trkpt lat="46.070768600329757" lon="8.827220359817147">
        <ele>944.59000000000003</ele>
        <time>2022-04-10T12:07:25Z</time>
      </trkpt>
      <trkpt lat="46.070771366357803" lon="8.827219102531672">
        <ele>944.44000000000005</ele>
        <time>2022-04-10T12:07:31Z</time>
      </trkpt>
      <trkpt lat="46.070760302245617" lon="8.827240811660886">
        <ele>944.32000000000005</ele>
        <time>2022-04-10T12:07:39Z</time>
      </trkpt>
      <trkpt lat="46.070766672492027" lon="8.827246511355043">
        <ele>943.89999999999998</ele>
        <time>2022-04-10T12:07:51Z</time>
      </trkpt>
      <trkpt lat="46.070780837908387" lon="8.827244834974408">
        <ele>944.09000000000003</ele>
        <time>2022-04-10T12:08:03Z</time>
      </trkpt>
      <trkpt lat="46.070783017203212" lon="8.827241817489266">
        <ele>944.25</ele>
        <time>2022-04-10T12:08:16Z</time>
      </trkpt>
      <trkpt lat="46.070778407156467" lon="8.827243996784091">
        <ele>944.33000000000004</ele>
        <time>2022-04-10T12:08:22Z</time>
      </trkpt>
      <trkpt lat="46.070775808766484" lon="8.827251791954041">
        <ele>944.20000000000005</ele>
        <time>2022-04-10T12:08:29Z</time>
      </trkpt>
      <trkpt lat="46.070787375792861" lon="8.827247181907296">
        <ele>944.34000000000003</ele>
        <time>2022-04-10T12:08:36Z</time>
      </trkpt>
      <trkpt lat="46.070789135992527" lon="8.827250367030501">
        <ele>943.88999999999999</ele>
        <time>2022-04-10T12:08:45Z</time>
      </trkpt>
      <trkpt lat="46.070798020809889" lon="8.827237794175744">
        <ele>944.15999999999997</ele>
        <time>2022-04-10T12:08:53Z</time>
      </trkpt>
      <trkpt lat="46.070801289752126" lon="8.827227987349033">
        <ele>944.04999999999995</ele>
        <time>2022-04-10T12:09:03Z</time>
      </trkpt>
      <trkpt lat="46.070798607543111" lon="8.827222790569067">
        <ele>943.91999999999996</ele>
        <time>2022-04-10T12:09:15Z</time>
      </trkpt>
      <trkpt lat="46.070804223418236" lon="8.827212816104293">
        <ele>943.78999999999996</ele>
        <time>2022-04-10T12:09:24Z</time>
      </trkpt>
      <trkpt lat="46.070803804323077" lon="8.82719655521214">
        <ele>943.79999999999995</ele>
        <time>2022-04-10T12:09:46Z</time>
      </trkpt>
      <trkpt lat="46.070797266438603" lon="8.82719848304987">
        <ele>943.78999999999996</ele>
        <time>2022-04-10T12:10:00Z</time>
      </trkpt>
      <trkpt lat="46.070798859000206" lon="8.827196722850204">
        <ele>944.05999999999995</ele>
        <time>2022-04-10T12:10:20Z</time>
      </trkpt>
      <trkpt lat="46.070791902020574" lon="8.827208206057549">
        <ele>943.95000000000005</ele>
        <time>2022-04-10T12:10:44Z</time>
      </trkpt>
      <trkpt lat="46.070787459611893" lon="8.827216336503625">
        <ele>943.72000000000003</ele>
        <time>2022-04-10T12:11:03Z</time>
      </trkpt>
      <trkpt lat="46.070789638906717" lon="8.827214324846864">
        <ele>943.59000000000003</ele>
        <time>2022-04-10T12:11:27Z</time>
      </trkpt>
      <trkpt lat="46.070783520117402" lon="8.827218180522323">
        <ele>943.89999999999998</ele>
        <time>2022-04-10T12:11:47Z</time>
      </trkpt>
      <trkpt lat="46.070780670270324" lon="8.827219186350703">
        <ele>943.48000000000002</ele>
        <time>2022-04-10T12:12:08Z</time>
      </trkpt>
      <trkpt lat="46.070773461833596" lon="8.827222371473908">
        <ele>943.69000000000005</ele>
        <time>2022-04-10T12:12:32Z</time>
      </trkpt>
      <trkpt lat="46.070775808766484" lon="8.827226981520653">
        <ele>943.53999999999996</ele>
        <time>2022-04-10T12:12:55Z</time>
      </trkpt>
      <trkpt lat="46.070749489590526" lon="8.827243410050869">
        <ele>943.64999999999998</ele>
        <time>2022-04-10T12:13:23Z</time>
      </trkpt>
      <trkpt lat="46.070763822644949" lon="8.827264029532671">
        <ele>943.62</ele>
        <time>2022-04-10T12:13:36Z</time>
      </trkpt>
      <trkpt lat="46.070761727169156" lon="8.827240560203791">
        <ele>943.53999999999996</ele>
        <time>2022-04-10T12:13:54Z</time>
      </trkpt>
      <trkpt lat="46.07075166888535" lon="8.827226897701621">
        <ele>943.42999999999995</ele>
        <time>2022-04-10T12:14:00Z</time>
      </trkpt>
      <trkpt lat="46.070753345265985" lon="8.827238883823156">
        <ele>943.38</ele>
        <time>2022-04-10T12:14:07Z</time>
      </trkpt>
      <trkpt lat="46.070747980847955" lon="8.827233770862222">
        <ele>943.60000000000002</ele>
        <time>2022-04-10T12:14:16Z</time>
      </trkpt>
      <trkpt lat="46.070733396336436" lon="8.827222120016813">
        <ele>943.50999999999999</ele>
        <time>2022-04-10T12:14:23Z</time>
      </trkpt>
      <trkpt lat="46.070729205384851" lon="8.827228406444192">
        <ele>943.38999999999999</ele>
        <time>2022-04-10T12:14:30Z</time>
      </trkpt>
      <trkpt lat="46.070721158757806" lon="8.827230334281921">
        <ele>943.33000000000004</ele>
        <time>2022-04-10T12:14:37Z</time>
      </trkpt>
      <trkpt lat="46.070726690813899" lon="8.827246259897947">
        <ele>943.62</ele>
        <time>2022-04-10T12:14:44Z</time>
      </trkpt>
      <trkpt lat="46.070715878158808" lon="8.827234609052539">
        <ele>943.95000000000005</ele>
        <time>2022-04-10T12:14:54Z</time>
      </trkpt>
      <trkpt lat="46.070712860673666" lon="8.827252043411136">
        <ele>943.70000000000005</ele>
        <time>2022-04-10T12:15:04Z</time>
      </trkpt>
      <trkpt lat="46.070726187899709" lon="8.827238967642188">
        <ele>943.71000000000004</ele>
        <time>2022-04-10T12:15:14Z</time>
      </trkpt>
      <trkpt lat="46.070739347487688" lon="8.827226897701621">
        <ele>943.75</ele>
        <time>2022-04-10T12:15:24Z</time>
      </trkpt>
      <trkpt lat="46.070737838745117" lon="8.827206529676914">
        <ele>943.75</ele>
        <time>2022-04-10T12:15:34Z</time>
      </trkpt>
      <trkpt lat="46.07074337080121" lon="8.827190520241857">
        <ele>944.00999999999999</ele>
        <time>2022-04-10T12:15:39Z</time>
      </trkpt>
      <trkpt lat="46.07075116597116" lon="8.827180545777082">
        <ele>943.86000000000001</ele>
        <time>2022-04-10T12:15:44Z</time>
      </trkpt>
      <trkpt lat="46.07075753621757" lon="8.827180797234178">
        <ele>944.15999999999997</ele>
        <time>2022-04-10T12:15:52Z</time>
      </trkpt>
      <trkpt lat="46.070751333609223" lon="8.82716529071331">
        <ele>944.11000000000001</ele>
        <time>2022-04-10T12:16:03Z</time>
      </trkpt>
      <trkpt lat="46.070747980847955" lon="8.827171744778752">
        <ele>943.83000000000004</ele>
        <time>2022-04-10T12:16:11Z</time>
      </trkpt>
      <trkpt lat="46.070757871493697" lon="8.827175851911306">
        <ele>944.01999999999998</ele>
        <time>2022-04-10T12:16:17Z</time>
      </trkpt>
      <trkpt lat="46.070754937827587" lon="8.827161015942693">
        <ele>944.32000000000005</ele>
        <time>2022-04-10T12:16:26Z</time>
      </trkpt>
      <trkpt lat="46.070774048566818" lon="8.827161183580756">
        <ele>944.32000000000005</ele>
        <time>2022-04-10T12:16:34Z</time>
      </trkpt>
      <trkpt lat="46.070790560916066" lon="8.827162273228169">
        <ele>944.38999999999999</ele>
        <time>2022-04-10T12:16:41Z</time>
      </trkpt>
      <trkpt lat="46.070814533159137" lon="8.827180294319987">
        <ele>944.09000000000003</ele>
        <time>2022-04-10T12:16:52Z</time>
      </trkpt>
      <trkpt lat="46.070819813758135" lon="8.827176941558719">
        <ele>944.30999999999995</ele>
        <time>2022-04-10T12:17:02Z</time>
      </trkpt>
      <trkpt lat="46.070817047730088" lon="8.827190855517983">
        <ele>944.20000000000005</ele>
        <time>2022-04-10T12:17:18Z</time>
      </trkpt>
      <trkpt lat="46.070807408541441" lon="8.827200997620821">
        <ele>944.27999999999997</ele>
        <time>2022-04-10T12:17:34Z</time>
      </trkpt>
      <trkpt lat="46.070788130164146" lon="8.827194962650538">
        <ele>944.26999999999998</ele>
        <time>2022-04-10T12:17:54Z</time>
      </trkpt>
      <trkpt lat="46.070779077708721" lon="8.827218012884259">
        <ele>944.65999999999997</ele>
        <time>2022-04-10T12:18:02Z</time>
      </trkpt>
      <trkpt lat="46.070751752704382" lon="8.827216504141688">
        <ele>945.63999999999999</ele>
        <time>2022-04-10T12:18:18Z</time>
      </trkpt>
      <trkpt lat="46.070736162364483" lon="8.827219186350703">
        <ele>945.30999999999995</ele>
        <time>2022-04-10T12:18:34Z</time>
      </trkpt>
      <trkpt lat="46.070730881765485" lon="8.827212899923325">
        <ele>944.88999999999999</ele>
        <time>2022-04-10T12:18:43Z</time>
      </trkpt>
      <trkpt lat="46.070741778239608" lon="8.827176941558719">
        <ele>945.41999999999996</ele>
        <time>2022-04-10T12:18:58Z</time>
      </trkpt>
      <trkpt lat="46.070756781846285" lon="8.827156573534012">
        <ele>945.08000000000004</ele>
        <time>2022-04-10T12:19:12Z</time>
      </trkpt>
      <trkpt lat="46.070766923949122" lon="8.827138217166066">
        <ele>945.25999999999999</ele>
        <time>2022-04-10T12:19:16Z</time>
      </trkpt>
      <trkpt lat="46.070819981396198" lon="8.827109718695283">
        <ele>945.60000000000002</ele>
        <time>2022-04-10T12:19:23Z</time>
      </trkpt>
      <trkpt lat="46.070943111553788" lon="8.827160429209471">
        <ele>946.42999999999995</ele>
        <time>2022-04-10T12:19:36Z</time>
      </trkpt>
      <trkpt lat="46.070898938924074" lon="8.827262772247195">
        <ele>946.75</ele>
        <time>2022-04-10T12:19:42Z</time>
      </trkpt>
      <trkpt lat="46.070918384939432" lon="8.827267466112971">
        <ele>946.87</ele>
        <time>2022-04-10T12:19:44Z</time>
      </trkpt>
      <trkpt lat="46.070958701893687" lon="8.827152634039521">
        <ele>948.72000000000003</ele>
        <time>2022-04-10T12:19:55Z</time>
      </trkpt>
      <trkpt lat="46.070964736863971" lon="8.82714232429862">
        <ele>948.84000000000003</ele>
        <time>2022-04-10T12:19:56Z</time>
      </trkpt>
      <trkpt lat="46.071023996919394" lon="8.827088847756386">
        <ele>949.11000000000001</ele>
        <time>2022-04-10T12:20:05Z</time>
      </trkpt>
      <trkpt lat="46.071098428219557" lon="8.826993461698294">
        <ele>947.54999999999995</ele>
        <time>2022-04-10T12:20:19Z</time>
      </trkpt>
      <trkpt lat="46.071206051856279" lon="8.82697032764554">
        <ele>944.90999999999997</ele>
        <time>2022-04-10T12:20:33Z</time>
      </trkpt>
      <trkpt lat="46.071271263062954" lon="8.826940739527345">
        <ele>943.32000000000005</ele>
        <time>2022-04-10T12:20:45Z</time>
      </trkpt>
      <trkpt lat="46.071383329108357" lon="8.826933614909649">
        <ele>940.64999999999998</ele>
        <time>2022-04-10T12:21:00Z</time>
      </trkpt>
      <trkpt lat="46.071478882804513" lon="8.826905703172088">
        <ele>938.42999999999995</ele>
        <time>2022-04-10T12:21:14Z</time>
      </trkpt>
      <trkpt lat="46.07158474624157" lon="8.82689748890698">
        <ele>935.39999999999998</ele>
        <time>2022-04-10T12:21:30Z</time>
      </trkpt>
      <trkpt lat="46.071652723476291" lon="8.826898075640202">
        <ele>932.38</ele>
        <time>2022-04-10T12:21:40Z</time>
      </trkpt>
      <trkpt lat="46.071725897490978" lon="8.826911151409149">
        <ele>929.38</ele>
        <time>2022-04-10T12:21:54Z</time>
      </trkpt>
      <trkpt lat="46.071787839755416" lon="8.8269585929811">
        <ele>926.55999999999995</ele>
        <time>2022-04-10T12:22:06Z</time>
      </trkpt>
      <trkpt lat="46.071849195286632" lon="8.827019361779094">
        <ele>923.33000000000004</ele>
        <time>2022-04-10T12:22:20Z</time>
      </trkpt>
      <trkpt lat="46.071929661557078" lon="8.82697912864387">
        <ele>920.54999999999995</ele>
        <time>2022-04-10T12:22:33Z</time>
      </trkpt>
      <trkpt lat="46.071945000439882" lon="8.826945684850216">
        <ele>920.13999999999999</ele>
        <time>2022-04-10T12:22:36Z</time>
      </trkpt>
      <trkpt lat="46.071999734267592" lon="8.826889107003808">
        <ele>919.72000000000003</ele>
        <time>2022-04-10T12:22:48Z</time>
      </trkpt>
      <trkpt lat="46.072011636570096" lon="8.826886424794793">
        <ele>919.45000000000005</ele>
        <time>2022-04-10T12:23:02Z</time>
      </trkpt>
      <trkpt lat="46.072025550529361" lon="8.826886424794793">
        <ele>920.38999999999999</ele>
        <time>2022-04-10T12:23:18Z</time>
      </trkpt>
      <trkpt lat="46.071997974067926" lon="8.826947109773755">
        <ele>920.17999999999995</ele>
        <time>2022-04-10T12:23:33Z</time>
      </trkpt>
      <trkpt lat="46.071980958804488" lon="8.826916264370084">
        <ele>920.00999999999999</ele>
        <time>2022-04-10T12:23:50Z</time>
      </trkpt>
      <trkpt lat="46.071950113400817" lon="8.826897321268916">
        <ele>919.30999999999995</ele>
        <time>2022-04-10T12:23:54Z</time>
      </trkpt>
      <trkpt lat="46.071976684033871" lon="8.826818866655231">
        <ele>919.29999999999995</ele>
        <time>2022-04-10T12:23:59Z</time>
      </trkpt>
      <trkpt lat="46.072029070928693" lon="8.82678315974772">
        <ele>919.39999999999998</ele>
        <time>2022-04-10T12:24:04Z</time>
      </trkpt>
      <trkpt lat="46.072059161961079" lon="8.826795816421509">
        <ele>919.55999999999995</ele>
        <time>2022-04-10T12:24:07Z</time>
      </trkpt>
      <trkpt lat="46.072184555232525" lon="8.826797660440207">
        <ele>916.77999999999997</ele>
        <time>2022-04-10T12:24:18Z</time>
      </trkpt>
      <trkpt lat="46.072226548567414" lon="8.826809646561742">
        <ele>915.92999999999995</ele>
        <time>2022-04-10T12:24:22Z</time>
      </trkpt>
      <trkpt lat="46.072272146120667" lon="8.826804952695966">
        <ele>915.27999999999997</ele>
        <time>2022-04-10T12:24:26Z</time>
      </trkpt>
      <trkpt lat="46.072293184697628" lon="8.826776873320341">
        <ele>914.03999999999996</ele>
        <time>2022-04-10T12:24:29Z</time>
      </trkpt>
      <trkpt lat="46.072334758937359" lon="8.826621389016509">
        <ele>910.86000000000001</ele>
        <time>2022-04-10T12:24:44Z</time>
      </trkpt>
      <trkpt lat="46.072405083104968" lon="8.82646020501852">
        <ele>907.72000000000003</ele>
        <time>2022-04-10T12:24:57Z</time>
      </trkpt>
      <trkpt lat="46.07245503924787" lon="8.826354844495654">
        <ele>904.70000000000005</ele>
        <time>2022-04-10T12:25:08Z</time>
      </trkpt>
      <trkpt lat="46.072457134723663" lon="8.826309917494655">
        <ele>903.73000000000002</ele>
        <time>2022-04-10T12:25:12Z</time>
      </trkpt>
      <trkpt lat="46.072490578517318" lon="8.826216710731387">
        <ele>902.23000000000002</ele>
        <time>2022-04-10T12:25:23Z</time>
      </trkpt>
      <trkpt lat="46.072521675378084" lon="8.82620707154274">
        <ele>902.88999999999999</ele>
        <time>2022-04-10T12:25:39Z</time>
      </trkpt>
      <trkpt lat="46.072528129443526" lon="8.826118223369122">
        <ele>901.64999999999998</ele>
        <time>2022-04-10T12:25:57Z</time>
      </trkpt>
      <trkpt lat="46.072537433356047" lon="8.826072458177805">
        <ele>901.21000000000004</ele>
        <time>2022-04-10T12:26:00Z</time>
      </trkpt>
      <trkpt lat="46.072571631520987" lon="8.825981263071299">
        <ele>900.22000000000003</ele>
        <time>2022-04-10T12:26:06Z</time>
      </trkpt>
      <trkpt lat="46.072655785828829" lon="8.825805243104696">
        <ele>897.03999999999996</ele>
        <time>2022-04-10T12:26:20Z</time>
      </trkpt>
      <trkpt lat="46.072681769728661" lon="8.82572821341455">
        <ele>896.04999999999995</ele>
        <time>2022-04-10T12:26:30Z</time>
      </trkpt>
      <trkpt lat="46.072745136916637" lon="8.825640454888344">
        <ele>894.01999999999998</ele>
        <time>2022-04-10T12:26:44Z</time>
      </trkpt>
      <trkpt lat="46.072802469134331" lon="8.82551958784461">
        <ele>891.16999999999996</ele>
        <time>2022-04-10T12:26:58Z</time>
      </trkpt>
      <trkpt lat="46.072843624278903" lon="8.825356895104051">
        <ele>887.91999999999996</ele>
        <time>2022-04-10T12:27:11Z</time>
      </trkpt>
      <trkpt lat="46.072901878505945" lon="8.825234603136778">
        <ele>885.88999999999999</ele>
        <time>2022-04-10T12:27:24Z</time>
      </trkpt>
      <trkpt lat="46.072913948446512" lon="8.825141983106732">
        <ele>884.99000000000001</ele>
        <time>2022-04-10T12:27:31Z</time>
      </trkpt>
      <trkpt lat="46.072937417775393" lon="8.824992114678025">
        <ele>885.20000000000005</ele>
        <time>2022-04-10T12:27:42Z</time>
      </trkpt>
      <trkpt lat="46.072960803285241" lon="8.824906535446644">
        <ele>885.39999999999998</ele>
        <time>2022-04-10T12:27:48Z</time>
      </trkpt>
      <trkpt lat="46.073015704751015" lon="8.824747195467353">
        <ele>883.58000000000004</ele>
        <time>2022-04-10T12:28:00Z</time>
      </trkpt>
      <trkpt lat="46.072996007278562" lon="8.824670920148492">
        <ele>880.37</ele>
        <time>2022-04-10T12:28:12Z</time>
      </trkpt>
      <trkpt lat="46.073005897924304" lon="8.82458726875484">
        <ele>877.98000000000002</ele>
        <time>2022-04-10T12:28:24Z</time>
      </trkpt>
      <trkpt lat="46.073081251233816" lon="8.824506467208266">
        <ele>874.84000000000003</ele>
        <time>2022-04-10T12:28:35Z</time>
      </trkpt>
      <trkpt lat="46.073174122720957" lon="8.824396412819624">
        <ele>871.79999999999995</ele>
        <time>2022-04-10T12:28:49Z</time>
      </trkpt>
      <trkpt lat="46.073259701952338" lon="8.824271187186241">
        <ele>869.25</ele>
        <time>2022-04-10T12:29:03Z</time>
      </trkpt>
      <trkpt lat="46.073340335860848" lon="8.824167838320136">
        <ele>866.73000000000002</ele>
        <time>2022-04-10T12:29:15Z</time>
      </trkpt>
      <trkpt lat="46.073436560109258" lon="8.824038757011294">
        <ele>864.26999999999998</ele>
        <time>2022-04-10T12:29:29Z</time>
      </trkpt>
      <trkpt lat="46.073507806286216" lon="8.823931887745857">
        <ele>861.19000000000005</ele>
        <time>2022-04-10T12:29:40Z</time>
      </trkpt>
      <trkpt lat="46.073576873168349" lon="8.823806578293443">
        <ele>858.83000000000004</ele>
        <time>2022-04-10T12:29:53Z</time>
      </trkpt>
      <trkpt lat="46.073612915351987" lon="8.823665259405971">
        <ele>855.41999999999996</ele>
        <time>2022-04-10T12:30:09Z</time>
      </trkpt>
      <trkpt lat="46.073575532063842" lon="8.823658637702465">
        <ele>853.00999999999999</ele>
        <time>2022-04-10T12:30:17Z</time>
      </trkpt>
      <trkpt lat="46.07358961366117" lon="8.823585212230682">
        <ele>850.96000000000004</ele>
        <time>2022-04-10T12:30:27Z</time>
      </trkpt>
      <trkpt lat="46.073539154604077" lon="8.823590744286776">
        <ele>849.25999999999999</ele>
        <time>2022-04-10T12:30:36Z</time>
      </trkpt>
      <trkpt lat="46.073510739952326" lon="8.823552271351218">
        <ele>847.57000000000005</ele>
        <time>2022-04-10T12:30:44Z</time>
      </trkpt>
      <trkpt lat="46.073485258966684" lon="8.823519498109818">
        <ele>845.29999999999995</ele>
        <time>2022-04-10T12:30:54Z</time>
      </trkpt>
      <trkpt lat="46.073481487110257" lon="8.823513127863407">
        <ele>845.01999999999998</ele>
        <time>2022-04-10T12:30:56Z</time>
      </trkpt>
      <trkpt lat="46.073486683890224" lon="8.823461076244712">
        <ele>843.14999999999998</ele>
        <time>2022-04-10T12:31:04Z</time>
      </trkpt>
      <trkpt lat="46.073497664183378" lon="8.823436936363578">
        <ele>843.03999999999996</ele>
        <time>2022-04-10T12:31:06Z</time>
      </trkpt>
      <trkpt lat="46.073562037199736" lon="8.823334844782949">
        <ele>842.21000000000004</ele>
        <time>2022-04-10T12:31:16Z</time>
      </trkpt>
      <trkpt lat="46.073596654459834" lon="8.823161758482456">
        <ele>839.40999999999997</ele>
        <time>2022-04-10T12:31:30Z</time>
      </trkpt>
      <trkpt lat="46.073606293648481" lon="8.823059080168605">
        <ele>838.46000000000004</ele>
        <time>2022-04-10T12:31:38Z</time>
      </trkpt>
      <trkpt lat="46.073623476549983" lon="8.82300116121769">
        <ele>837.05999999999995</ele>
        <time>2022-04-10T12:31:43Z</time>
      </trkpt>
      <trkpt lat="46.073626326397061" lon="8.822866966947913">
        <ele>833.87</ele>
        <time>2022-04-10T12:31:53Z</time>
      </trkpt>
      <trkpt lat="46.073672426864505" lon="8.822757080197334">
        <ele>830.59000000000003</ele>
        <time>2022-04-10T12:32:04Z</time>
      </trkpt>
      <trkpt lat="46.073664966970682" lon="8.822715589776635">
        <ele>829.80999999999995</ele>
        <time>2022-04-10T12:32:09Z</time>
      </trkpt>
      <trkpt lat="46.073647113516927" lon="8.822660855948925">
        <ele>828.41999999999996</ele>
        <time>2022-04-10T12:32:15Z</time>
      </trkpt>
      <trkpt lat="46.073646526783705" lon="8.822566559538245">
        <ele>826.54999999999995</ele>
        <time>2022-04-10T12:32:24Z</time>
      </trkpt>
      <trkpt lat="46.073666643351316" lon="8.822465306147933">
        <ele>823.54999999999995</ele>
        <time>2022-04-10T12:32:39Z</time>
      </trkpt>
      <trkpt lat="46.073644766584039" lon="8.82237478159368">
        <ele>820.38999999999999</ele>
        <time>2022-04-10T12:32:51Z</time>
      </trkpt>
      <trkpt lat="46.073633283376694" lon="8.822307139635086">
        <ele>819.14999999999998</ele>
        <time>2022-04-10T12:32:57Z</time>
      </trkpt>
      <trkpt lat="46.073622554540634" lon="8.822218123823404">
        <ele>815.82000000000005</ele>
        <time>2022-04-10T12:33:06Z</time>
      </trkpt>
      <trkpt lat="46.073588272556663" lon="8.82211678661406">
        <ele>813.30999999999995</ele>
        <time>2022-04-10T12:33:16Z</time>
      </trkpt>
      <trkpt lat="46.073600677773356" lon="8.822016539052129">
        <ele>810.35000000000002</ele>
        <time>2022-04-10T12:33:26Z</time>
      </trkpt>
      <trkpt lat="46.073573436588049" lon="8.821981670334935">
        <ele>808.82000000000005</ele>
        <time>2022-04-10T12:33:36Z</time>
      </trkpt>
      <trkpt lat="46.073570167645812" lon="8.821945963427424">
        <ele>807</ele>
        <time>2022-04-10T12:33:44Z</time>
      </trkpt>
      <trkpt lat="46.073554661124945" lon="8.821941688656807">
        <ele>806.27999999999997</ele>
        <time>2022-04-10T12:33:48Z</time>
      </trkpt>
      <trkpt lat="46.073559438809752" lon="8.821903550997376">
        <ele>804.76999999999998</ele>
        <time>2022-04-10T12:33:55Z</time>
      </trkpt>
      <trkpt lat="46.073575029149652" lon="8.82189441472292">
        <ele>803.83000000000004</ele>
        <time>2022-04-10T12:33:58Z</time>
      </trkpt>
      <trkpt lat="46.073632026091218" lon="8.821869771927595">
        <ele>801.98000000000002</ele>
        <time>2022-04-10T12:34:09Z</time>
      </trkpt>
      <trkpt lat="46.073549129068851" lon="8.821789724752307">
        <ele>800.10000000000002</ele>
        <time>2022-04-10T12:34:21Z</time>
      </trkpt>
      <trkpt lat="46.073546782135963" lon="8.821782264858484">
        <ele>799.64999999999998</ele>
        <time>2022-04-10T12:34:22Z</time>
      </trkpt>
      <trkpt lat="46.073590368032455" lon="8.821739181876183">
        <ele>797.84000000000003</ele>
        <time>2022-04-10T12:34:33Z</time>
      </trkpt>
      <trkpt lat="46.073616435751319" lon="8.821675730869174">
        <ele>794.83000000000004</ele>
        <time>2022-04-10T12:34:45Z</time>
      </trkpt>
      <trkpt lat="46.073561366647482" lon="8.821590822190046">
        <ele>791.88</ele>
        <time>2022-04-10T12:34:58Z</time>
      </trkpt>
      <trkpt lat="46.07352658174932" lon="8.821558216586709">
        <ele>790.45000000000005</ele>
        <time>2022-04-10T12:35:06Z</time>
      </trkpt>
      <trkpt lat="46.073516439646482" lon="8.821541788056493">
        <ele>789.37</ele>
        <time>2022-04-10T12:35:10Z</time>
      </trkpt>
      <trkpt lat="46.073534125462174" lon="8.821497363969684">
        <ele>787.98000000000002</ele>
        <time>2022-04-10T12:35:20Z</time>
      </trkpt>
      <trkpt lat="46.073511326685548" lon="8.821450844407082">
        <ele>785.87</ele>
        <time>2022-04-10T12:35:29Z</time>
      </trkpt>
      <trkpt lat="46.073460699990392" lon="8.821441624313593">
        <ele>783.75</ele>
        <time>2022-04-10T12:35:39Z</time>
      </trkpt>
      <trkpt lat="46.073450725525618" lon="8.82144589908421">
        <ele>783.35000000000002</ele>
        <time>2022-04-10T12:35:41Z</time>
      </trkpt>
      <trkpt lat="46.073427926748991" lon="8.821439109742641">
        <ele>781.78999999999996</ele>
        <time>2022-04-10T12:35:49Z</time>
      </trkpt>
      <trkpt lat="46.073451731353998" lon="8.821398708969355">
        <ele>780.58000000000004</ele>
        <time>2022-04-10T12:35:57Z</time>
      </trkpt>
      <trkpt lat="46.073456341400743" lon="8.821392003446817">
        <ele>780.42999999999995</ele>
        <time>2022-04-10T12:35:58Z</time>
      </trkpt>
      <trkpt lat="46.073505794629455" lon="8.821311118081212">
        <ele>778.69000000000005</ele>
        <time>2022-04-10T12:36:07Z</time>
      </trkpt>
      <trkpt lat="46.073503196239471" lon="8.82125336676836">
        <ele>777.20000000000005</ele>
        <time>2022-04-10T12:36:17Z</time>
      </trkpt>
      <trkpt lat="46.073447540402412" lon="8.821262922137976">
        <ele>775.08000000000004</ele>
        <time>2022-04-10T12:36:26Z</time>
      </trkpt>
      <trkpt lat="46.073415102437139" lon="8.821233082562685">
        <ele>772.67999999999995</ele>
        <time>2022-04-10T12:36:35Z</time>
      </trkpt>
      <trkpt lat="46.073484336957335" lon="8.821107689291239">
        <ele>770.35000000000002</ele>
        <time>2022-04-10T12:36:51Z</time>
      </trkpt>
      <trkpt lat="46.073557259514928" lon="8.821057230234146">
        <ele>767.32000000000005</ele>
        <time>2022-04-10T12:37:04Z</time>
      </trkpt>
      <trkpt lat="46.07359204441309" lon="8.820989839732647">
        <ele>765.21000000000004</ele>
        <time>2022-04-10T12:37:19Z</time>
      </trkpt>
      <trkpt lat="46.073500849306583" lon="8.820965867489576">
        <ele>762.91999999999996</ele>
        <time>2022-04-10T12:37:31Z</time>
      </trkpt>
      <trkpt lat="46.073496155440807" lon="8.820961844176054">
        <ele>762.62</ele>
        <time>2022-04-10T12:37:33Z</time>
      </trkpt>
      <trkpt lat="46.073504537343979" lon="8.820903589949012">
        <ele>759.86000000000001</ele>
        <time>2022-04-10T12:37:44Z</time>
      </trkpt>
      <trkpt lat="46.073618195950985" lon="8.820865033194423">
        <ele>757.57000000000005</ele>
        <time>2022-04-10T12:37:58Z</time>
      </trkpt>
      <trkpt lat="46.073579136282206" lon="8.820813819766045">
        <ele>755.84000000000003</ele>
        <time>2022-04-10T12:38:09Z</time>
      </trkpt>
      <trkpt lat="46.073486097157001" lon="8.820774089545012">
        <ele>753.09000000000003</ele>
        <time>2022-04-10T12:38:24Z</time>
      </trkpt>
      <trkpt lat="46.073522474616766" lon="8.820741400122643">
        <ele>751.63999999999999</ele>
        <time>2022-04-10T12:38:35Z</time>
      </trkpt>
      <trkpt lat="46.073512081056833" lon="8.82069974206388">
        <ele>749.58000000000004</ele>
        <time>2022-04-10T12:38:47Z</time>
      </trkpt>
      <trkpt lat="46.07342834584415" lon="8.8207021728158">
        <ele>746.82000000000005</ele>
        <time>2022-04-10T12:39:00Z</time>
      </trkpt>
      <trkpt lat="46.073344526812434" lon="8.820698317140341">
        <ele>743.74000000000001</ele>
        <time>2022-04-10T12:39:13Z</time>
      </trkpt>
      <trkpt lat="46.073366655036807" lon="8.820626148954034">
        <ele>741.23000000000002</ele>
        <time>2022-04-10T12:39:25Z</time>
      </trkpt>
      <trkpt lat="46.073421221226454" lon="8.820542749017477">
        <ele>738.71000000000004</ele>
        <time>2022-04-10T12:39:39Z</time>
      </trkpt>
      <trkpt lat="46.073515936732292" lon="8.820459181442857">
        <ele>736.02999999999997</ele>
        <time>2022-04-10T12:39:55Z</time>
      </trkpt>
      <trkpt lat="46.073590451851487" lon="8.820364130660892">
        <ele>733.52999999999997</ele>
        <time>2022-04-10T12:40:07Z</time>
      </trkpt>
      <trkpt lat="46.073688603937626" lon="8.820245442911983">
        <ele>730.46000000000004</ele>
        <time>2022-04-10T12:40:24Z</time>
      </trkpt>
      <trkpt lat="46.073770746588707" lon="8.820179058238864">
        <ele>728.32000000000005</ele>
        <time>2022-04-10T12:40:37Z</time>
      </trkpt>
      <trkpt lat="46.073802933096886" lon="8.820092976093292">
        <ele>725.82000000000005</ele>
        <time>2022-04-10T12:40:51Z</time>
      </trkpt>
      <trkpt lat="46.073829000815749" lon="8.819993985816836">
        <ele>722.98000000000002</ele>
        <time>2022-04-10T12:41:05Z</time>
      </trkpt>
      <trkpt lat="46.073774853721261" lon="8.819923074916005">
        <ele>720.72000000000003</ele>
        <time>2022-04-10T12:41:18Z</time>
      </trkpt>
      <trkpt lat="46.073734117671847" lon="8.819907316938043">
        <ele>718.59000000000003</ele>
        <time>2022-04-10T12:41:30Z</time>
      </trkpt>
      <trkpt lat="46.073824390769005" lon="8.819790808483958">
        <ele>716.36000000000001</ele>
        <time>2022-04-10T12:41:46Z</time>
      </trkpt>
      <trkpt lat="46.073793964460492" lon="8.819748228415847">
        <ele>713.75</ele>
        <time>2022-04-10T12:41:58Z</time>
      </trkpt>
      <trkpt lat="46.073714923113585" lon="8.819782007485628">
        <ele>710.69000000000005</ele>
        <time>2022-04-10T12:42:11Z</time>
      </trkpt>
      <trkpt lat="46.073636384680867" lon="8.81986909545958">
        <ele>707.69000000000005</ele>
        <time>2022-04-10T12:42:28Z</time>
      </trkpt>
      <trkpt lat="46.073547704145312" lon="8.819935480132699">
        <ele>704.69000000000005</ele>
        <time>2022-04-10T12:42:43Z</time>
      </trkpt>
      <trkpt lat="46.073496155440807" lon="8.819927098229528">
        <ele>702.16999999999996</ele>
        <time>2022-04-10T12:42:56Z</time>
      </trkpt>
      <trkpt lat="46.07353588566184" lon="8.819844955578446">
        <ele>698.98000000000002</ele>
        <time>2022-04-10T12:43:08Z</time>
      </trkpt>
      <trkpt lat="46.073532700538635" lon="8.819773960858584">
        <ele>695.88</ele>
        <time>2022-04-10T12:43:19Z</time>
      </trkpt>
      <trkpt lat="46.073464136570692" lon="8.819772619754076">
        <ele>692.75999999999999</ele>
        <time>2022-04-10T12:43:31Z</time>
      </trkpt>
      <trkpt lat="46.073377719148993" lon="8.819807153195143">
        <ele>689.74000000000001</ele>
        <time>2022-04-10T12:43:42Z</time>
      </trkpt>
      <trkpt lat="46.073370175436139" lon="8.819738840684295">
        <ele>686.91999999999996</ele>
        <time>2022-04-10T12:43:54Z</time>
      </trkpt>
      <trkpt lat="46.073444355279207" lon="8.819666588678956">
        <ele>683.86000000000001</ele>
        <time>2022-04-10T12:44:07Z</time>
      </trkpt>
      <trkpt lat="46.073494479060173" lon="8.819598611444235">
        <ele>680.67999999999995</ele>
        <time>2022-04-10T12:44:16Z</time>
      </trkpt>
      <trkpt lat="46.073442008346319" lon="8.819554187357426">
        <ele>678.15999999999997</ele>
        <time>2022-04-10T12:44:27Z</time>
      </trkpt>
      <trkpt lat="46.073382664471865" lon="8.819529628381133">
        <ele>674.91999999999996</ele>
        <time>2022-04-10T12:44:38Z</time>
      </trkpt>
      <trkpt lat="46.07337118126452" lon="8.819460561499">
        <ele>671.87</ele>
        <time>2022-04-10T12:44:49Z</time>
      </trkpt>
      <trkpt lat="46.073459107428789" lon="8.819368444383144">
        <ele>668.82000000000005</ele>
        <time>2022-04-10T12:45:04Z</time>
      </trkpt>
      <trkpt lat="46.073532784357667" lon="8.819280518218875">
        <ele>665.79999999999995</ele>
        <time>2022-04-10T12:45:19Z</time>
      </trkpt>
      <trkpt lat="46.073599755764008" lon="8.819179851561785">
        <ele>662.55999999999995</ele>
        <time>2022-04-10T12:45:34Z</time>
      </trkpt>
      <trkpt lat="46.073599085211754" lon="8.819169793277979">
        <ele>662.40999999999997</ele>
        <time>2022-04-10T12:45:36Z</time>
      </trkpt>
      <trkpt lat="46.073560947552323" lon="8.819173565134406">
        <ele>659.65999999999997</ele>
        <time>2022-04-10T12:45:50Z</time>
      </trkpt>
      <trkpt lat="46.073570754379034" lon="8.819134421646595">
        <ele>657.12</ele>
        <time>2022-04-10T12:46:04Z</time>
      </trkpt>
      <trkpt lat="46.073570251464844" lon="8.819077089428902">
        <ele>655.01999999999998</ele>
        <time>2022-04-10T12:46:19Z</time>
      </trkpt>
      <trkpt lat="46.073532281443477" lon="8.819030905142427">
        <ele>652.37</ele>
        <time>2022-04-10T12:46:33Z</time>
      </trkpt>
      <trkpt lat="46.073490791022778" lon="8.819042891263962">
        <ele>649.36000000000001</ele>
        <time>2022-04-10T12:46:46Z</time>
      </trkpt>
      <trkpt lat="46.073552146553993" lon="8.818977847695351">
        <ele>646.17999999999995</ele>
        <time>2022-04-10T12:47:01Z</time>
      </trkpt>
      <trkpt lat="46.073617525398731" lon="8.818925879895687">
        <ele>643.51999999999998</ele>
        <time>2022-04-10T12:47:17Z</time>
      </trkpt>
      <trkpt lat="46.07356321066618" lon="8.818900734186173">
        <ele>640.63</ele>
        <time>2022-04-10T12:47:30Z</time>
      </trkpt>
      <trkpt lat="46.073635881766677" lon="8.818846922367811">
        <ele>637.88999999999999</ele>
        <time>2022-04-10T12:47:45Z</time>
      </trkpt>
      <trkpt lat="46.073684077709913" lon="8.818789338693023">
        <ele>634.89999999999998</ele>
        <time>2022-04-10T12:47:59Z</time>
      </trkpt>
      <trkpt lat="46.073676282539964" lon="8.818656988441944">
        <ele>631.47000000000003</ele>
        <time>2022-04-10T12:48:14Z</time>
      </trkpt>
      <trkpt lat="46.073648035526276" lon="8.818479962646961">
        <ele>629.53999999999996</ele>
        <time>2022-04-10T12:48:27Z</time>
      </trkpt>
      <trkpt lat="46.073644682765007" lon="8.818333111703396">
        <ele>628.29999999999995</ele>
        <time>2022-04-10T12:48:40Z</time>
      </trkpt>
      <trkpt lat="46.073700170964003" lon="8.818217106163502">
        <ele>626.63</ele>
        <time>2022-04-10T12:48:52Z</time>
      </trkpt>
      <trkpt lat="46.073764460161328" lon="8.81813932210207">
        <ele>625.72000000000003</ele>
        <time>2022-04-10T12:49:03Z</time>
      </trkpt>
      <trkpt lat="46.073742667213082" lon="8.818086097016931">
        <ele>624.48000000000002</ele>
        <time>2022-04-10T12:49:13Z</time>
      </trkpt>
      <trkpt lat="46.073740655556321" lon="8.818043433129787">
        <ele>622.27999999999997</ele>
        <time>2022-04-10T12:49:24Z</time>
      </trkpt>
      <trkpt lat="46.073723807930946" lon="8.817991800606251">
        <ele>620.10000000000002</ele>
        <time>2022-04-10T12:49:38Z</time>
      </trkpt>
      <trkpt lat="46.073671504855156" lon="8.818055251613259">
        <ele>618.38999999999999</ele>
        <time>2022-04-10T12:49:51Z</time>
      </trkpt>
      <trkpt lat="46.073636887595057" lon="8.818160109221935">
        <ele>615.35000000000002</ele>
        <time>2022-04-10T12:50:05Z</time>
      </trkpt>
      <trkpt lat="46.073638563975692" lon="8.818070255219936">
        <ele>612.76999999999998</ele>
        <time>2022-04-10T12:50:18Z</time>
      </trkpt>
      <trkpt lat="46.07366337440908" lon="8.817932205274701">
        <ele>610.00999999999999</ele>
        <time>2022-04-10T12:50:31Z</time>
      </trkpt>
      <trkpt lat="46.073706541210413" lon="8.817851822823286">
        <ele>607.03999999999996</ele>
        <time>2022-04-10T12:50:45Z</time>
      </trkpt>
      <trkpt lat="46.073706289753318" lon="8.81775232963264">
        <ele>604.87</ele>
        <time>2022-04-10T12:51:00Z</time>
      </trkpt>
      <trkpt lat="46.073754485696554" lon="8.817627020180225">
        <ele>602.96000000000004</ele>
        <time>2022-04-10T12:51:13Z</time>
      </trkpt>
      <trkpt lat="46.073715845122933" lon="8.817563317716122">
        <ele>601.07000000000005</ele>
        <time>2022-04-10T12:51:25Z</time>
      </trkpt>
      <trkpt lat="46.073694052174687" lon="8.817465836182237">
        <ele>597.76999999999998</ele>
        <time>2022-04-10T12:51:39Z</time>
      </trkpt>
      <trkpt lat="46.073690867051482" lon="8.817388471215963">
        <ele>595.58000000000004</ele>
        <time>2022-04-10T12:51:54Z</time>
      </trkpt>
      <trkpt lat="46.073725568130612" lon="8.817349579185247">
        <ele>594.32000000000005</ele>
        <time>2022-04-10T12:52:05Z</time>
      </trkpt>
      <trkpt lat="46.073695728555322" lon="8.817274728789926">
        <ele>591.48000000000002</ele>
        <time>2022-04-10T12:52:16Z</time>
      </trkpt>
      <trkpt lat="46.073758760467172" lon="8.817335413768888">
        <ele>590.32000000000005</ele>
        <time>2022-04-10T12:52:28Z</time>
      </trkpt>
      <trkpt lat="46.073747025802732" lon="8.817245308309794">
        <ele>588.08000000000004</ele>
        <time>2022-04-10T12:52:39Z</time>
      </trkpt>
      <trkpt lat="46.073717437684536" lon="8.817093595862389">
        <ele>584.90999999999997</ele>
        <time>2022-04-10T12:52:54Z</time>
      </trkpt>
      <trkpt lat="46.073660189285874" lon="8.81703894585371">
        <ele>581.89999999999998</ele>
        <time>2022-04-10T12:53:07Z</time>
      </trkpt>
      <trkpt lat="46.073644598945975" lon="8.816947666928172">
        <ele>579.41999999999996</ele>
        <time>2022-04-10T12:53:21Z</time>
      </trkpt>
      <trkpt lat="46.073682820424438" lon="8.816944230347872">
        <ele>576.30999999999995</ele>
        <time>2022-04-10T12:53:35Z</time>
      </trkpt>
      <trkpt lat="46.07379631139338" lon="8.817001897841692">
        <ele>573.14999999999998</ele>
        <time>2022-04-10T12:53:51Z</time>
      </trkpt>
      <trkpt lat="46.07385590672493" lon="8.817064091563225">
        <ele>570.96000000000004</ele>
        <time>2022-04-10T12:54:03Z</time>
      </trkpt>
      <trkpt lat="46.073874849826097" lon="8.817092003300786">
        <ele>570.17999999999995</ele>
        <time>2022-04-10T12:54:07Z</time>
      </trkpt>
      <trkpt lat="46.073898235335946" lon="8.817123603075743">
        <ele>569.82000000000005</ele>
        <time>2022-04-10T12:54:10Z</time>
      </trkpt>
      <trkpt lat="46.073912400752306" lon="8.817165680229664">
        <ele>569.52999999999997</ele>
        <time>2022-04-10T12:54:13Z</time>
      </trkpt>
      <trkpt lat="46.073920447379351" lon="8.817274142056704">
        <ele>569.04999999999995</ele>
        <time>2022-04-10T12:54:20Z</time>
      </trkpt>
      <trkpt lat="46.07394483871758" lon="8.817367181181908">
        <ele>568.41999999999996</ele>
        <time>2022-04-10T12:54:31Z</time>
      </trkpt>
      <trkpt lat="46.073969732969999" lon="8.81737899966538">
        <ele>568.13999999999999</ele>
        <time>2022-04-10T12:54:50Z</time>
      </trkpt>
      <trkpt lat="46.073990100994706" lon="8.817305909469724">
        <ele>568.61000000000001</ele>
        <time>2022-04-10T12:55:08Z</time>
      </trkpt>
      <trkpt lat="46.073963195085526" lon="8.817194681614637">
        <ele>569.42999999999995</ele>
        <time>2022-04-10T12:55:15Z</time>
      </trkpt>
      <trkpt lat="46.07395020313561" lon="8.817140702158213">
        <ele>569.63</ele>
        <time>2022-04-10T12:55:18Z</time>
      </trkpt>
      <trkpt lat="46.073879208415747" lon="8.816967867314816">
        <ele>569.38</ele>
        <time>2022-04-10T12:55:29Z</time>
      </trkpt>
      <trkpt lat="46.073837969452143" lon="8.816832834854722">
        <ele>569.38999999999999</ele>
        <time>2022-04-10T12:55:38Z</time>
      </trkpt>
      <trkpt lat="46.073837298899889" lon="8.816819088533521">
        <ele>569.34000000000003</ele>
        <time>2022-04-10T12:55:39Z</time>
      </trkpt>
      <trkpt lat="46.07377820648253" lon="8.816647594794631">
        <ele>568.92999999999995</ele>
        <time>2022-04-10T12:55:49Z</time>
      </trkpt>
      <trkpt lat="46.0736761149019" lon="8.816475933417678">
        <ele>567.16999999999996</ele>
        <time>2022-04-10T12:56:00Z</time>
      </trkpt>
      <trkpt lat="46.073575615882874" lon="8.81631382741034">
        <ele>567.27999999999997</ele>
        <time>2022-04-10T12:56:12Z</time>
      </trkpt>
      <trkpt lat="46.073437398299575" lon="8.816096233204007">
        <ele>567.88</ele>
        <time>2022-04-10T12:56:27Z</time>
      </trkpt>
      <trkpt lat="46.07334092259407" lon="8.815906383097172">
        <ele>566.16999999999996</ele>
        <time>2022-04-10T12:56:39Z</time>
      </trkpt>
      <trkpt lat="46.073317620903254" lon="8.815841590985656">
        <ele>566.19000000000005</ele>
        <time>2022-04-10T12:56:43Z</time>
      </trkpt>
      <trkpt lat="46.073258863762021" lon="8.815646711736918">
        <ele>566.26999999999998</ele>
        <time>2022-04-10T12:56:55Z</time>
      </trkpt>
    </trkseg>
  </trk>

</gpx>